[[{"header":{"parameterUnit":"m.s-1","parameterCategory":1,"la1":30.6,"la2":29.2853,"lo1":-89.7004,"lo2":-87.6739,"dy":0.0162,"dx":0.0183,"nx":112,"ny":82,"refTime":"2023-10-23T18:00:00:Z","depth":0,"parameterNumber":2,"parameterNumberName":"U-component_of_WINDS"},"data":[0.0,0.0,0.0,0.0,0.0,0.0,0.0,0.0,0.0,0.0,0.0,0.0,0.0,0.0,0.0,0.0,0.0,0.0,0.0,0.0,0.0,0.0,0.0,0.0,0.0,0.0,0.0,0.0,0.0,0.0,0.0,0.0,0.0,0.0,0.0,0.0,0.0,0.0,0.0,0.0,0.0,0.0,0.0,0.0,0.0,0.0,0.0,0.0,0.0,0.0,0.0,0.0,0.0,0.0,0.0,0.0,0.0,0.0,0.0,0.0,0.0,0.0,0.0,0.0,0.0,0.0,0.0,0.0,0.0,0.0,0.0,0.0,0.0,0.0,0.0,0.0,0.0,0.0,0.0,0.0,0.0,0.0,0.0,0.0,0.0,0.0,0.0,0.0,0.0,0.0,-0.772,-0.8305,-0.8897,-0.9138,-0.8783,-0.8246,-0.7231,-0.5664,0.0,0.0,0.0,0.0,0.0,0.0,0.0,0.0,0.0,0.0,0.0,0.0,0.0,0.0,0.0,0.0,0.0,0.0,0.0,0.0,0.0,0.0,0.0,0.0,0.0,0.0,0.0,0.0,0.0,0.0,0.0,0.0,0.0,0.0,0.0,0.0,0.0,0.0,0.0,0.0,0.0,0.0,0.0,0.0,0.0,0.0,0.0,0.0,0.0,0.0,0.0,0.0,0.0,0.0,0.0,0.0,0.0,0.0,0.0,0.0,0.0,0.0,0.0,0.0,0.0,0.0,0.0,0.0,0.0,0.0,0.0,0.0,0.0,0.0,0.0,0.0,0.0,0.0,0.0,0.0,0.0,0.0,0.0,0.0,0.0,0.0,0.0,0.0,0.0,0.0,0.0,0.0,0.0,0.0,0.0,0.0,0.0,0.0,0.0,0.0,0.0,0.0,0.0,0.0,-0.8191,-0.8963,-0.9377,-0.9354,-0.868,-0.8225,-0.7362,-0.5939,0.0,0.0,0.0,0.0,0.0,0.0,0.0,0.0,0.0,0.0,0.0,0.0,0.0,0.0,0.0,0.0,0.0,0.0,0.0,0.0,0.0,0.0,0.0,0.0,0.0,0.0,0.0,0.0,0.0,0.0,0.0,0.0,0.0,0.0,0.0,0.0,0.0,0.0,0.0,0.0,0.0,0.0,0.0,0.0,0.0,0.0,0.0,0.0,0.0,0.0,0.0,0.0,0.0,0.0,0.0,0.0,0.0,0.0,0.0,0.0,0.0,0.0,0.0,0.0,0.0,0.0,0.0,0.0,0.0,0.0,0.0,0.0,0.0,0.0,0.0,0.0,0.0,0.0,0.0,0.0,0.0,0.0,0.0,0.0,0.0,0.0,0.0,0.0,0.0,0.0,0.0,0.0,0.0,0.0,0.0,0.0,0.0,0.0,0.0,0.0,0.0,0.0,0.0,-0.8139,-0.8633,-0.9137,-0.9191,-0.9053,-0.8621,-0.807,-0.7175,-0.5865,-0.528,0.0,0.0,0.0,0.0,0.0,0.0,0.0,0.0,0.0,0.0,0.0,0.0,0.0,0.0,0.0,0.0,0.0,0.0,0.0,0.0,0.0,0.0,0.0,0.0,0.0,0.0,0.0,0.0,0.0,0.0,0.0,0.0,0.0,0.0,0.0,0.0,0.0,0.0,0.0,0.0,0.0,0.0,0.0,0.0,0.0,0.0,0.0,0.0,0.0,0.0,0.0,0.0,0.0,0.0,0.0,0.0,0.0,0.0,0.0,0.0,0.0,0.0,0.0,0.0,0.0,0.0,0.0,0.0,0.0,0.0,0.0,0.0,0.0,0.0,0.0,0.0,0.0,0.0,0.0,0.0,0.0,0.0,0.0,0.0,0.0,0.0,0.0,0.0,0.0,0.0,0.0,0.0,0.0,0.0,0.0,0.0,0.0,0.0,0.0,0.0,0.0,0.0,-0.8605,-0.8871,-0.9084,-0.8911,-0.8711,-0.8475,-0.7833,-0.6923,-0.5765,-0.5176,0.0,0.0,0.0,0.0,0.0,0.0,0.0,0.0,0.0,0.0,0.0,0.0,0.0,0.0,0.0,0.0,0.0,0.0,0.0,0.0,0.0,0.0,0.0,0.0,0.0,0.0,0.0,0.0,0.0,0.0,0.0,0.0,0.0,0.0,0.0,0.0,0.0,0.0,0.0,0.0,0.0,0.0,0.0,0.0,0.0,0.0,0.0,0.0,0.0,0.0,0.0,0.0,0.0,0.0,0.0,0.0,0.0,0.0,0.0,0.0,0.0,0.0,0.0,0.0,0.0,0.0,0.0,0.0,0.0,0.0,0.0,0.0,0.0,0.0,0.0,0.0,0.0,0.0,0.0,0.0,0.0,0.0,0.0,0.0,0.0,0.0,0.0,0.0,0.0,0.0,0.0,0.0,0.0,0.0,0.0,0.0,0.0,0.0,0.0,0.0,0.0,0.0,-0.8791,-0.8818,-0.8831,-0.8818,-0.8593,-0.8088,-0.753,-0.6795,-0.5749,-0.5145,0.0,0.0,0.0,0.0,0.0,0.0,0.0,0.0,0.0,0.0,0.0,0.0,0.0,0.0,0.0,0.0,0.0,0.0,0.0,0.0,0.0,0.0,0.0,0.0,0.0,0.0,0.0,0.0,0.0,0.0,0.0,0.0,0.0,0.0,0.0,0.0,0.0,0.0,0.0,0.0,0.0,0.0,0.0,0.0,0.0,0.0,0.0,0.0,0.0,0.0,0.0,0.0,0.0,0.0,0.0,0.0,0.0,0.0,0.0,0.0,0.0,0.0,0.0,0.0,0.0,0.0,0.0,0.0,0.0,0.0,0.0,0.0,0.0,0.0,0.0,0.0,0.0,0.0,0.0,0.0,0.0,0.0,0.0,0.0,0.0,0.0,0.0,0.0,0.0,0.0,0.0,0.0,0.0,0.0,0.0,0.0,0.0,0.0,0.0,0.0,0.0,0.0,-0.8804,-0.8804,0.0,-0.8725,-0.8463,-0.7923,-0.7304,-0.6539,-0.5576,0.0,0.0,0.0,0.0,0.0,0.0,0.0,0.0,0.0,0.0,0.0,0.0,0.0,0.0,0.0,0.0,0.0,0.0,0.0,0.0,0.0,0.0,0.0,0.0,0.0,0.0,0.0,0.0,0.0,0.0,0.0,0.0,0.0,0.0,0.0,0.0,0.0,0.0,0.0,0.0,0.0,0.0,0.0,0.0,0.0,0.0,0.0,0.0,0.0,0.0,0.0,0.0,0.0,0.0,0.0,0.0,0.0,0.0,0.0,0.0,0.0,0.0,0.0,0.0,0.0,0.0,0.0,0.0,0.0,0.0,0.0,0.0,0.0,0.0,0.0,0.0,0.0,0.0,0.0,0.0,0.0,0.0,0.0,0.0,0.0,0.0,0.0,0.0,0.0,0.0,0.0,0.0,0.0,0.0,0.0,0.0,0.0,0.0,0.0,0.0,0.0,0.0,-0.8804,-0.8804,-0.8804,0.0,-0.8685,-0.8345,-0.7735,-0.7087,-0.6284,-0.533,0.0,0.0,0.0,0.0,0.0,0.0,0.0,0.0,0.0,0.0,0.0,0.0,0.0,0.0,0.0,0.0,0.0,0.0,0.0,0.0,0.0,0.0,0.0,0.0,0.0,0.0,0.0,0.0,0.0,0.0,0.0,0.0,0.0,0.0,0.0,0.0,0.0,0.0,0.0,0.0,0.0,0.0,0.0,0.0,0.0,0.0,0.0,0.0,0.0,0.0,0.0,0.0,0.0,0.0,0.0,0.0,0.0,0.0,0.0,0.0,0.0,0.0,0.0,0.0,0.0,0.0,0.0,0.0,0.0,0.0,0.0,0.0,0.0,0.0,0.0,0.0,0.0,0.0,0.0,0.0,0.0,0.0,0.0,0.0,0.0,0.0,0.0,0.0,0.0,0.0,0.0,0.0,0.0,0.0,0.0,0.0,0.0,0.0,0.0,0.0,0.0,0.0,-0.8804,-0.8804,-0.8804,-0.8804,-0.8685,-0.8268,-0.7471,-0.6833,-0.6076,0.0,0.0,0.0,0.0,0.0,0.0,0.0,0.0,0.0,0.0,0.0,0.0,0.0,0.0,0.0,0.0,0.0,0.0,0.0,0.0,0.0,0.0,0.0,0.0,0.0,0.0,0.0,0.0,0.0,0.0,0.0,0.0,0.0,0.0,0.0,0.0,0.0,0.0,0.0,0.0,0.0,0.0,0.0,0.0,0.0,0.0,0.0,0.0,0.0,0.0,0.0,0.0,0.0,0.0,0.0,0.0,0.0,0.0,0.0,0.0,0.0,0.0,0.0,0.0,0.0,0.0,0.0,0.0,0.0,0.0,0.0,0.0,0.0,0.0,0.0,0.0,0.0,0.0,0.0,0.0,0.0,0.0,0.0,0.0,0.0,0.0,0.0,0.0,0.0,0.0,0.0,0.0,0.0,0.0,0.0,0.0,0.0,0.0,0.0,0.0,0.0,0.0,0.0,-0.8804,-0.8804,-0.8804,-0.8804,-0.858,-0.8113,-0.7267,-0.6592,-0.5746,-0.4648,0.0,0.0,0.0,0.0,0.0,0.0,0.0,0.0,0.0,0.0,0.0,0.0,0.0,0.0,0.0,0.0,0.0,0.0,0.0,0.0,0.0,0.0,0.0,0.0,0.0,0.0,0.0,0.0,0.0,0.0,0.0,0.0,0.0,0.0,0.0,0.0,0.0,0.0,0.0,0.0,0.0,0.0,0.0,0.0,0.0,0.0,0.0,0.0,0.0,0.0,0.0,0.0,0.0,0.0,0.0,0.0,0.0,0.0,0.0,0.0,0.0,0.0,0.0,0.0,0.0,0.0,0.0,0.0,0.0,0.0,0.0,0.0,0.0,0.0,0.0,0.0,0.0,0.0,0.0,0.0,0.0,0.0,0.0,0.0,0.0,0.0,0.0,0.0,0.0,0.0,0.0,0.0,0.0,0.0,0.0,0.0,0.0,0.0,0.0,0.0,0.0,0.0,-0.8804,-0.8804,-0.8804,-0.8804,-0.8566,-0.8062,-0.7218,-0.6495,-0.5628,-0.456,0.0,0.0,0.0,0.0,0.0,0.0,0.0,0.0,0.0,0.0,0.0,0.0,0.0,0.0,0.0,0.0,0.0,0.0,0.0,0.0,0.0,0.0,0.0,0.0,0.0,0.0,0.0,0.0,0.0,0.0,0.0,0.0,0.0,0.0,0.0,0.0,0.0,0.0,0.0,0.0,0.0,0.0,0.0,0.0,0.0,0.0,0.0,0.0,0.0,0.0,0.0,0.0,0.0,0.0,0.0,0.0,0.0,0.0,0.0,0.0,0.0,0.0,0.0,0.0,0.0,0.0,0.0,0.0,0.0,0.0,0.0,0.0,0.0,0.0,0.0,0.0,0.0,0.0,0.0,0.0,0.0,0.0,0.0,0.0,0.0,0.0,0.0,0.0,0.0,0.0,0.0,0.0,0.0,0.0,0.0,0.0,0.0,0.0,0.0,0.0,0.0,0.0,-0.8804,-0.8804,-0.8804,-0.8804,-0.854,-0.8037,-0.7267,-0.6497,-0.5655,-0.4662,0.0,0.0,0.0,0.0,0.0,0.0,0.0,0.0,0.0,0.0,0.0,0.0,0.0,0.0,0.0,0.0,0.0,0.0,0.0,0.0,0.0,0.0,0.0,0.0,0.0,0.0,0.0,0.0,0.0,0.0,0.0,0.0,0.0,0.0,0.0,0.0,0.0,0.0,0.0,0.0,0.0,0.0,0.0,0.0,0.0,0.0,0.0,0.0,0.0,0.0,0.0,0.0,0.0,0.0,0.0,0.0,0.0,0.0,0.0,0.0,-0.9071,0.0,0.0,0.0,0.0,0.0,0.0,0.0,0.0,0.0,0.0,0.0,0.0,0.0,0.0,0.0,0.0,0.0,0.0,0.0,0.0,0.0,0.0,0.0,0.0,0.0,0.0,0.0,0.0,0.0,0.0,0.0,0.0,0.0,0.0,0.0,0.0,0.0,0.0,0.0,0.0,0.0,-0.8804,-0.8804,-0.8804,-0.8804,-0.8358,-0.7835,-0.717,-0.639,-0.5555,-0.4653,-0.4061,0.0,0.0,0.0,0.0,0.0,0.0,0.0,0.0,0.0,0.0,0.0,0.0,0.0,0.0,0.0,0.0,0.0,0.0,0.0,0.0,0.0,0.0,0.0,0.0,0.0,0.0,0.0,0.0,0.0,0.0,0.0,0.0,0.0,0.0,0.0,0.0,0.0,0.0,0.0,0.0,0.0,0.0,0.0,0.0,0.0,0.0,0.0,0.0,0.0,0.0,0.0,0.0,0.0,0.0,0.0,0.0,0.0,0.0,0.0,0.0,-0.9352,0.0,0.0,0.0,0.0,0.0,0.0,0.0,0.0,0.0,0.0,0.0,0.0,0.0,0.0,0.0,0.0,0.0,0.0,0.0,0.0,0.0,0.0,0.0,0.0,0.0,0.0,0.0,0.0,0.0,0.0,0.0,0.0,0.0,0.0,0.0,0.0,0.0,0.0,0.0,0.0,-0.8804,-0.8804,-0.8804,-0.8804,-0.8475,-0.8012,-0.7303,-0.6659,-0.5869,-0.4902,-0.4374,0.0,0.0,0.0,0.0,0.0,0.0,0.0,0.0,0.0,0.0,0.0,0.0,0.0,0.0,0.0,0.0,0.0,0.0,0.0,0.0,0.0,0.0,0.0,0.0,0.0,0.0,0.0,0.0,0.0,0.0,0.0,0.0,0.0,0.0,0.0,0.0,0.0,0.0,0.0,0.0,0.0,0.0,0.0,0.0,0.0,0.0,0.0,0.0,0.0,0.0,0.0,0.0,0.0,-1.1873,-1.1979,-1.1855,-1.1855,-1.1828,-1.1735,-1.1016,-1.0421,-0.9913,-0.9889,0.0,0.0,0.0,0.0,0.0,0.0,0.0,0.0,0.0,0.0,0.0,0.0,0.0,0.0,0.0,0.0,0.0,0.0,0.0,0.0,0.0,0.0,0.0,0.0,-1.0815,-1.0186,-1.0227,0.0,0.0,0.0,0.0,0.0,0.0,0.0,0.0,0.0,0.0,0.0,-0.8818,-0.8804,-0.8804,-0.8804,-0.8646,-0.8255,-0.7571,-0.7002,-0.6277,-0.5333,-0.482,-0.4392,0.0,0.0,0.0,0.0,0.0,0.0,0.0,0.0,0.0,0.0,0.0,0.0,0.0,0.0,0.0,0.0,0.0,0.0,0.0,0.0,0.0,0.0,0.0,0.0,0.0,0.0,0.0,0.0,0.0,0.0,0.0,0.0,-1.1974,-1.1843,0.0,0.0,0.0,0.0,0.0,0.0,0.0,0.0,0.0,0.0,0.0,0.0,0.0,-1.3123,-1.2596,-1.3078,-1.3243,-1.3113,-1.345,-1.3655,-1.3734,-1.3734,-1.3601,-1.3307,-1.3187,0.0,-1.0795,-1.0586,0.0,0.0,0.0,0.0,0.0,0.0,0.0,0.0,0.0,0.0,0.0,0.0,0.0,0.0,0.0,0.0,0.0,0.0,0.0,0.0,0.0,0.0,-1.2894,-1.3074,-1.2492,-1.205,0.0,-1.0951,-0.9619,-0.9619,-0.9593,0.0,0.0,0.0,0.0,0.0,0.0,0.0,-0.8844,-0.8804,-0.8804,-0.8804,-0.8461,-0.815,-0.7935,-0.7109,-0.643,-0.6009,-0.5215,-0.4664,-0.4432,-0.4115,0.0,0.0,0.0,0.0,0.0,0.0,0.0,0.0,0.0,0.0,0.0,0.0,0.0,0.0,0.0,0.0,0.0,0.0,0.0,0.0,0.0,0.0,0.0,0.0,0.0,0.0,0.0,0.0,0.0,-1.2252,-1.2111,-1.2387,-1.2237,-1.24,0.0,0.0,0.0,0.0,0.0,0.0,0.0,0.0,0.0,-1.3555,-1.3851,-1.3897,-1.3669,-1.406,-1.4145,-1.4032,-1.437,-1.4629,-1.4781,-1.4781,-1.4843,-1.5006,-1.4824,-1.4375,-1.3715,-1.2516,-1.2214,-1.2506,0.0,0.0,0.0,0.0,-1.3244,-1.3053,-1.277,-1.2558,-1.2451,-1.2359,0.0,0.0,0.0,0.0,0.0,0.0,0.0,-1.4702,0.0,0.0,-1.4159,-1.4637,-1.3996,-1.3258,-1.3264,-1.2196,-1.109,0.0,-1.0002,-0.9715,-0.9715,0.0,0.0,0.0,0.0,-0.9111,-0.8844,-0.8804,-0.8804,-0.8804,-0.8632,-0.8409,-0.8137,-0.7683,-0.7158,-0.6648,-0.6069,-0.5604,-0.5311,-0.4939,-0.4706,0.0,0.0,0.0,0.0,0.0,0.0,0.0,0.0,0.0,0.0,0.0,0.0,0.0,0.0,0.0,0.0,0.0,0.0,0.0,0.0,0.0,0.0,0.0,0.0,0.0,0.0,0.0,0.0,-1.2608,-1.2655,-1.3083,-1.2814,-1.2887,0.0,0.0,0.0,0.0,0.0,0.0,-1.357,-1.4073,-1.4363,-1.4354,-1.4584,-1.4699,-1.4651,-1.5039,-1.5147,-1.5014,-1.5404,-1.5676,-1.5798,-1.5889,-1.6114,-1.6504,-1.6316,-1.6374,-1.6427,-1.4583,-1.3988,-1.4276,-1.4276,-1.4501,-1.4801,-1.4576,-1.4539,-1.4448,-1.4163,-1.4012,-1.3945,-1.3699,-1.365,-1.3645,-1.352,0.0,0.0,0.0,0.0,-1.5597,-1.6577,-1.6158,-1.5597,-1.6261,-1.5541,-1.4705,-1.4448,-1.3657,-1.2619,0.0,-1.0523,-1.002,-1.002,0.0,0.0,0.0,0.0,-0.9191,-0.8858,-0.8804,-0.8804,-0.8804,-0.8804,-0.8685,-0.8382,-0.8176,-0.781,-0.7279,-0.6868,-0.6482,-0.618,-0.5742,-0.5448,-0.5344,0.0,0.0,0.0,0.0,0.0,0.0,0.0,0.0,0.0,0.0,0.0,0.0,0.0,0.0,0.0,0.0,0.0,0.0,0.0,0.0,0.0,0.0,0.0,0.0,0.0,0.0,0.0,0.0,0.0,-1.3786,-1.4162,0.0,0.0,0.0,0.0,-1.4519,-1.4493,-1.4394,-1.4368,-1.4978,-1.5162,-1.4802,-1.5353,-1.5506,-1.5253,-1.6021,-1.6418,-1.6418,-1.695,-1.7188,-1.7188,-1.7453,-1.7593,-1.7639,-1.7871,-1.804,-1.8039,-1.6434,-1.5898,-1.6088,-1.6333,-1.6578,-1.6741,-1.6741,-1.6619,-1.6456,-1.6456,-1.6129,-1.5699,-1.5383,-1.5145,-1.5057,-1.5296,-1.5656,0.0,0.0,-1.6472,-1.6716,-1.7148,-1.7226,-1.7296,-1.7852,-1.7412,-1.6795,-1.6514,-1.5357,-1.3848,0.0,-1.1276,-1.0929,-1.0929,0.0,-1.0358,-0.9782,-0.9659,-0.9459,-0.8884,-0.8804,-0.8804,-0.8804,-0.8804,-0.8804,-0.8791,-0.8421,-0.8124,-0.7961,-0.7328,-0.6937,-0.6846,-0.6334,-0.6027,-0.5946,-0.5741,0.0,0.0,0.0,0.0,0.0,0.0,0.0,0.0,0.0,0.0,0.0,0.0,0.0,0.0,0.0,0.0,0.0,0.0,0.0,0.0,0.0,0.0,0.0,0.0,0.0,0.0,0.0,0.0,-1.46,-1.4598,0.0,-1.4954,-1.4531,-1.4514,-1.5078,-1.4993,-1.4934,-1.4916,-1.5538,-1.5787,-1.5458,-1.6158,-1.6544,-1.6575,-1.7045,-1.735,-1.7535,-1.7701,-1.7978,-1.8288,-1.838,-1.875,-1.9363,-1.9455,-1.9691,-2.0018,-1.9624,-1.8964,-1.8161,-1.7976,-1.8119,-1.8414,-1.8119,-1.8161,-1.8288,-1.7976,-1.7976,-1.8002,-1.7618,-1.7259,-1.705,-1.7131,-1.7253,-1.7496,-1.802,-1.8141,-1.8301,-1.9036,-1.8916,-1.8674,-1.8976,-1.859,-1.7912,-1.7194,-1.623,-1.5078,-1.3798,-1.2633,-1.1792,-1.1549,-1.126,-1.0857,-1.0227,-1.0056,-0.9753,-0.9138,-0.9058,-0.8991,-0.8831,-0.8804,-0.8804,-0.8804,-0.8659,-0.854,-0.8397,-0.8075,-0.7792,-0.755,-0.7284,-0.7087,-0.6966,-0.6682,-0.6493,0.0,0.0,0.0,0.0,0.0,0.0,0.0,0.0,0.0,0.0,0.0,0.0,0.0,0.0,0.0,0.0,0.0,0.0,0.0,0.0,0.0,0.0,0.0,0.0,0.0,0.0,-1.5122,-1.5443,-1.5374,-1.5416,-1.5633,-1.5275,-1.5243,-1.5777,-1.565,-1.5629,-1.5677,-1.6211,-1.6478,-1.638,-1.718,-1.771,-1.7933,-1.8332,-1.8613,-1.8769,-1.8875,-1.9134,-1.9392,-1.9575,-2.0031,-2.0699,-2.0744,-2.1015,-2.1356,-2.1553,-2.1181,-2.0451,-1.987,-1.9844,-2.0061,-1.9739,-1.9844,-2.0061,-1.9696,-1.9653,-1.9738,-1.9419,-1.9119,-1.8852,-1.8918,-1.8918,-1.9061,-1.9561,-1.9644,-1.9727,-2.0488,-2.0251,-1.9912,-2.0089,-1.9699,-1.8991,-1.8183,-1.731,-1.6454,-1.5666,-1.4026,-1.2648,-1.2361,-1.1997,-1.1498,-1.0849,-1.0567,-1.0227,-0.9601,-0.9477,-0.9368,-0.9207,-0.9126,-0.9098,-0.9098,-0.9098,-0.9071,-0.8976,-0.8852,-0.8688,-0.8456,-0.8236,-0.8075,-0.7932,-0.777,-0.7799,-0.7986,0.0,0.0,0.0,0.0,0.0,0.0,0.0,0.0,0.0,0.0,0.0,0.0,0.0,0.0,0.0,0.0,0.0,0.0,0.0,0.0,0.0,0.0,0.0,-1.464,-1.5459,-1.6151,-1.6213,-1.6561,-1.6711,-1.6536,-1.6347,-1.6327,-1.6627,-1.6446,-1.642,-1.67,-1.6977,-1.7277,-1.7512,-1.8405,-1.8947,-1.9226,-1.9813,-2.0107,-2.0154,-2.048,-2.0671,-2.0717,-2.1212,-2.1482,-2.1482,-2.1679,-2.1902,-2.2169,-2.2169,-2.2416,-2.275,-2.1998,-2.1731,-2.1731,-2.1731,-2.1731,-2.1687,-2.149,-2.1192,-2.084,-2.084,-2.0612,-2.0389,-2.0581,-2.0666,-2.0708,-2.0894,-2.0936,-2.1043,-2.1441,-2.1216,-2.0989,-2.115,-2.076,-2.0159,-1.9526,-1.8714,-1.7972,-1.7424,-1.5367,-1.3623,-1.3399,-1.2956,-1.2373,-1.1565,-1.1276,0.0,-1.0319,-1.0061,-0.9945,-0.9932,-0.9829,-0.9742,-0.9742,-0.9742,-0.9742,-0.9742,-0.9596,-0.9525,-0.9525,-0.9204,-0.8982,-0.8859,-0.9064,-0.9394,-0.9939,0.0,0.0,0.0,0.0,0.0,0.0,0.0,0.0,0.0,0.0,0.0,0.0,0.0,0.0,0.0,0.0,0.0,0.0,0.0,0.0,0.0,0.0,-1.5587,-1.5283,-1.5874,-1.638,-1.6508,-1.678,-1.6917,-1.667,-1.6572,-1.6693,-1.6988,-1.6965,-1.6991,-1.7072,-1.7696,-1.8053,-1.8059,-1.9079,-1.9714,-2.0006,-2.0553,-2.0886,-2.106,-2.1526,-2.1942,-2.2361,-2.2686,-2.3009,-2.3331,-2.3442,-2.3408,-2.3345,-2.3345,-2.3196,-2.2969,-2.2441,-2.2309,-2.2485,-2.2264,-2.222,-2.222,-2.2353,-2.2233,-2.1963,-2.1963,-2.1889,-2.1839,-2.1864,-2.1907,-2.197,-2.2231,-2.2064,-2.192,-2.2155,-2.1928,-2.1539,-2.1268,-2.0973,-2.0505,-1.9793,-1.892,-1.8193,-1.7748,-1.6757,-1.567,-1.4709,-1.3995,-1.3332,-1.2704,-1.2248,0.0,-1.1485,-1.1143,-1.0839,-1.065,-1.0468,-1.0345,-1.0345,-1.0345,-1.0345,-1.0345,-1.0083,-0.9947,-0.9947,-0.9931,-1.0009,-1.0164,-1.0245,-1.0325,0.0,0.0,0.0,0.0,0.0,0.0,0.0,0.0,0.0,0.0,0.0,0.0,0.0,0.0,0.0,0.0,0.0,0.0,0.0,0.0,0.0,0.0,-1.5904,-1.6271,-1.6161,-1.6457,-1.6752,-1.6842,-1.7103,-1.7228,-1.7074,-1.7074,-1.7141,-1.7367,-1.738,-1.738,-1.738,-1.8015,-1.8497,-1.8716,-1.9656,-2.0255,-2.0553,-2.1047,-2.1371,-2.1596,-2.2191,-2.2782,-2.3317,-2.3645,-2.3951,-2.4249,-2.4249,-2.414,-2.4043,-2.3867,-2.3633,0.0,0.0,0.0,0.0,0.0,-2.2706,-2.2706,-2.2882,-2.2838,-2.2706,-2.2706,-2.2706,-2.2706,-2.2706,-2.2706,-2.275,-2.2882,-2.2751,-2.2601,-2.273,-2.2461,-2.209,-2.1836,-2.1362,-2.0875,-2.043,-1.9659,-1.8955,-1.8726,-1.8184,0.0,-1.6687,-1.5581,-1.4551,-1.3888,-1.3418,-1.3006,-1.259,-1.2167,-1.1855,-1.168,-1.1415,-1.1249,-1.1149,-1.1136,0.0,0.0,0.0,-1.0629,-1.0629,-1.0857,0.0,0.0,0.0,-1.1653,-1.1745,0.0,0.0,0.0,-1.16,-1.18,0.0,0.0,0.0,0.0,0.0,0.0,0.0,0.0,0.0,0.0,0.0,0.0,0.0,0.0,0.0,0.0,-1.6286,-1.681,-1.7109,-1.7146,-1.7167,-1.7219,-1.7474,-1.7582,-1.7582,-1.7635,-1.7635,-1.7635,-1.7687,-1.7687,-1.7635,0.0,0.0,0.0,0.0,-2.0617,-2.0873,-2.1311,-2.1643,-2.194,-2.2691,-2.3335,-2.3871,-2.4338,-2.457,-2.457,-2.457,-2.4531,-2.4453,-2.4082,-2.3887,-2.375,-2.3257,-2.3101,-2.3101,-2.3101,-2.3101,-2.3101,-2.3101,0.0,0.0,-2.3101,-2.3101,-2.3101,-2.3101,-2.3101,-2.3101,-2.3101,-2.3101,-2.3101,-2.3101,-2.2828,-2.2578,-2.2519,-2.1892,-2.1327,-2.1268,-2.0566,-1.998,-1.998,-1.9461,-1.8968,-1.8765,-1.7315,-1.5947,-1.5169,-1.479,-1.4399,-1.382,-1.3332,-1.3041,-1.2998,0.0,0.0,-1.2168,-1.2168,-1.2011,-1.1672,-1.1597,-1.157,-1.157,-1.1824,-1.2141,-1.2398,-1.2703,-1.2971,-1.3213,-1.3213,-1.3227,-1.3214,-1.2804,-1.2804,0.0,0.0,0.0,0.0,0.0,0.0,0.0,0.0,0.0,0.0,0.0,0.0,0.0,0.0,0.0,-1.6359,-1.6881,-1.7301,-1.7415,-1.7482,-1.7487,-1.7541,-1.7555,-1.7582,-1.7582,-1.7806,-1.7911,-1.7911,-1.8108,-1.816,-1.7911,-1.8698,-1.9168,-1.9272,-2.0101,-2.0514,-2.0565,-2.1304,-2.1828,-2.2064,0.0,0.0,-2.4695,-2.5179,-2.544,-2.544,-2.544,-2.5273,-2.4941,-2.4891,-2.4414,-2.375,-2.3257,-2.3101,-2.3101,-2.3101,-2.3101,-2.3101,-2.3101,-2.3101,-2.3101,-2.3101,-2.3101,-2.3101,-2.3101,-2.3101,0.0,-2.3101,-2.3101,-2.3101,-2.3101,-2.3042,-2.2886,-2.2598,-2.2383,-2.2168,-2.1836,-2.1074,-2.0468,-2.0468,-1.9824,-1.9187,-1.8968,-1.8175,-1.7403,-1.7093,-1.6465,-1.5947,-1.5844,-1.5119,-1.4676,-1.4622,-1.4279,-1.3973,-1.3757,-1.3757,-1.3575,-1.3108,-1.2739,-1.2529,-1.2529,-1.2583,-1.2757,-1.3026,-1.3093,-1.3146,-1.3213,-1.3213,-1.3333,-1.3507,-1.3227,-1.312,0.0,0.0,0.0,0.0,0.0,0.0,0.0,0.0,0.0,0.0,0.0,-1.4503,0.0,0.0,-1.6188,-1.6734,-1.7196,-1.7442,-1.7536,-1.7593,-1.7582,-1.7582,-1.7582,-1.7582,-1.7582,-1.7859,-1.8016,-1.8016,-1.8279,-1.8265,-1.8016,-1.8541,-1.8855,-1.8855,-1.9532,-1.9946,-2.0101,-2.0909,-2.1573,-2.2131,-2.3188,-2.4035,-2.4726,-2.5235,-2.5479,-2.5499,-2.5645,-2.5605,-2.5391,-2.5156,-2.4687,-2.4062,-2.3633,-2.332,-2.3101,-2.3101,-2.3101,-2.3101,-2.3101,-2.3101,-2.3101,-2.3101,-2.3101,-2.3101,-2.3101,-2.3101,-2.3101,-2.3101,-2.3101,-2.3101,-2.3101,-2.3101,-2.3042,-2.2828,-2.2676,-2.2461,-2.2246,-2.168,-2.1271,-2.1271,-2.0879,-2.0489,-2.0159,-1.9716,-1.9085,-1.821,-1.7708,-1.7316,-1.7052,-1.6543,-1.6075,-1.5842,-1.5529,-1.5215,-1.4914,-1.457,-1.4169,-1.3738,-1.3365,-1.3128,-1.3012,-1.3293,-1.3494,-1.3641,-1.3935,-1.4082,-1.4082,-1.4082,-1.4162,-1.4295,-1.4162,-1.3935,0.0,0.0,0.0,0.0,0.0,0.0,0.0,0.0,-1.3965,-1.3965,-1.4503,-1.5168,-1.5652,-1.604,-1.6491,-1.7036,-1.7354,-1.7509,-1.7527,-1.7502,-1.7527,-1.7526,-1.7568,-1.7582,-1.7582,-1.7911,-1.8069,-1.8069,-1.837,-1.8489,-1.8174,-1.8436,-1.8527,-1.8422,-1.9011,-1.9376,-1.9635,-2.0462,-2.1267,-2.203,-2.292,-2.3773,-2.4461,-2.5055,-2.5301,-2.5252,-2.5518,-2.5645,-2.5654,-2.5254,-2.4863,-2.4492,-2.4082,-2.3691,-2.3315,-2.3159,-2.3101,-2.3101,-2.3101,-2.3101,-2.3101,-2.3101,-2.3101,-2.3101,-2.3101,-2.3101,-2.3101,-2.3101,-2.3101,-2.3101,-2.3101,-2.3101,-2.3101,-2.3101,-2.2847,-2.2637,-2.2637,-2.2305,-2.2012,-2.2012,-2.1934,-2.1777,-2.1385,-2.1186,-2.058,-1.909,-1.877,-1.8545,-1.8037,-1.7792,-1.744,-1.7046,-1.6891,-1.6637,-1.6274,-1.5518,-1.4928,-1.4543,-1.4221,-1.3939,-1.379,-1.4127,-1.4341,-1.4341,-1.4767,-1.5008,-1.5008,-1.5008,-1.5008,-1.5008,-1.5008,-1.4754,-1.275,-1.2375,-1.2315,-1.2647,-1.3092,-1.352,0.0,0.0,-1.4851,-1.4851,-1.5523,-1.6142,-1.6209,-1.6679,-1.7082,-1.719,-1.7393,-1.7514,-1.7286,-1.7246,-1.7203,-1.715,-1.743,-1.7582,-1.7582,-1.8055,-1.837,-1.837,-1.8907,-1.9063,-1.8817,-1.9078,-1.8959,-1.8422,-1.9011,-1.9324,-1.9324,-2.0359,-2.1165,-2.1776,-2.302,-2.3867,-2.4329,-2.512,-2.5371,-2.5151,-2.529,-2.5479,-2.5654,-2.5254,-2.5086,-2.4988,-2.4512,-2.4316,-2.4134,-2.3374,-2.3101,-2.3101,-2.3101,-2.3101,-2.3101,-2.3101,-2.3101,-2.3101,-2.3101,-2.3101,-2.3101,-2.3101,-2.3101,-2.3101,-2.3101,-2.3101,-2.3101,-2.3101,-2.3062,-2.3023,-2.3023,-2.2734,-2.2441,-2.2441,-2.2148,-2.1875,-2.1816,-2.1816,-2.1423,-2.0255,-1.9731,-1.9457,-1.9379,-1.9025,-1.8806,-1.8722,-1.8864,-1.8828,-1.8557,-1.7669,-1.7051,-1.685,-1.6198,-1.5791,-1.5805,-1.5378,-1.5154,-1.5154,-1.5057,-1.5008,-1.5008,-1.5008,-1.5008,-1.5008,-1.5008,-1.4968,-1.3317,-1.2916,-1.2946,0.0,-1.3975,-1.4496,-1.4776,-1.5297,-1.5772,-1.5772,-1.6152,-1.658,-1.6804,-1.6898,-1.6941,0.0,-1.7101,-1.7034,-1.6914,-1.6887,-1.6948,-1.7091,-1.7231,-1.7449,-1.7781,-1.8053,-1.8292,-1.8632,-1.8907,-1.9026,-1.8921,-1.9026,-1.8803,-1.8174,-1.875,-1.9063,-1.8997,-2.0086,-2.0873,-2.1283,-2.2503,-2.3202,-2.3358,-2.4566,-2.5317,-2.5578,-2.5358,-2.543,-2.5674,-2.5527,-2.5449,-2.541,-2.4961,-2.4805,-2.4727,-2.4102,-2.3842,-2.3803,-2.3594,-2.3516,-2.3477,-2.3179,-2.3257,-2.3516,-2.3516,-2.3691,-2.3842,-2.3842,-2.3842,-2.3783,-2.3574,-2.3516,-2.3457,-2.3159,-2.3101,-2.3101,-2.3101,-2.2964,-2.2828,-2.2828,-2.2691,-2.2539,-2.2285,-2.2246,-2.2009,-2.1304,-2.1065,-2.0883,-2.0742,-2.058,-2.0376,-2.0149,-2.0071,-1.9901,-1.9529,-1.8887,-1.824,-1.7604,-1.6888,-1.636,-1.6094,-1.5788,-1.5581,-1.5581,-1.5516,-1.5471,-1.5471,-1.5471,-1.5471,-1.5471,-1.5471,-1.5471,-1.372,-1.3422,0.0,-1.4282,-1.483,-1.5297,-1.5671,-1.6086,-1.6393,-1.6393,-1.6553,-1.6767,-1.7032,-1.6847,-1.678,-1.7045,-1.6847,-1.6673,-1.6593,-1.658,-1.6626,-1.6807,-1.6911,-1.7196,-1.7868,-1.8023,-1.8329,-1.883,-1.902,-1.913,-1.913,-1.913,-1.8803,-1.8122,-1.8712,-1.8959,-1.8826,-1.9879,-2.056,-2.0913,-2.2051,-2.2595,-2.2725,-2.4053,-2.5127,-2.5951,-2.5416,-2.5382,-2.5693,-2.5693,-2.5693,-2.5654,-2.5371,-2.5254,-2.5215,-2.4902,-2.4629,-2.4375,-2.4062,-2.3965,-2.3906,-2.3549,-2.3711,-2.3965,-2.3965,-2.418,-2.4414,-2.4414,-2.4414,-2.4355,-2.4043,-2.3965,-2.3887,-2.353,-2.3452,-2.3452,-2.3452,-2.3452,-2.3452,-2.3452,-2.3354,-2.3223,-2.291,-2.2773,-2.2578,-2.2285,-2.2227,-2.2107,-2.1668,-2.1588,-2.1563,-2.1362,-2.1151,-2.0935,-2.0619,-2.0103,-1.9496,-1.871,-1.8005,-1.7383,-1.6982,-1.6553,-1.6267,-1.6142,-1.6007,-1.5879,-1.5784,-1.5784,-1.5784,-1.5784,-1.5784,-1.5784,0.0,0.0,-1.4269,-1.5137,-1.5578,-1.5952,-1.654,-1.6673,-1.6687,-1.6687,-1.67,-1.6714,-1.6714,-1.6714,-1.6714,-1.6714,-1.6714,-1.6607,-1.6326,-1.6286,-1.6265,-1.6146,-1.6434,-1.6899,0.0,-1.8099,-1.8498,-1.8803,-1.9339,-1.9672,-1.9672,-1.9672,-1.9257,-1.8422,-1.8959,-1.9116,-1.8826,-1.9657,-2.041,-2.1028,-2.18,-2.2437,-2.2928,-2.3676,-2.477,-2.6064,-2.5251,-2.5235,-2.5693,-2.5693,-2.5693,-2.5693,-2.5674,-2.5674,-2.5674,-2.5654,-2.5156,-2.4414,-2.4394,-2.4394,-2.4394,-2.4375,-2.4394,-2.4394,-2.4394,-2.4414,-2.4414,-2.4414,-2.4414,-2.4414,-2.4394,-2.4394,-2.4394,-2.4375,-2.4375,-2.4375,-2.4375,-2.4375,-2.4375,-2.4375,-2.4043,-2.3769,-2.375,-2.3398,-2.3081,-2.3062,-2.3062,-2.2769,-2.1992,-2.1875,-2.2031,-2.2399,-2.2287,-2.2184,-2.2322,-2.1721,-2.123,-2.0917,-2.0014,-1.9376,-1.9117,-1.8133,-1.7404,-1.6965,-1.6461,-1.6082,-1.5784,-1.5784,-1.5784,-1.5784,-1.5784,-1.5784,-1.4338,0.0,-1.5124,-1.5805,-1.6388,-1.67,-1.67,-1.686,-1.6938,-1.65,-1.6259,-1.6059,-1.5872,-1.5685,-1.5551,-1.5551,-1.5712,-1.5805,-1.5712,-1.5858,-1.6007,-1.6135,-1.625,0.0,0.0,0.0,0.0,-1.9517,-1.9436,-1.955,-1.9916,-1.9635,-1.9116,-1.8422,-1.8579,-1.8678,-1.8571,-1.942,-1.9968,-2.02,-2.1534,-2.2863,-2.4187,-2.4206,-2.4927,-2.605,-2.5755,-2.5806,-2.6191,-2.6465,-2.6582,-2.6562,-2.6269,-2.6172,-2.6172,-2.6172,-2.5977,-2.5644,-2.5059,-2.4844,-2.4805,-2.4512,-2.4805,-2.5187,-2.4941,-2.5254,-2.5664,-2.5371,-2.5245,-2.5215,-2.4922,-2.4844,-2.4785,-2.4492,-2.4414,-2.4414,-2.4414,-2.4414,-2.4414,-2.4414,-2.4297,-2.4121,-2.3828,-2.3672,-2.3477,-2.314,-2.3101,-2.2984,-2.2711,-2.2715,-2.2773,-2.2867,-2.2713,-2.2553,-2.2422,-2.1776,-2.115,-2.0564,-1.9774,-1.9042,-1.8504,-1.7792,-1.7185,-1.673,-1.6366,-1.6069,-1.5784,-1.5784,-1.5784,-1.5784,-1.5784,-1.5784,-1.4936,-1.5394,-1.5845,-1.6496,-1.6844,-1.7018,-1.6887,-1.6687,-1.6442,-1.596,-1.5404,-1.4918,-1.4669,-1.4549,-1.4522,-1.4673,-1.4977,-1.5284,-1.5378,-1.5645,-1.5839,-1.598,-1.6109,-1.6461,0.0,0.0,0.0,-1.9716,-1.9779,-1.9918,-2.0239,-1.9852,-1.9281,-1.8598,-1.8812,-1.8856,-1.8849,-1.9646,-2.0362,-2.0963,-2.2071,-2.3507,-2.5258,-2.4934,-2.5388,-2.6484,-2.627,-2.635,-2.6641,-2.6894,-2.7012,-2.6992,-2.6719,-2.6602,-2.6602,-2.6602,-2.6602,-2.6523,-2.5957,-2.5762,-2.5723,-2.543,-2.5723,-2.6133,-2.5859,-2.6172,-2.6543,-2.6269,-2.6142,-2.6133,-2.584,-2.5762,-2.5703,-2.541,-2.5352,-2.5352,-2.5352,-2.5234,-2.5117,-2.5117,-2.4863,-2.457,-2.4297,-2.4004,-2.3691,-2.3418,-2.3198,-2.3101,-2.3101,-2.3101,-2.3101,-2.3101,-2.2925,-2.2706,-2.2574,-2.1928,-2.1302,-2.0835,-2.0138,-1.9425,-1.8781,-1.8164,-1.7512,-1.6871,-1.6494,-1.6163,-1.5784,-1.5784,-1.5784,-1.5784,-1.5784,-1.5784,-1.5599,-1.6055,-1.6549,-1.7112,-1.6967,-1.6807,-1.7099,-1.6206,-1.5284,-1.5008,-1.4175,-1.3427,0.0,0.0,-1.3613,-1.3961,-1.4579,-1.5089,-1.5351,-1.5658,-1.5799,0.0,0.0,0.0,0.0,0.0,0.0,-1.9468,0.0,-2.0757,-2.0537,-2.0234,-1.974,-1.8906,-1.947,-1.9649,-1.9374,-2.0281,-2.1526,-2.3025,-2.3294,-2.4406,-2.6118,-2.5703,-2.6143,-2.7179,-2.6795,-2.6775,-2.7051,-2.707,-2.709,-2.707,-2.7051,-2.7051,-2.7051,-2.7051,-2.707,-2.709,-2.709,-2.7051,-2.7012,-2.7012,-2.7031,-2.7051,-2.7031,-2.7031,-2.7051,-2.7031,-2.7012,-2.7012,-2.7012,-2.7012,-2.7012,-2.7012,-2.7012,-2.7012,-2.7012,-2.6699,-2.6426,-2.6426,-2.5771,-2.5184,-2.5145,-2.4414,-2.3848,-2.3828,-2.3477,-2.314,-2.3101,-2.3101,-2.3101,-2.3101,-2.2925,-2.2794,-2.275,-2.2087,-2.1642,-2.1642,-2.1015,-2.0428,-1.9882,-1.915,-1.8319,-1.7279,-1.681,-1.6353,-1.5784,-1.5784,-1.5784,-1.5784,-1.5784,-1.5784,-1.6585,-1.7179,-1.7609,-1.7782,-1.7582,-1.7208,-1.6683,-1.5812,-1.487,-1.4135,-1.3093,-1.2305,0.0,0.0,0.0,-1.3038,-1.3961,0.0,-1.5324,-1.5832,0.0,-1.6402,0.0,-1.6733,-1.7127,-1.8304,0.0,0.0,-2.0251,-2.0674,-2.0872,-2.0254,-1.959,-1.8906,-1.903,-1.9195,-1.9416,-2.0696,-2.204,-2.3326,-2.3838,-2.4778,-2.6118,-2.6079,-2.6514,-2.7199,-2.7383,-2.7448,-2.7519,-2.7832,-2.7969,-2.793,-2.7617,-2.75,-2.75,-2.75,-2.7695,-2.7969,-2.7969,-2.7539,-2.7012,-2.7012,-2.7226,-2.7441,-2.7109,-2.7246,-2.7422,-2.7109,-2.7012,-2.7012,-2.7012,-2.7012,-2.7012,-2.7012,-2.7012,-2.7012,-2.7012,-2.6934,-2.6855,-2.6855,-2.6426,-2.5957,-2.5625,-2.5117,-2.4629,-2.4297,-2.416,-2.3822,-2.3179,-2.3101,-2.3101,-2.3101,-2.275,-2.2441,-2.2264,-2.1597,-2.1042,-2.0699,-2.0292,-1.9791,-1.9104,-1.8781,-1.8087,-1.712,-1.6777,-1.6353,-1.5784,-1.5784,-1.5784,-1.5784,-1.5784,-1.5784,-1.7341,-1.7876,-1.8196,-1.8022,-1.7622,-1.7007,-1.6246,-1.5035,-1.3816,-1.3013,-1.1917,0.0,-1.1102,0.0,0.0,0.0,0.0,0.0,-1.5297,-1.5899,-1.638,0.0,-1.67,0.0,-1.7255,-1.8297,-1.9165,0.0,-2.0476,-2.0917,-2.0838,-2.0262,-1.9724,-1.9147,-1.9372,-1.9836,-2.0586,-2.1442,-2.2441,-2.3624,-2.4128,-2.4962,-2.6118,-2.6424,-2.6956,-2.7487,-2.7824,-2.793,-2.7969,-2.8398,-2.8574,-2.8555,-2.8516,-2.855,-2.855,-2.855,-2.8706,-2.8848,-2.8848,-2.8535,-2.8066,-2.7695,-2.7734,-2.7891,-2.7656,-2.7871,-2.8164,-2.791,-2.7988,-2.8144,-2.8144,-2.7988,-2.7851,-2.7851,-2.7715,-2.7578,-2.7578,-2.7422,-2.7246,-2.7051,-2.6836,-2.6582,-2.6348,-2.5937,-2.5508,-2.5059,-2.4824,-2.4453,-2.3744,-2.3666,-2.3588,-2.326,-2.293,-2.2516,-2.1972,-2.1356,-2.0862,-2.0518,-2.0201,-1.9791,-1.9166,-1.8827,-1.8179,-1.7153,-1.6777,-1.6353,-1.5784,-1.5784,-1.5784,-1.5784,-1.5784,-1.5784,-1.7955,-1.8384,-1.8531,-1.8142,-1.7422,-1.658,-1.5872,-1.4148,-1.2543,-1.1913,0.0,-0.9977,-1.0047,-1.0501,-1.1169,-1.2037,0.0,-1.4295,-1.5217,-1.5885,-1.6393,-1.6727,-1.6794,-1.7029,-1.7555,-1.8144,-1.8826,-1.9633,-2.0734,-2.1133,-2.0581,-2.0273,-1.9947,-1.9475,-1.9996,-2.0845,-2.1945,-2.2059,-2.2667,-2.3809,-2.4144,-2.4923,-2.6081,-2.6663,-2.7314,-2.7906,-2.8174,-2.832,-2.8398,-2.8769,-2.8945,-2.9043,-2.9414,-2.9626,-2.9626,-2.9626,-2.9609,-2.9648,-2.9646,-2.9609,-2.9531,-2.873,-2.8457,-2.8457,-2.8457,-2.8711,-2.9004,-2.9004,-2.9277,-2.9626,-2.9626,-2.9297,-2.9004,-2.9004,-2.8691,-2.8379,-2.8379,-2.8047,-2.7637,-2.7266,-2.7187,-2.7168,-2.7109,-2.6797,-2.6406,-2.5927,-2.5527,-2.5145,-2.4727,-2.4485,-2.414,-2.3499,-2.3188,-2.2609,-2.1662,-2.1176,-2.0734,-2.0473,-2.0246,-1.9928,-1.9487,-1.892,-1.821,-1.7279,-1.6777,-1.6305,-1.5784,-1.5824,-1.5824,-1.5784,-1.5864,-1.5899,-1.8677,-1.8985,-1.9092,-1.8544,-1.7742,-1.6777,-1.5464,-1.3694,0.0,0.0,-1.0207,-0.9444,-0.9713,-1.0033,-1.0523,-1.1402,0.0,0.0,0.0,0.0,-1.6522,0.0,0.0,0.0,0.0,0.0,0.0,0.0,-1.9935,-2.0473,-2.0358,-2.0028,-1.9825,-1.9751,-2.0097,-2.0615,-2.1375,-2.1831,-2.2441,-2.3159,-2.372,-2.4612,-2.5789,-2.6318,-2.7079,-2.7906,-2.8174,0.0,-2.8809,-2.8887,-2.9141,-2.9473,-2.9607,-2.9626,-2.9626,-2.9626,-2.9785,-3.0039,-2.9744,-2.9805,-3.0,-2.9512,-2.9355,-2.9355,-2.9355,-2.9394,-2.9453,-2.9453,-2.9567,-2.9626,-2.9626,-2.9512,-2.9453,-2.9453,-2.9121,-2.8809,-2.8809,-2.8476,-2.8164,-2.8086,-2.8066,-2.7949,-2.7669,-2.7552,-2.7305,-2.6855,-2.6426,-2.6133,-2.6055,-2.4888,-2.3959,-2.3605,-2.3,-2.2182,-2.1032,-2.0551,-1.9923,-1.9166,-1.9104,-1.8966,-1.8689,-1.8164,-1.7606,-1.7073,-1.6555,-1.6116,-1.5784,-1.6072,-1.6072,-1.5798,-1.6326,-1.6299,-1.8798,-1.9025,-1.8998,-1.8397,-1.7341,-1.6112,-1.4847,0.0,0.0,0.0,-0.9726,-0.9071,-0.9377,0.0,0.0,0.0,0.0,0.0,0.0,0.0,0.0,0.0,0.0,0.0,0.0,0.0,-1.8481,-1.8685,-1.9217,-1.9715,-2.004,-1.9764,-1.9649,-1.9809,-1.9982,-2.0328,-2.0902,-2.1246,-2.1702,-2.2256,-2.2877,-2.3776,-2.5,-2.5863,-2.6808,-2.7711,-2.83,-2.873,-2.8945,-2.9394,-2.9707,-2.9922,-3.0156,-3.0254,-3.0254,-3.0254,-3.0391,-3.0527,-3.0332,-3.0391,-3.0527,-3.0332,-2.9941,-2.9626,-2.9626,-2.9726,-2.9902,-2.9902,-3.0078,-3.0254,-3.0254,-3.0078,-2.9902,-2.9902,-2.957,-2.9258,-2.9258,-2.9101,-2.8887,-2.8672,-2.8613,-2.8476,-2.8066,-2.7988,-2.7851,-2.7422,-2.7187,-2.6973,-2.6738,-2.5806,-2.4762,-2.388,-2.3187,-2.2309,-2.1023,-2.0395,-1.9743,-1.891,-1.8675,-1.8442,-1.8118,-1.7864,-1.7527,-1.7018,-1.6801,-1.6543,-1.6286,-1.6433,-1.6433,-1.6299,-1.658,-1.6553,-1.8664,-1.8824,-1.8704,-1.8156,-1.6914,-1.5498,-1.4202,-1.2385,0.0,0.0,-0.9325,-0.8871,-0.9084,0.0,-0.9833,0.0,0.0,0.0,0.0,0.0,0.0,0.0,0.0,0.0,0.0,0.0,0.0,-1.8464,-1.8824,-1.9233,-1.9693,-1.9533,-1.9475,-1.9707,-1.9751,-2.004,-2.0486,-2.0601,-2.0902,-2.1417,-2.2101,-2.3046,-2.4261,-2.5533,-2.6591,-2.746,-2.8459,-2.8965,-2.9121,-2.9883,-3.0254,-3.0391,-3.0742,-3.0898,-3.0898,-3.0898,-3.0898,-3.0898,-3.0898,-3.0898,-3.0898,-3.0898,-3.043,-2.9844,-2.9844,-3.0078,-3.0351,-3.0351,-3.0605,-3.0898,-3.0898,-3.0625,-3.0312,-3.0215,-2.9941,-2.9668,-2.9646,-2.9626,-2.9473,-2.9121,-2.8984,-2.8809,-2.8476,-2.8359,-2.8184,-2.7904,-2.7662,-2.7487,-2.7085,-2.6435,-2.5539,-2.4239,-2.3497,-2.2512,-2.0995,-2.036,-1.9622,-1.873,-1.8422,-1.8097,-1.7658,-1.7635,-1.744,-1.7051,-1.704,-1.6914,-1.67,-1.6767,-1.6767,-1.6714,-1.6834,-1.682,-1.8357,-1.8531,-1.845,-1.8103,-1.6914,-1.5378,-1.3681,0.0,0.0,-0.9524,-0.9018,-0.8818,-0.8844,-0.9058,0.0,0.0,0.0,-1.1423,0.0,0.0,0.0,0.0,0.0,0.0,0.0,0.0,0.0,-1.8464,-1.9011,-1.9403,-1.9417,-1.9417,-1.9417,-1.943,-1.9649,-1.9809,-1.9866,-2.0155,-2.05,-2.0773,-2.1702,-2.278,-2.3999,-2.5423,-2.6591,-2.746,-2.8459,-2.9141,0.0,-3.0,-3.0449,-3.084,-3.0879,-3.0898,-3.0898,-3.0898,-3.0898,-3.0898,-3.0898,-3.0898,-3.0898,-3.0898,-3.084,-3.0762,-3.0762,-3.0801,-3.082,-3.082,-3.0859,-3.0898,-3.0898,-3.0859,-3.0723,-3.0293,-3.0176,-3.0039,-2.9704,-2.9626,-2.9607,-2.9512,-2.9199,-2.8906,-2.8867,-2.8535,-2.8281,-2.8242,-2.768,-2.7251,-2.7213,-2.6139,-2.5255,-2.4835,-2.3754,-2.2384,-2.06,-1.9972,-1.9184,-1.8044,-1.7951,-1.7824,-1.7513,-1.7307,-1.7122,-1.7073,-1.685,-1.67,-1.67,-1.7032,-1.7018,-1.6714,-1.7248,-1.7221,-1.7422,-1.7862,-1.7822,-1.7341,-1.6126,-1.4585,-1.3026,0.0,-1.0234,-0.9377,-0.8978,-0.8804,-0.8804,-0.8871,-0.9044,0.0,0.0,0.0,0.0,0.0,0.0,0.0,0.0,0.0,0.0,0.0,-1.7969,-1.845,-1.9038,-1.943,-1.943,-1.943,-1.943,-1.943,-1.9475,-1.9649,-1.9809,-1.9924,-2.0328,-2.1031,-2.1774,-2.2837,-2.415,-2.5331,-2.6464,-2.7564,-2.8569,-2.929,0.0,-3.0372,-3.0723,-3.0898,-3.0898,-3.0898,-3.0898,-3.0898,-3.0898,-3.0898,-3.0898,-3.0898,-3.0898,-3.0898,-3.0898,-3.0898,-3.0898,-3.0898,-3.0898,-3.0898,-3.0898,-3.0898,-3.0898,-3.0898,-3.084,-3.0664,-3.0605,-3.0566,-3.041,-3.0371,-3.0273,-3.0,-2.9805,-2.9531,-2.9004,-2.8626,-2.8323,-2.8106,-2.7485,-2.7069,-2.7069,-2.633,-2.5612,-2.5094,-2.3722,-2.2361,-2.1139,-2.0132,-1.9149,-1.8059,-1.776,-1.7463,-1.705,-1.714,-1.7184,-1.7184,-1.7192,-1.7235,-1.7235,-1.7407,-1.7355,-1.7235,-1.7475,-1.7462,-1.6228,-1.6764,-1.6834,-1.642,-1.5284,-1.3826,0.0,0.0,-0.9897,-0.9217,-0.8924,-0.8804,-0.8804,-0.8804,-0.8845,-0.9044,0.0,-1.0261,0.0,0.0,0.0,0.0,0.0,-1.6549,0.0,-1.7582,-1.8023,-1.8464,-1.9038,-1.943,-1.943,-1.943,-1.943,-1.943,-1.943,-1.9533,-1.9809,-1.9809,-2.0284,-2.1218,-2.1831,-2.278,-2.4055,-2.5055,-2.6224,-2.7419,-2.8501,-2.9316,0.0,-3.0587,-3.0898,-3.0898,-3.0898,-3.0898,-3.0898,-3.0898,-3.0898,-3.0898,-3.0898,-3.0898,-3.0898,-3.0898,-3.0898,-3.0898,-3.0898,-3.0898,-3.0898,-3.0898,-3.0898,-3.0898,-3.0898,-3.0898,-3.0898,-3.0898,-3.0898,-3.0898,-3.0898,-3.0898,-3.0801,-3.0469,-3.0293,-3.0,-2.9394,-2.8923,-2.8528,-2.8148,-2.736,-2.6774,-2.6665,-2.5842,-2.5116,-2.4674,-2.3322,-2.2234,-2.1698,-2.0576,-1.9472,-1.8485,-1.8035,-1.7561,-1.7101,-1.7221,-1.7326,-1.7326,-1.7475,-1.7582,-1.7582,-1.7582,-1.7582,-1.7582,-1.7582,-1.7582,-1.4713,-1.5204,-1.5418,-1.5418,-1.4479,-1.3227,0.0,0.0,-0.9844,-0.8991,-0.8804,-0.8804,-0.8804,-0.8804,-0.8804,-0.8804,-0.9299,0.0,-1.0519,0.0,0.0,0.0,0.0,-1.6549,-1.7139,-1.7956,-1.8477,-1.849,-1.9038,0.0,-1.943,-1.943,-1.943,-1.943,-1.943,-1.9533,-1.9809,-1.9809,-2.0284,-2.1218,-2.1831,-2.2554,-2.3456,-2.4667,-2.5763,-2.6787,-2.8146,-2.9145,0.0,-3.0587,-3.0898,-3.0898,-3.0898,-3.0898,-3.0898,-3.0898,-3.0898,-3.0898,-3.0898,-3.0898,-3.0898,-3.0898,-3.0898,-3.0898,-3.0898,-3.0898,-3.0898,-3.0898,-3.0898,-3.0898,-3.0898,-3.0898,-3.0898,-3.0898,-3.0898,-3.0898,-3.0898,-3.0898,-3.0898,-3.0879,-3.0508,-3.0195,-3.0176,-2.9561,-2.8991,-2.8634,-2.7267,-2.619,-2.5835,-2.4423,-2.3424,-2.3424,-2.2561,-2.1994,-2.1989,-2.1132,-2.0263,-1.9442,-1.8836,-1.8347,-1.7982,-1.7742,-1.7582,-1.7582,-1.7582,-1.7582,-1.7582,-1.7582,-1.7582,-1.7582,-1.7582,-1.7582,-1.3226,-1.3814,-1.4106,-1.3948,-1.316,-1.2144,-1.1109,0.0,-0.9351,-0.8911,-0.8804,-0.8804,-0.8804,-0.8804,-0.8871,-0.9044,-0.9432,0.0,0.0,0.0,0.0,0.0,0.0,-1.6794,0.0,0.0,-1.8129,-1.8129,-1.8544,-1.8851,-1.9052,-1.9065,-1.9158,-1.9417,-1.943,-1.9649,-2.0155,-2.0155,-2.063,-2.1561,-2.1945,-2.2441,-2.3159,-2.3944,-2.5008,-2.6311,-2.7521,-2.8535,-2.9322,-3.0217,-3.0392,-3.0235,-3.045,-3.0567,-3.0587,-3.082,-3.0898,-3.0898,-3.0898,-3.0898,-3.0898,-3.0898,-3.0898,-3.0898,-3.0898,-3.0898,-3.0898,-3.0898,-3.0898,-3.0898,-3.0898,-3.0898,-3.0898,-3.0898,-3.0898,-3.0898,-3.0898,-3.0898,-3.082,-3.0567,-3.0451,-3.0142,-2.97,-2.903,-2.8383,-2.7744,-2.6553,-2.5564,-2.5201,-2.4407,-2.3725,-2.3502,-2.2975,-2.2338,-2.149,-2.0739,-1.9964,-1.914,-1.8879,-1.8618,-1.8343,-1.8063,-1.7849,-1.7849,-1.7689,-1.7689,-1.7849,-1.7849,-1.8009,-1.821,-1.821,-1.821,0.0,-1.2278,-1.2561,-1.2412,-1.1913,0.0,0.0,0.0,-0.9124,-0.8871,-0.8804,-0.8804,-0.8804,-0.8871,-0.9004,-0.9178,-0.9673,-1.0318,0.0,0.0,0.0,0.0,0.0,0.0,0.0,-1.7862,-1.7995,-1.7995,-1.833,-1.8624,-1.8905,-1.8918,-1.9065,-1.9417,-1.943,-1.9649,-2.0097,-2.0213,-2.0687,-2.1489,-2.1831,-2.2101,-2.2482,-2.3103,-2.417,-2.556,-2.6756,-2.7857,0.0,-2.9667,-2.9863,-2.9568,-2.9903,-3.0098,-3.0274,-3.0587,-3.0762,-3.0898,-3.0898,-3.0898,-3.0898,-3.0898,-3.0898,-3.0898,-3.0898,-3.0898,-3.0898,-3.0898,-3.0898,-3.0898,-3.0898,-3.0898,-3.0898,-3.0898,-3.0898,-3.0898,-3.0898,-3.082,-3.0645,-3.0274,-3.0079,-2.9827,-2.9114,-2.8608,-2.793,-2.7076,-2.5923,-2.4897,-2.4289,-2.3585,-2.3016,-2.2701,-2.233,-2.1801,-2.0944,-2.0554,-2.0032,-1.9318,-1.904,-1.8818,-1.8651,-1.837,-1.821,-1.821,-1.8023,-1.8023,-1.821,-1.821,-1.8303,-1.849,-1.849,-1.849,0.0,-1.0693,0.0,0.0,0.0,0.0,0.0,0.0,0.0,-0.8858,-0.8804,-0.8804,-0.8804,-0.9018,-0.9217,-0.9244,-0.9993,-1.0801,0.0,-1.2545,0.0,0.0,-1.6844,0.0,-1.7555,-1.7849,-1.7955,-1.7955,-1.8263,-1.8557,-1.8851,-1.8878,-1.9025,-1.9332,-1.9417,-1.9533,-1.9809,-2.0155,-2.0558,-2.1146,-2.1489,-2.1603,-2.1531,-2.223,-2.3273,0.0,-2.5891,-2.7158,-2.8421,-2.9016,-2.9076,-2.8856,-2.9135,-2.949,-2.9863,-3.0216,-3.0567,-3.0879,-3.0898,-3.0898,-3.0898,-3.0898,-3.0898,-3.0898,-3.0898,-3.0898,-3.0898,-3.0898,-3.0898,-3.0898,-3.0898,-3.0898,-3.0898,-3.0898,-3.0898,-3.0898,-3.0898,-3.0645,-3.0274,-2.9922,-2.9549,-2.9116,-2.848,-2.8062,-2.7521,-2.652,-2.5347,-2.4188,-2.3216,-2.2343,-2.1612,-2.1282,-2.097,-2.067,-2.036,-2.051,-2.0385,-1.9809,-1.9277,-1.8958,-1.8958,-1.8677,-1.8517,-1.8517,-1.8517,-1.8517,-1.8517,-1.8544,-1.8557,-1.8557,-1.8557,-1.8557,-0.9165,0.0,-1.0023,-1.0023,-0.9766,0.0,0.0,0.0,0.0,0.0,0.0,0.0,0.0,-0.9018,-0.9284,-0.9539,-1.0157,-1.0881,-1.165,0.0,0.0,-1.6187,-1.6844,-1.7313,-1.7555,-1.7649,-1.7689,-1.7689,-1.7756,-1.7929,-1.8182,-1.8464,-1.8731,-1.9025,-1.9252,-1.9533,-1.9809,-2.0155,-2.05,-2.0845,-2.1146,-2.1146,-2.0945,-2.1603,-2.2482,-2.3626,-2.5094,-2.6219,-2.7116,-2.7702,-2.7762,-2.7478,-2.7822,-2.8301,-2.8897,-2.9745,-3.0216,-3.0567,-3.082,-3.0898,-3.0898,-3.0898,-3.0898,-3.0898,-3.0898,-3.0898,-3.0898,-3.0898,-3.0898,-3.0898,-3.0898,-3.0898,-3.0898,-3.0898,-3.0898,-3.0898,-3.0898,-3.0645,-3.0157,-2.939,-2.8719,-2.8044,-2.7159,-2.6554,-2.5989,-2.5501,-2.4763,-2.3932,-2.3175,-2.2682,-2.2167,-2.1558,-2.1413,-2.1152,-2.0629,-2.0241,-1.9866,-1.9533,-1.9363,-1.9265,-1.9265,-1.8985,-1.8824,-1.8824,-1.8824,-1.8824,-1.8824,-1.9052,-1.9158,-1.9158,-1.9158,-1.9158,-0.8938,-0.9217,-0.9486,-0.9486,-0.9324,-0.9217,0.0,0.0,0.0,0.0,0.0,0.0,0.0,0.0,0.0,-1.009,-1.0841,0.0,0.0,0.0,0.0,-1.6643,-1.7125,-1.746,0.0,-1.7582,-1.7582,-1.7582,-1.7582,-1.7716,-1.7969,-1.8142,-1.8477,-1.8905,-1.9078,-1.9283,-1.9591,-2.004,-2.0385,-2.05,-2.0974,-2.0974,-2.0558,-2.1017,-2.1772,-2.2811,-2.3964,-2.5033,-2.5961,-2.625,-2.6311,-2.6144,-2.6493,-2.7082,-2.7924,-2.8719,-2.9431,-2.9962,-3.0157,-3.0216,-3.0216,-3.0216,-3.0216,-3.0216,-3.0216,-3.0333,-3.0528,-3.082,-3.0762,-3.0704,-3.0704,-3.045,-3.0216,-3.0411,-3.0333,-3.0274,-3.0411,-2.9981,-2.9313,-2.848,-2.7564,-2.6598,-2.5578,-2.5026,-2.4533,-2.4023,-2.3666,-2.3168,-2.248,-2.223,-2.1923,-2.1444,-2.1245,-2.1033,-2.0747,-2.0253,-1.9883,-1.9573,-1.9559,-1.9506,-1.943,-1.9212,-1.9132,-1.9132,-1.9132,-1.9132,-1.9132,-1.9292,-1.943,-1.943,-1.943,-1.943,-0.9138,-0.9244,-0.9284,-0.9284,-0.9284,-0.9271,0.0,0.0,0.0,0.0,0.0,0.0,0.0,0.0,0.0,0.0,0.0,0.0,-1.4834,-1.5799,-1.6536,-1.7125,-1.746,0.0,-1.7582,-1.7582,-1.7582,-1.7582,-1.7582,-1.7702,-1.7902,-1.7969,-1.8222,-1.8771,-1.8838,-1.8998,-1.9292,-1.991,-2.0213,-2.0213,-2.0802,-2.0744,-2.0213,-2.0486,-2.119,-2.214,-2.284,0.0,-2.4919,-2.4903,-2.4841,-2.4919,-2.521,-2.5867,-2.6719,-2.7521,-2.8301,-2.9057,-2.9176,-2.9176,-2.9176,-2.9176,-2.9176,-2.9176,-2.9176,-2.9372,-2.9745,-3.0274,-3.0333,-3.0216,-3.0138,-2.9667,-2.9313,-2.9549,-2.9372,-2.9253,-2.9549,-2.8897,-2.8062,-2.7401,-2.6233,-2.5071,-2.41,-2.3604,-2.3168,-2.2606,-2.2543,-2.2292,-2.1677,-2.1614,-2.1488,-2.1109,-2.0895,-2.0735,-2.0735,-2.0508,-2.0241,-1.9947,-1.9893,-1.9733,-1.9452,-1.9399,-1.943,-1.943,-1.943,-1.943,-1.943,-1.943,-1.943,-1.943,-1.943,-1.943,-0.9138,-0.9391,-0.9619,-0.9619,-0.9619,-0.9552,0.0,0.0,0.0,0.0,0.0,0.0,0.0,-1.0501,-1.1009,0.0,0.0,-1.384,0.0,0.0,-1.6536,-1.7125,0.0,-1.7582,-1.7582,-1.7582,-1.7582,-1.7582,-1.7582,-1.7609,-1.7649,-1.7903,-1.8035,-1.8129,-1.8424,-1.8691,-1.8985,-1.9571,-1.9866,-1.9866,-2.027,-2.0213,-1.9866,-2.0213,-2.0899,-2.1781,0.0,-2.3369,-2.4239,-2.3976,-2.3852,-2.3852,-2.3914,-2.4332,-2.5117,-2.6277,-2.7004,-2.7444,-2.8044,-2.8224,-2.8224,-2.8224,-2.8224,-2.8224,-2.8224,-2.8224,-2.8283,-2.8403,-2.8998,-2.9431,-2.8897,-2.8719,-2.86,-2.8343,-2.8224,-2.8224,-2.8283,-2.7744,-2.7021,-2.6432,-2.5256,-2.4085,-2.3355,-2.2731,-2.2292,-2.2167,-2.2167,-2.2055,-2.1677,-2.1614,-2.1488,-2.1109,-2.1069,-2.1042,-2.1042,-2.1002,-2.0855,-2.0561,-2.0307,-2.004,-1.9746,-1.9492,-1.943,-1.943,-1.943,-1.943,-1.943,-1.943,-1.943,-1.943,-1.943,-1.943,-0.9138,-0.9459,-0.9755,-0.9873,-0.9913,-0.9886,0.0,0.0,0.0,0.0,0.0,0.0,0.0,0.0,-1.1957,-1.2732,0.0,-1.4883,-1.5752,-1.6429,-1.6951,0.0,0.0,-1.7582,-1.7582,-1.7582,-1.7582,-1.7582,-1.7582,-1.7582,-1.7582,-1.7716,-1.7876,-1.7995,-1.8129,-1.8397,-1.8691,-1.9085,-1.9486,-1.9809,-2.0155,-2.0097,-1.9809,-1.9982,-2.043,-2.1194,0.0,-2.2155,-2.2981,-2.2668,-2.2606,-2.2793,-2.2793,-2.323,-2.3961,-2.524,-2.5851,-2.605,-2.6719,-2.6719,-2.6399,-2.6399,-2.6399,-2.6449,-2.665,-2.681,-2.6952,-2.6772,-2.7358,-2.8044,-2.7744,-2.7203,-2.6719,-2.69,-2.6719,-2.6537,-2.69,-2.6294,-2.5546,-2.5133,-2.3961,-2.2841,-2.2355,-2.1866,-2.1551,-2.1551,-2.1551,-2.1488,-2.1362,-2.1362,-2.1299,-2.1109,-2.1109,-2.1109,-2.1109,-2.1109,-2.0989,-2.0695,-2.0401,-2.0107,-1.9813,-1.9666,-1.9533,-1.943,-1.943,-1.943,-1.943,-1.943,-1.943,-1.943,-1.943,-1.9511,-0.9138,-0.9459,-0.9753,-1.0047,0.0,0.0,0.0,0.0,0.0,0.0,0.0,0.0,0.0,-1.2131,0.0,-1.4122,-1.4977,-1.5698,-1.6286,-1.6871,-1.7313,-1.7542,-1.7582,-1.7582,-1.7582,-1.7515,-1.7527,-1.7527,-1.7527,-1.7527,-1.7527,-1.7542,-1.7689,-1.7876,-1.7889,-1.8076,-1.8384,-1.8611,-1.9004,-1.9598,-1.9954,-1.9938,-1.9707,-1.9707,-2.0051,-2.0616,-2.0684,-2.1196,-2.2006,-2.1699,-2.174,-2.1978,-2.1978,-2.2418,-2.3106,-2.4147,-2.4579,-2.4702,-2.521,-2.5087,-2.4641,-2.4641,-2.4703,-2.4812,-2.5078,-2.5344,-2.5576,-2.5266,-2.5704,-2.6187,-2.6205,-2.5501,-2.4826,-2.5272,-2.501,-2.4764,-2.5272,-2.4702,-2.4085,-2.3837,-2.2779,-2.1915,-2.1677,-2.1299,-2.1109,-2.1109,-2.1109,-2.1109,-2.1109,-2.1109,-2.1109,-2.1109,-2.1109,-2.1109,-2.1109,-2.1109,-2.1015,-2.0788,-2.0494,-2.0241,-2.0013,-1.9933,-1.976,-1.9479,-1.9466,-1.9439,-1.943,-1.9439,-1.9466,-1.9466,-1.9533,-1.9693,-0.9138,-0.9459,-0.9753,-1.0047,-1.0528,0.0,-1.0626,-1.0942,0.0,-1.1295,0.0,0.0,0.0,-1.34,-1.4162,-1.4847,-1.5404,-1.5957,-1.6593,0.0,-1.7313,-1.7542,-1.7582,-1.7582,-1.7582,-1.7393,-1.7233,-1.7233,-1.7233,-1.7233,-1.7233,-1.7435,-1.7595,-1.7609,-1.7609,-1.7769,-1.8022,-1.8049,-1.8397,-1.8958,-1.9296,-1.943,-1.943,-1.943,-1.9766,-2.0315,-2.0588,-2.1072,-2.1712,-2.1617,-2.1601,-2.1614,-2.1614,-2.2041,-2.2668,-2.2731,-2.2981,-2.323,-2.3293,-2.3293,-2.323,-2.323,-2.3436,-2.3686,-2.3716,-2.3907,-2.4128,-2.4092,-2.3948,-2.3787,-2.3831,-2.379,-2.3666,-2.3355,-2.3293,-2.323,-2.3293,-2.2981,-2.2731,-2.2731,-2.2104,-2.1614,-2.1614,-2.1299,-2.1109,-2.1109,-2.1109,-2.1109,-2.1109,-2.1109,-2.1109,-2.1109,-2.1109,-2.1109,-2.1109,-2.1109,-2.1096,-2.1082,-2.0802,-2.0641,-2.0615,-2.0347,-2.0067,-1.9773,-1.9773,-1.9639,-1.943,-1.9639,-1.9773,-1.9773,-2.004,-2.0127,-0.8911,-0.9325,-0.9742,-0.982,-1.0568,0.0,0.0,-1.169,-1.2342,-1.2492,-1.2734,0.0,0.0,0.0,-1.4496,-1.4941,-1.5605,-1.6179,-1.6406,-1.6687,-1.6914,-1.7021,-1.7034,-1.7034,-1.7034,-1.6941,-1.6874,-1.6874,-1.6874,-1.7005,-1.7192,-1.73,-1.7447,-1.7569,-1.7582,-1.7635,-1.7756,-1.7902,-1.8211,-1.8659,-1.9147,-1.9472,-1.9649,-1.988,-2.0103,-2.0333,-2.0383,-2.0711,-2.1053,-2.1037,-2.1137,-2.1299,-2.1299,-2.1425,-2.1664,-2.1915,-2.2041,-2.2167,-2.2418,-2.2355,-2.2209,-2.2405,-2.2546,-2.2714,-2.3093,-2.3281,-2.3397,-2.3398,-2.3116,-2.2972,-2.3443,-2.3257,-2.2935,-2.3,-2.273,-2.2525,-2.2716,-2.237,-2.1978,-2.1978,-2.1614,-2.1299,-2.1299,-2.1172,-2.1109,-2.1109,-2.1109,-2.1109,-2.1109,-2.1109,-2.1109,-2.1109,-2.1109,-2.1109,-2.1109,-2.1109,-2.1109,-2.1109,-2.1002,-2.0869,-2.0681,-2.0575,-2.0374,-2.0067,-2.0067,-2.0013,-1.9907,-2.0013,-2.0067,-2.0067,-2.0127,-2.0334,-0.8804,-0.9232,-0.9729,-0.9793,0.0,0.0,-1.1797,-1.2452,-1.312,-1.3427,-1.3788,0.0,0.0,0.0,0.0,0.0,-1.5812,-1.6321,-1.6321,-1.6526,-1.67,-1.67,-1.67,-1.67,-1.67,-1.662,-1.6567,-1.6567,-1.6567,-1.666,-1.6911,-1.7099,-1.7246,-1.7301,-1.7395,-1.7448,-1.7448,-1.7662,-1.8023,-1.8536,-1.9098,-1.957,-1.9945,-2.0187,-2.0298,-2.0299,-2.0292,-2.0381,-2.0548,-2.0641,-2.0842,-2.1109,-2.1109,-2.1109,-2.1109,-2.1362,-2.1425,-2.1488,-2.1677,-2.1614,-2.1452,-2.1733,-2.1923,-2.2155,-2.2563,-2.2804,-2.2965,-2.297,-2.2821,-2.2724,-2.3189,-2.2852,-2.2372,-2.2635,-2.2353,-2.2138,-2.2332,-2.2038,-2.1696,-2.1696,-2.1504,-2.139,-2.139,-2.139,-2.139,-2.139,-2.139,-2.1349,-2.1256,-2.1256,-2.1216,-2.1122,-2.1109,-2.1109,-2.1109,-2.1109,-2.1109,-2.1109,-2.1109,-2.1015,-2.0815,-2.0815,-2.0668,-2.0374,-2.0374,-2.0321,-2.0167,-2.0321,-2.0374,-2.0374,-2.0468,-2.0615,-0.8804,-0.9232,-0.9753,0.0,0.0,0.0,-1.265,-1.3213,-1.3693,-1.4041,0.0,-1.5008,-1.5008,0.0,0.0,-1.5391,-1.5885,-1.6321,-1.6321,-1.6513,-1.67,-1.67,-1.67,-1.67,-1.67,-1.6433,-1.6321,-1.6321,-1.6321,-1.6321,-1.6321,-1.6871,-1.7058,-1.6714,-1.7045,-1.7192,-1.7192,-1.7206,-1.7657,-1.8522,-1.9031,-1.9628,-2.0187,-2.0216,-2.0217,-2.0284,-2.0313,-2.0259,-2.0254,-2.0561,-2.0855,-2.1109,-2.1109,-2.1109,-2.1109,-2.1109,-2.1109,-2.1109,-2.1109,-2.1109,-2.1109,-2.1109,-2.151,-2.1991,-2.1991,-2.2392,-2.2928,-2.2928,-2.2928,-2.2928,-2.2928,-2.2432,-2.1991,-2.1991,-2.1991,-2.1991,-2.1991,-2.1991,-2.1991,-2.1991,-2.1991,-2.1991,-2.1991,-2.1991,-2.1991,-2.1991,-2.1991,-2.1884,-2.1655,-2.1614,-2.1443,-2.1149,-2.1109,-2.1109,-2.1109,-2.1109,-2.1109,-2.1109,-2.1109,-2.1109,-2.1109,-2.1109,-2.0975,-2.0681,-2.0681,-2.0535,-2.0241,-2.0535,-2.0681,-2.0681,-2.0975,-2.1109,-0.8804,-0.9232,0.0,-1.0047,0.0,0.0,0.0,-1.3694,0.0,0.0,-1.515,-1.5204,-1.5048,0.0,0.0,-1.5391,-1.5712,-1.5965,-1.5965,-1.6032,-1.6086,-1.6086,-1.6086,-1.6086,-1.6086,-1.6005,-1.5965,-1.5965,-1.5965,-1.6046,-1.6308,-1.6482,-1.658,-1.67,-1.6794,-1.6834,-1.6834,-1.7099,-1.7493,-1.8151,-1.8712,-1.9535,-2.0552,-2.0762,-2.0712,-2.0558,-2.0368,-2.0233,-2.0207,-2.0775,-2.1029,-2.1109,-2.1109,-2.1109,-2.1109,-2.1109,-2.1109,-2.1109,-2.1109,-2.1109,-2.1149,-2.1349,-2.1683,-2.2031,-2.2231,-2.2552,-2.2928,-2.2928,-2.2928,-2.2928,-2.2928,-2.2807,-2.2605,-2.2605,-2.2445,-2.2285,-2.2285,-2.2124,-2.1991,-2.1991,-2.1991,-2.1991,-2.1991,-2.1991,-2.1991,-2.1991,-2.1991,-2.1884,-2.1655,-2.1614,-2.1443,-2.1149,-2.1109,-2.1109,-2.1109,-2.1109,-2.1109,-2.1109,-2.1109,-2.1109,-2.1109,-2.1109,-2.1069,-2.0989,-2.0975,-2.0935,-2.0855,-2.0935,-2.0975,-2.0989,-2.1069,-2.1109,-0.8924,-0.9406,0.0,-1.0501,-1.1436,-1.2556,-1.3654,0.0,0.0,0.0,0.0,-1.5511,-1.5337,-1.5444,0.0,-1.5565,-1.5712,-1.5784,-1.5784,-1.5784,-1.5784,-1.5784,-1.5784,-1.5784,-1.5784,-1.5784,-1.5784,-1.5784,-1.5784,-1.5912,-1.6086,-1.6206,-1.6299,-1.6353,-1.6473,-1.6526,-1.6526,-1.6764,-1.7167,-1.7872,-1.8259,-1.9084,-2.023,-2.0678,-2.0747,-2.0487,-2.0364,-2.0264,-2.0281,-2.0869,-2.1109,-2.1109,-2.1109,-2.1109,-2.1109,-2.1109,-2.1109,-2.1109,-2.1109,-2.1109,-2.1136,-2.1323,-2.1657,-2.2017,-2.2191,-2.2539,-2.2928,-2.2928,-2.2928,-2.2928,-2.2928,-2.2928,-2.2928,-2.2928,-2.2726,-2.2592,-2.2592,-2.2458,-2.2338,-2.2338,-2.2338,-2.2338,-2.2338,-2.2338,-2.2338,-2.2338,-2.2231,-2.2098,-2.1924,-2.179,-2.1657,-2.1483,-2.1456,-2.1403,-2.1296,-2.1283,-2.1229,-2.1122,-2.1109,-2.1109,-2.1109,-2.1109,-2.1109,-2.1109,-2.1109,-2.1109,-2.1109,-2.1109,-2.1109,-2.1109,-2.1109,-2.1109,-0.9138,0.0,0.0,-1.1176,-1.2194,0.0,-1.466,-1.515,-1.5444,-1.5718,0.0,-1.5784,-1.5784,-1.5784,-1.5784,-1.5784,-1.5784,-1.5784,-1.5784,-1.5784,-1.5784,-1.5784,-1.5784,-1.5784,-1.5784,-1.5784,-1.5784,-1.5784,-1.5784,-1.5784,-1.5784,-1.6086,-1.6112,-1.5784,-1.6086,-1.6233,-1.6233,-1.6259,-1.6688,-1.7548,-1.7793,-1.841,-1.9295,-2.0155,-2.0413,-2.016,-2.0183,-2.0214,-2.022,-2.0842,-2.1082,-2.1109,-2.1109,-2.1109,-2.1109,-2.1109,-2.1109,-2.1109,-2.1109,-2.1109,-2.1109,-2.1109,-2.151,-2.1991,-2.1991,-2.2392,-2.2928,-2.2928,-2.2928,-2.2928,-2.2928,-2.2928,-2.2928,-2.2928,-2.2928,-2.2928,-2.2928,-2.2928,-2.2928,-2.2928,-2.2928,-2.2928,-2.2928,-2.2928,-2.2928,-2.2928,-2.2632,-2.2445,-2.2418,-2.2191,-2.2017,-2.1991,-2.1991,-2.1884,-2.1681,-2.1655,-2.1483,-2.1203,-2.1162,-2.1149,-2.1149,-2.1122,-2.1109,-2.1109,-2.1109,-2.1109,-2.1109,-2.1109,-2.1109,-2.1109,-2.1109,-2.1109,-0.9138,-0.9644,0.0,0.0,-1.2625,-1.3948,-1.4496,-1.4843,-1.5204,-1.5725,-1.5784,-1.5784,-1.5784,-1.5784,-1.5784,-1.5784,-1.5784,-1.5784,-1.5784,-1.5784,-1.5784,-1.5784,-1.5784,-1.5784,-1.5784,-1.5784,-1.5784,-1.5784,-1.5784,-1.5784,-1.5784,-1.5885,-1.5851,-1.5784,-1.5885,-1.5925,-1.5925,-1.6152,-1.6486,-1.6881,-1.7447,-1.789,-1.8353,-1.9467,-1.9919,-1.9913,-1.9883,-2.0027,-2.0207,-2.0615,-2.0909,-2.1109,-2.1109,-2.1109,-2.1109,-2.1109,-2.1109,-2.1109,-2.1109,-2.1109,-2.1109,-2.1109,-2.151,-2.1991,-2.1991,-2.2392,-2.2928,-2.2928,-2.2928,-2.2928,-2.2928,-2.2928,-2.2928,-2.2928,-2.2928,-2.2928,-2.2928,-2.2928,-2.2928,-2.2928,-2.2928,-2.2928,-2.2928,-2.2928,-2.2928,-2.2928,-2.2806,-2.2686,-2.2445,-2.2365,-2.2231,-2.2004,-2.1991,-2.1964,-2.1897,-2.1897,-2.1871,-2.1804,-2.1577,-2.1521,-2.1521,-2.1229,-2.1109,-2.1109,-2.1109,-2.1109,-2.1109,-2.1109,-2.1109,-2.1109,-2.1109,-2.1109,-0.9311,0.0,0.0,-1.1557,0.0,-1.4122,-1.4282,-1.4656,-1.5102,-1.5351,-1.5418,-1.5418,-1.5418,-1.5418,-1.5418,-1.5418,-1.5418,-1.5418,-1.5418,-1.5418,-1.5418,-1.5418,-1.5418,-1.5471,-1.5605,-1.5618,-1.5685,-1.5771,-1.5784,-1.5784,-1.5784,-1.5784,-1.5784,-1.5784,-1.5784,-1.5784,-1.5784,-1.5979,-1.6236,-1.653,-1.6977,-1.7476,-1.8016,-1.8958,-1.9445,-1.9631,-1.973,-1.988,-2.0054,-2.0494,-2.0762,-2.0909,-2.1056,-2.1109,-2.1109,-2.1109,-2.1109,-2.1109,-2.1109,-2.1109,-2.1109,-2.1109,-2.1416,-2.1804,-2.1937,-2.2298,-2.2686,-2.2819,-2.2928,-2.2928,-2.2928,-2.2928,-2.2928,-2.2928,-2.2928,-2.2928,-2.2928,-2.2928,-2.2928,-2.2928,-2.2928,-2.2928,-2.2928,-2.2928,-2.2928,-2.2928,-2.2928,-2.2806,-2.2645,-2.2632,-2.2579,-2.2418,-2.2405,-2.2352,-2.2205,-2.2191,-2.2138,-2.1991,-2.1844,-2.1764,-2.1764,-2.1617,-2.1403,-2.1122,-2.1109,-2.1109,-2.1109,-2.1109,-2.1109,-2.1109,-2.1109,-2.1109,-0.9431,0.0,-1.0568,-1.1837,-1.3013,0.0,-1.3896,-1.4311,-1.47,-1.47,-1.4861,-1.5008,-1.5008,-1.4968,-1.4928,-1.4928,-1.4928,-1.4928,-1.4928,-1.4981,-1.5008,-1.5008,-1.5008,-1.5102,-1.5297,-1.5364,-1.5498,-1.5691,-1.5758,-1.5784,-1.5784,-1.5784,-1.5784,-1.5784,-1.5784,-1.5784,-1.5784,-1.5784,-1.5952,-1.6206,-1.654,-1.7128,-1.7903,-1.8469,-1.8918,-1.9342,-1.9555,-1.9706,-1.984,-2.0374,-2.0628,-2.0708,-2.1002,-2.1109,-2.1109,-2.1109,-2.1109,-2.1109,-2.1109,-2.1109,-2.1109,-2.1109,-2.1309,-2.1668,-2.1897,-2.2191,-2.2485,-2.2779,-2.2928,-2.2928,-2.2928,-2.2928,-2.2928,-2.2928,-2.2928,-2.2928,-2.2928,-2.2928,-2.2928,-2.2928,-2.2928,-2.2928,-2.2928,-2.2928,-2.2928,-2.2928,-2.2928,-2.2928,-2.2928,-2.2928,-2.2928,-2.2928,-2.2928,-2.2766,-2.2512,-2.2498,-2.2392,-2.2151,-2.2084,-2.2058,-2.2058,-2.2004,-2.175,-2.1269,-2.1256,-2.1243,-2.1189,-2.1189,-2.1162,-2.1109,-2.1109,-2.1109,0.0,0.0,-1.0982,0.0,-1.2238,-1.2958,0.0,0.0,-1.344,0.0,-1.4255,-1.5008,-1.5008,-1.475,-1.4576,-1.4576,-1.4576,-1.4576,-1.4576,-1.4803,-1.5008,-1.5008,-1.5008,-1.5022,-1.5062,-1.5244,-1.5404,-1.5444,-1.5685,-1.5784,-1.5784,-1.5784,-1.5784,-1.5784,-1.5784,-1.5784,-1.5784,-1.5784,-1.5798,-1.5851,-1.6446,-1.6901,-1.734,-1.7849,-1.8452,-1.8988,-1.9011,-1.9332,-1.9826,-2.016,-2.0441,-2.0708,-2.1002,-2.1109,-2.1109,-2.1109,-2.1109,-2.1109,-2.1109,-2.1109,-2.1109,-2.1109,-2.1309,-2.1668,-2.1897,-2.2191,-2.2485,-2.2779,-2.2928,-2.2928,-2.2928,-2.2928,-2.2928,-2.2928,-2.2928,-2.2928,-2.2928,-2.2928,-2.2928,-2.2928,-2.2928,-2.2928,-2.2928,-2.2928,-2.2928,-2.2928,-2.2928,-2.2928,-2.2928,-2.2928,-2.2928,-2.2928,-2.2928,-2.2846,-2.2806,-2.2806,-2.2847,-2.2752,-2.2498,-2.2365,-2.2365,-2.2124,-2.1951,-2.1871,-2.1871,-2.175,-2.1561,-2.1561,-2.1363,-2.1109,-2.1109,-2.1109,-0.8917,-0.9712,-1.0486,0.0,-1.1476,-1.2051,-1.2248,0.0,-1.2746,-1.2958,-1.34,-1.3816,-1.3948,-1.3868,-1.3788,-1.3788,-1.3788,-1.3788,-1.3788,-1.3895,-1.3975,-1.3975,-1.4122,-1.4295,-1.4499,-1.4736,-1.4977,-1.5137,-1.5418,-1.5591,-1.5591,-1.5738,-1.5784,-1.5784,-1.5784,-1.5784,-1.5784,-1.5784,-1.5912,-1.6086,-1.65,-1.686,-1.7219,-1.7595,-1.8116,-1.8691,-1.8851,-1.9172,-1.9586,-2.004,-2.0307,-2.0468,-2.0935,-2.1109,-2.1109,-2.1109,-2.1109,-2.1109,-2.1109,-2.1109,-2.1109,-2.1109,-2.1203,-2.139,-2.1844,-2.2071,-2.2271,-2.2739,-2.2928,-2.2928,-2.2928,-2.2928,-2.2928,-2.2928,-2.2928,-2.2928,-2.2928,-2.2928,-2.2928,-2.2928,-2.2928,-2.2928,-2.2928,-2.2928,-2.2928,-2.2928,-2.2928,-2.2928,-2.2928,-2.2928,-2.2928,-2.2928,-2.2928,-2.2928,-2.2928,-2.2928,-2.2928,-2.2928,-2.2739,-2.2672,-2.2672,-2.2539,-2.2472,-2.2472,-2.2151,-2.1924,-2.179,-2.179,-2.1643,-2.1363,-2.1523,-2.151,0.0,0.0,-0.9774,-1.0137,-1.0661,-1.1169,0.0,0.0,-1.2051,0.0,-1.2449,-1.2516,-1.2719,-1.2946,-1.3093,-1.3093,-1.3093,-1.3093,-1.3093,-1.316,-1.3213,-1.3213,-1.336,-1.3613,-1.3948,-1.4242,-1.4536,-1.4874,-1.5124,-1.5284,-1.5284,-1.5565,-1.5725,-1.5725,-1.5744,-1.5784,-1.5784,-1.5784,-1.5939,-1.6166,-1.6526,-1.682,-1.7099,-1.7422,-1.7876,-1.8397,-1.8691,-1.9025,-1.947,-1.992,-2.0174,-2.022,-2.0802,-2.1042,-2.1109,-2.1109,-2.1109,-2.1109,-2.1109,-2.1109,-2.1109,-2.1109,-2.1109,-2.1216,-2.1804,-2.1991,-2.2111,-2.2699,-2.2928,-2.2928,-2.2928,-2.2928,-2.2928,-2.2928,-2.2928,-2.2928,-2.2928,-2.2928,-2.2928,-2.2928,-2.2928,-2.2928,-2.2928,-2.2928,-2.2928,-2.2928,-2.2928,-2.2928,-2.2928,-2.2928,-2.2928,-2.2928,-2.2928,-2.2928,-2.2928,-2.2928,-2.2928,-2.2928,-2.2928,-2.2928,-2.2928,-2.2928,-2.2928,-2.2928,-2.2432,-2.2178,-2.2098,-2.2098,-2.1951,-2.1735,-2.1884,-2.1871,0.0,-0.8719,0.0,-0.9215,0.0,0.0,0.0,0.0,-1.1142,-1.1436,-1.1455,-1.1469,-1.1482,-1.2198,-1.2811,-1.2811,-1.2811,-1.2811,-1.2811,-1.3026,-1.3213,-1.3213,-1.3227,-1.3347,-1.36,-1.3935,-1.4229,-1.4522,-1.4816,-1.5035,-1.5035,-1.5257,-1.5418,-1.5418,-1.5685,-1.5784,-1.5784,-1.5784,-1.5784,-1.5811,-1.6433,-1.6714,-1.6754,-1.7328,-1.7756,-1.8035,-1.8384,-1.8838,-1.9399,-1.9693,-1.9987,-2.0207,-2.0575,-2.0869,-2.1109,-2.1109,-2.1109,-2.1109,-2.1109,-2.1109,-2.1109,-2.1109,-2.1109,-2.1216,-2.1804,-2.1991,-2.2111,-2.2699,-2.2928,-2.2928,-2.2928,-2.2928,-2.2928,-2.2928,-2.2928,-2.2928,-2.2928,-2.2928,-2.2928,-2.2928,-2.2928,-2.2928,-2.2928,-2.2928,-2.2928,-2.2928,-2.2928,-2.2928,-2.2928,-2.2928,-2.2928,-2.2928,-2.2928,-2.2928,-2.2928,-2.2928,-2.2928,-2.2928,-2.2928,-2.2928,-2.2928,-2.2928,-2.2928,-2.2928,-2.2901,-2.2672,-2.2392,-2.2392,-2.2245,-2.1964,-2.1977,-2.1977,0.0,0.0,0.0,-0.9109,-0.9364,-0.9604,-0.9956,-1.0104,-1.0287,-1.0801,-1.0908,-1.0982,-1.1322,-1.169,-1.1957,-1.2194,-1.2221,-1.2288,-1.2438,-1.2559,-1.2625,-1.2625,-1.2799,-1.2998,-1.3092,-1.3507,-1.38,-1.3906,-1.4402,-1.4683,-1.4683,-1.4963,-1.5204,-1.5391,-1.5498,-1.5645,-1.5784,-1.5784,-1.5784,-1.5832,-1.6233,-1.6526,-1.6714,-1.7179,-1.7582,-1.8009,-1.8357,-1.8718,-1.9118,-1.9599,-1.9973,-2.0207,-2.0561,-2.0855,-2.1109,-2.1109,-2.1109,-2.1109,-2.1109,-2.1109,-2.1109,-2.1109,-2.1109,-2.1216,-2.1804,-2.1991,-2.2111,-2.2699,-2.2928,-2.2928,-2.2928,-2.2928,-2.2928,-2.2928,-2.2928,-2.2928,-2.2928,-2.2928,-2.2928,-2.2928,-2.2928,-2.2928,-2.2928,-2.2928,-2.2928,-2.2928,-2.2928,-2.2928,-2.2928,-2.2928,-2.2928,-2.2928,-2.2928,-2.2928,-2.2928,-2.2928,-2.2928,-2.2928,-2.2928,-2.2928,-2.2928,-2.2928,-2.2928,-2.2928,-2.2928,-2.2806,-2.2699,-2.2699,-2.2552,-2.2271,-2.2458,-2.2445,-0.7744,0.0,0.0,0.0,0.0,-0.9151,-0.9472,0.0,-0.9673,-1.0198,-1.0291,-1.0412,-1.0768,-1.0883,-1.1142,-1.1637,-1.1717,-1.1784,-1.1984,-1.2091,-1.2158,-1.2158,-1.2449,-1.2677,-1.277,-1.32,-1.3493,-1.36,-1.4095,-1.4376,-1.4376,-1.4656,-1.499,-1.5391,-1.5484,-1.5631,-1.5784,-1.5784,-1.5784,-1.5784,-1.6126,-1.642,-1.6714,-1.7058,-1.7422,-1.7849,-1.821,-1.8571,-1.8958,-1.9452,-1.9826,-2.012,-2.0414,-2.0708,-2.0975,-2.1069,-2.1109,-2.1109,-2.1109,-2.1109,-2.1109,-2.1109,-2.1109,-2.1203,-2.1697,-2.1911,-2.2084,-2.2579,-2.2779,-2.2928,-2.2928,-2.2928,-2.2928,-2.2928,-2.2928,-2.2928,-2.2928,-2.2928,-2.2928,-2.2928,-2.2928,-2.2928,-2.2928,-2.2928,-2.2928,-2.2928,-2.2928,-2.2928,-2.2928,-2.2928,-2.2928,-2.2928,-2.2928,-2.2928,-2.2928,-2.2928,-2.2968,-2.3006,-2.302,-2.306,-2.3236,-2.3073,-2.302,-2.302,-2.2913,-2.2928,-2.2928,-2.2928,-2.2766,-2.2579,-2.2766,-2.2752,0.0,0.0,0.0,0.0,0.0,0.0,-0.9138,0.0,-0.9284,-0.9606,-0.9702,-0.9702,-0.9686,-0.9913,-1.035,-1.1216,-1.1362,-1.1375,-1.1389,-1.1677,-1.1899,-1.1899,-1.2131,-1.2412,-1.2744,-1.3013,-1.332,-1.3573,-1.3908,-1.4082,-1.4082,-1.4376,-1.4803,-1.5378,-1.5671,-1.5784,-1.5784,-1.5784,-1.5784,-1.5784,-1.6126,-1.642,-1.6714,-1.7058,-1.7353,-1.7595,-1.7862,-1.8315,-1.8931,-1.9225,-1.9533,-1.9826,-2.012,-2.0414,-2.0708,-2.1002,-2.1109,-2.1109,-2.1109,-2.1109,-2.1109,-2.1109,-2.1109,-2.1162,-2.1534,-2.1815,-2.2044,-2.2338,-2.2632,-2.2928,-2.2928,-2.2928,-2.2928,-2.2928,-2.2928,-2.2928,-2.2928,-2.2928,-2.2928,-2.2928,-2.2928,-2.2928,-2.2928,-2.2928,-2.2928,-2.2928,-2.2928,-2.2928,-2.2873,-2.2873,-2.2954,-2.2954,-2.2954,-2.2873,-2.2873,-2.2873,-2.3006,-2.3313,-2.334,-2.3474,-2.3754,-2.3487,-2.3327,-2.3327,-2.302,-2.2928,-2.2928,-2.2928,-2.2928,-2.2928,-2.2928,-2.2928,-0.7507,0.0,0.0,0.0,0.0,0.0,-0.8764,-0.8844,-0.8978,-0.9271,-0.9337,-0.9404,-0.9646,-0.9753,-0.9953,-1.0408,-1.0835,-1.1182,-1.1362,-1.1677,-1.1899,-1.1899,-1.2131,-1.2331,-1.2412,-1.273,-1.3038,0.0,-1.356,-1.3813,-1.4082,-1.4563,-1.5017,-1.5391,-1.5671,-1.5784,-1.5784,-1.5784,-1.5784,-1.5784,-1.5912,-1.6219,-1.6714,-1.6794,-1.7101,-1.7595,-1.7862,-1.8209,-1.8637,-1.8931,-1.9345,-1.9826,-2.012,-2.0414,-2.0708,-2.1002,-2.1109,-2.1109,-2.1109,-2.1109,-2.1109,-2.1109,-2.1109,-2.1162,-2.1534,-2.1815,-2.2044,-2.2338,-2.2632,-2.2928,-2.2928,-2.2928,-2.2928,-2.2928,-2.2928,-2.2928,-2.2928,-2.2928,-2.2928,-2.2928,-2.2928,-2.2928,-2.2928,-2.2928,-2.2928,-2.2928,-2.2928,-2.2939,-2.3166,-2.3193,-2.3273,-2.35,-2.3327,-2.3193,-2.3193,-2.3193,-2.3233,-2.3327,-2.3527,-2.3688,-2.3768,-2.3487,-2.3327,-2.3327,-2.302,-2.2928,-2.2928,-2.2928,-2.2928,-2.2928,-2.2928,-2.2928,0.0,0.0,0.0,0.0,0.0,0.0,-0.8762,-0.8778,-0.8858,-0.8991,-0.9031,-0.9084,-0.9285,-0.9419,-0.9593,-0.9886,-1.0327,-1.0728,-1.1022,-1.1316,-1.1578,-1.1677,-1.1944,-1.2171,-1.2291,-1.261,-1.2918,-1.3186,-1.344,-1.3733,-1.4068,-1.4687,-1.5089,-1.5204,-1.5618,-1.5784,-1.5784,-1.5784,-1.5784,-1.5784,-1.5784,-1.6139,-1.67,-1.67,-1.7021,-1.7595,-1.7769,-1.8023,-1.833,-1.8624,-1.9092,-1.9653,-1.9947,-2.0227,-2.0535,-2.0815,-2.1002,-2.1109,-2.1109,-2.1109,-2.1109,-2.1109,-2.1109,-2.1149,-2.1309,-2.1657,-2.2017,-2.2191,-2.2539,-2.2928,-2.2928,-2.2928,-2.2928,-2.2928,-2.2928,-2.2928,-2.2928,-2.2928,-2.2928,-2.2928,-2.2928,-2.2928,-2.2928,-2.2928,-2.2968,-2.3033,-2.306,-2.3166,-2.3474,-2.3514,-2.3581,-2.3754,-2.3621,-2.3514,-2.3514,-2.3514,-2.3567,-2.3688,-2.3861,-2.4008,-2.4128,-2.3728,-2.3514,-2.3514,-2.3086,-2.2928,-2.2928,-2.2928,-2.2928,-2.2928,-2.2928,-2.2928,0.0,0.0,0.0,0.0,0.0,0.0,-0.8895,-0.8881,-0.8831,-0.8831,-0.8805,-0.8804,-0.8804,-0.9018,-0.9311,-0.9633,-0.9927,-1.0221,-1.0546,-1.0841,-1.1089,-1.1343,-1.1637,-1.1917,-1.2184,-1.2516,-1.2811,-1.3093,-1.34,-1.3746,-1.4122,-1.4629,-1.4995,-1.5062,-1.5511,-1.5744,-1.5784,-1.5784,-1.5784,-1.5784,-1.5784,-1.6126,-1.666,-1.6687,-1.7007,-1.7542,-1.7569,-1.7756,-1.8009,-1.837,-1.8824,-1.9359,-1.9706,-2.0,-2.0207,-2.0601,-2.0895,-2.1109,-2.1109,-2.1109,-2.1109,-2.1109,-2.1109,-2.1109,-2.1109,-2.1496,-2.1951,-2.2017,-2.2432,-2.2928,-2.2928,-2.2928,-2.2928,-2.2928,-2.2928,-2.2928,-2.2928,-2.2928,-2.2928,-2.2928,-2.2928,-2.2928,-2.2928,-2.2928,-2.2966,-2.3287,-2.3327,-2.3447,-2.3781,-2.3821,-2.3834,-2.3861,-2.3834,-2.3821,-2.3821,-2.3821,-2.3928,-2.4182,-2.4235,-2.4369,-2.4623,-2.4115,-2.3808,-2.3768,-2.3236,-2.2928,-2.2928,-2.2928,-2.2928,-2.2928,-2.2928,-2.2928,0.0,0.0,0.0,0.0,0.0,0.0,-0.848,-0.8745,-0.8973,-0.8973,-0.887,-0.8804,-0.8804,-0.9018,-0.9311,-0.9633,-0.9927,-1.0221,-1.0546,-1.0841,-1.1009,-1.1076,-1.1329,-1.153,-1.1549,-1.1864,-1.2194,-1.2465,-1.316,-1.3826,-1.4402,-1.4549,-1.483,-1.5297,-1.5418,-1.5591,-1.5784,-1.5784,-1.5784,-1.5784,-1.5784,-1.6019,-1.6366,-1.6593,-1.6901,-1.73,-1.7527,-1.7756,-1.8009,-1.837,-1.8691,-1.9078,-1.9853,-2.0127,-2.0294,-2.0828,-2.1069,-2.1109,-2.1109,-2.1109,-2.1109,-2.1109,-2.1109,-2.1109,-2.1109,-2.1349,-2.1802,-2.2205,-2.2592,-2.2928,-2.2928,-2.2928,-2.2928,-2.2928,-2.2928,-2.2928,-2.2928,-2.2928,-2.2928,-2.2928,-2.2928,-2.2928,-2.2928,-2.2928,-2.2966,-2.3287,-2.3327,-2.3514,-2.4048,-2.4115,-2.4209,-2.4436,-2.4262,-2.4115,-2.4115,-2.4115,-2.4142,-2.4195,-2.4422,-2.4583,-2.4636,-2.4302,-2.4008,-2.3768,-2.3236,-2.2928,-2.2928,-2.2928,-2.2928,-2.2928,-2.2928,-2.2928,0.0,0.0,0.0,-0.756,0.0,0.0,0.0,-0.8727,-0.8947,-0.8947,-0.903,-0.9107,-0.9107,-0.9281,-0.9552,-0.9846,-1.002,-1.0167,-1.0314,-1.0626,-1.0814,-1.0814,-1.1035,-1.1263,-1.1375,-1.1557,-1.1824,-1.2265,-1.296,-1.3573,-1.4013,-1.4229,-1.4509,-1.495,-1.5244,-1.5471,-1.5618,-1.5704,-1.5784,-1.5784,-1.5784,-1.5979,-1.6335,-1.6567,-1.6874,-1.7219,-1.7462,-1.7675,-1.7849,-1.8303,-1.8584,-1.8784,-1.9519,-1.9973,-2.0267,-2.0561,-2.0855,-2.1109,-2.1109,-2.1109,-2.1109,-2.1109,-2.1109,-2.1109,-2.1109,-2.1416,-2.1857,-2.2298,-2.2632,-2.2928,-2.2928,-2.2928,-2.2928,-2.2928,-2.2928,-2.2928,-2.2928,-2.2928,-2.2928,-2.2928,-2.2928,-2.2928,-2.2928,-2.2928,-2.302,-2.3474,-2.3554,-2.3754,-2.4342,-2.4422,-2.4476,-2.4623,-2.4502,-2.4422,-2.4422,-2.4422,-2.4422,-2.4422,-2.4556,-2.4636,-2.4636,-2.4356,-2.3995,-2.3554,-2.3247,-2.302,-2.2928,-2.2928,-2.2928,-2.2928,-2.2928,-2.2928,0.0,0.0,0.0,0.0,0.0,-0.8091,0.0,0.0,0.0,-0.8871,-0.9128,-0.9366,0.0,0.0,0.0,-1.0043,0.0,0.0,0.0,-1.0399,0.0,-1.0519,-1.076,-1.0995,-1.1236,-1.1282,-1.1575,-1.2251,-1.2759,-1.3186,-1.3507,-1.3841,-1.4135,-1.4429,-1.495,-1.5284,-1.5391,-1.5631,-1.5731,-1.5784,-1.5784,-1.5952,-1.6192,-1.654,-1.6834,-1.7139,-1.7487,-1.7582,-1.7635,-1.8237,-1.849,-1.8557,-1.9199,-1.9773,-2.0241,-2.0294,-2.0655,-2.1109,-2.1109,-2.1109,-2.1109,-2.1109,-2.1109,-2.1109,-2.1109,-2.1523,-2.2031,-2.2271,-2.2592,-2.2928,-2.2928,-2.2928,-2.2928,-2.2928,-2.2928,-2.2928,-2.2928,-2.2928,-2.2928,-2.2928,-2.2928,-2.2928,-2.2928,-2.2928,-2.3046,-2.3607,-2.3728,-2.3968,-2.4489,-2.4596,-2.4636,-2.4636,-2.4636,-2.4636,-2.4636,-2.4636,-2.4636,-2.4636,-2.4636,-2.4636,-2.4636,-2.4356,-2.3981,-2.35,-2.3447,-2.3287,-2.3033,-2.3033,-2.3006,-2.2953,-2.2953,-2.2979,0.0,0.0,0.0,0.0,-0.7629,0.0,0.0,0.0,-0.8673,-0.8788,0.0,0.0,0.0,0.0,0.0,0.0,0.0,0.0,-1.0154,-1.0399,-1.0492,-1.0194,-1.0466,-1.0653,-1.068,-1.0921,-1.1396,-1.2238,-1.2371,-1.2652,-1.3227,-1.3493,-1.3786,-1.4122,-1.4456,-1.487,-1.5391,-1.5431,-1.5578,-1.5784,-1.5784,-1.5798,-1.5899,-1.646,-1.6727,-1.678,-1.7341,-1.7582,-1.7635,-1.8237,-1.849,-1.8571,-1.9426,-1.9947,-2.0267,-2.0535,-2.0828,-2.1109,-2.1109,-2.1109,-2.1109,-2.1109,-2.1109,-2.1109,-2.1109,-2.1523,-2.1991,-2.2031,-2.2432,-2.2928,-2.2928,-2.2928,-2.2928,-2.2928,-2.2928,-2.2928,-2.2928,-2.2928,-2.2928,-2.2928,-2.2928,-2.2928,-2.2928,-2.2928,-2.2979,-2.3327,-2.3607,-2.3888,-2.4209,-2.4476,-2.4636,-2.4636,-2.4636,-2.4636,-2.4636,-2.4636,-2.4636,-2.4636,-2.4636,-2.4636,-2.4636,-2.4356,-2.4168,-2.4102,-2.3848,-2.3701,-2.3674,-2.3674,-2.3527,-2.3273,-2.3273,-2.342,0.0,0.0,0.0,0.0,0.0,0.0,-0.7982,0.0,-0.8457,0.0,0.0,0.0,0.0,0.0,0.0,0.0,-1.0412,0.0,0.0,0.0,-1.0479,0.0,0.0,0.0,-1.0586,-1.0854,-1.1209,-1.1757,-1.1957,-1.2318,-1.2945,-1.3227,-1.348,-1.3773,-1.4282,-1.4723,-1.5137,-1.5311,-1.5538,-1.5784,-1.5784,-1.5784,-1.5798,-1.6433,-1.67,-1.674,-1.7328,-1.7582,-1.7635,-1.8237,-1.849,-1.8557,-1.9265,-1.9826,-2.0254,-2.0374,-2.0708,-2.1109,-2.1109,-2.1109,-2.1109,-2.1109,-2.1109,-2.1109,-2.1109,-2.1523,-2.1991,-2.1991,-2.2405,-2.2928,-2.2928,-2.2928,-2.2928,-2.2928,-2.2928,-2.2928,-2.2928,-2.2928,-2.2928,-2.2928,-2.2928,-2.2928,-2.2928,-2.2928,-2.2966,-2.3287,-2.3581,-2.3875,-2.4168,-2.4449,-2.4636,-2.4636,-2.4636,-2.4636,-2.4636,-2.4636,-2.4636,-2.4636,-2.4636,-2.4636,-2.4636,-2.4516,-2.4382,-2.4209,-2.4088,-2.3941,-2.3768,-2.3768,-2.3794,-2.3834,-2.3661,-2.3647,-0.9927,0.0,0.0,0.0,0.0,0.0,0.0,0.0,0.0,0.0,0.0,0.0,0.0,0.0,0.0,0.0,0.0,-1.0425,0.0,-1.0421,0.0,0.0,0.0,0.0,0.0,-1.0787,-1.0995,-1.1289,-1.1583,-1.2007,-1.2516,-1.2959,-1.3307,-1.348,-1.4095,-1.4576,-1.5008,-1.5177,-1.5471,-1.5784,-1.5784,-1.5784,-1.5798,-1.6433,-1.67,-1.674,-1.7328,-1.7582,-1.7635,-1.8237,-1.849,-1.8544,-1.9132,-1.9679,-2.012,-2.014,-2.0601,-2.1109,-2.1109,-2.1109,-2.1109,-2.1109,-2.1109,-2.1109,-2.1109,-2.1523,-2.1991,-2.1991,-2.2405,-2.2928,-2.2928,-2.2928,-2.2928,-2.2928,-2.2928,-2.2928,-2.2928,-2.2928,-2.2928,-2.2928,-2.2928,-2.2928,-2.2928,-2.2928,-2.2966,-2.3287,-2.3581,-2.3875,-2.4168,-2.4449,-2.4636,-2.4636,-2.4636,-2.4636,-2.4636,-2.4636,-2.4636,-2.4636,-2.4636,-2.4636,-2.4636,-2.4636,-2.4543,-2.4329,-2.4183,-2.4077,-2.3864,-2.372,-2.3826,-2.3951,-2.3805,-2.3785,0.0,0.0,0.0,-0.9648,0.0,0.0,0.0,0.0,-0.8507,0.0,0.0,0.0,0.0,0.0,0.0,0.0,0.0,0.0,0.0,0.0,0.0,0.0,0.0,0.0,0.0,-1.06,-1.072,-1.0982,-1.1276,-1.157,-1.1913,-1.2732,-1.3213,-1.3227,-1.3801,-1.4376,-1.4995,-1.5022,-1.5257,-1.5784,-1.5784,-1.5784,-1.5798,-1.6433,-1.67,-1.674,-1.7328,-1.7582,-1.7635,-1.8237,-1.849,-1.8544,-1.9132,-1.9546,-1.984,-2.0134,-2.0601,-2.1109,-2.1109,-2.1109,-2.1109,-2.1109,-2.1109,-2.1109,-2.1109,-2.1523,-2.1991,-2.1991,-2.2405,-2.2928,-2.2928,-2.2928,-2.2928,-2.2928,-2.2928,-2.2928,-2.2928,-2.2928,-2.2928,-2.2928,-2.2928,-2.2928,-2.2928,-2.2928,-2.2966,-2.3287,-2.3581,-2.3875,-2.4168,-2.4449,-2.4636,-2.4636,-2.4636,-2.4636,-2.4636,-2.4636,-2.4636,-2.4636,-2.4636,-2.4636,-2.4636,-2.4636,-2.4636,-2.4623,-2.4179,-2.4018,-2.4018,-2.3561,-2.3426,-2.3426,-2.3512,-2.3745,0.0,0.0,-1.0874,-1.0307,0.0,0.0,0.0,0.0,0.0,0.0,0.0,0.0,0.0,0.0,0.0,0.0,0.0,0.0,0.0,0.0,0.0,0.0,0.0,0.0,0.0,0.0,-1.0707,-1.0969,-1.1263,-1.1557,-1.1886,-1.2719,-1.3213,-1.3213,-1.3975,-1.4563,-1.5008,-1.5196,-1.5444,-1.5784,-1.5784,-1.5784,-1.5798,-1.6433,-1.67,-1.674,-1.7328,-1.7702,-1.7916,-1.833,-1.8597,-1.8811,-1.9212,-1.9546,-1.984,-2.012,-2.0481,-2.0855,-2.1042,-2.1109,-2.1109,-2.1109,-2.1109,-2.1149,-2.1336,-2.1683,-2.2031,-2.2218,-2.2552,-2.2928,-2.2928,-2.2928,-2.2928,-2.2928,-2.2928,-2.2928,-2.2928,-2.2928,-2.2928,-2.2928,-2.2928,-2.2926,-2.314,-2.3166,-2.3207,-2.3313,-2.3741,-2.4088,-2.4195,-2.4449,-2.4636,-2.4636,-2.4636,-2.4636,-2.4636,-2.4636,-2.4636,-2.4636,-2.4341,-2.4193,-2.4193,-2.397,-2.3809,-2.3809,-2.3438,-2.3215,-2.3215,-2.2533,-2.2235,-2.216,-2.1456,-2.1692,-1.2067,-1.1848,0.0,-1.0968,-1.0406,0.0,-0.9528,0.0,0.0,0.0,0.0,0.0,0.0,0.0,0.0,0.0,0.0,0.0,0.0,-1.0523,0.0,0.0,0.0,0.0,0.0,-1.0586,-1.0667,-1.0854,-1.1196,-1.1469,0.0,-1.2665,-1.3213,-1.3213,-1.4068,-1.4669,-1.5008,-1.5257,-1.5538,-1.5784,-1.5784,-1.5784,-1.5798,-1.6433,-1.67,-1.674,-1.7328,-1.7756,-1.8009,-1.837,-1.8664,-1.8958,-1.9252,-1.9479,-1.9693,-2.0094,-2.0481,-2.0855,-2.1042,-2.1109,-2.1109,-2.1109,-2.1109,-2.1162,-2.1534,-2.1815,-2.2044,-2.2338,-2.2632,-2.2928,-2.2928,-2.2928,-2.2928,-2.2928,-2.2928,-2.2928,-2.2928,-2.2928,-2.2928,-2.2928,-2.2928,-2.2966,-2.3273,-2.342,-2.3514,-2.3621,-2.3968,-2.4235,-2.4342,-2.4516,-2.4636,-2.4636,-2.4636,-2.4636,-2.4636,-2.4636,-2.4636,-2.4636,-2.4193,-2.397,-2.3822,-2.3364,-2.3141,-2.2992,-2.2471,-2.2097,-2.1948,-2.1101,-2.065,-2.05,-1.9434,-1.9434]},{"header":{"parameterUnit":"m.s-1","parameterCategory":1,"la1":30.6,"la2":29.2853,"lo1":-89.7004,"lo2":-87.6739,"dy":0.0162,"dx":0.0183,"nx":112,"ny":82,"refTime":"2023-10-23T18:00:00:Z","depth":0,"parameterNumber":3,"parameterNumberName":"V-component_of_WINDS"},"data":[0.0,0.0,0.0,0.0,0.0,0.0,0.0,0.0,0.0,0.0,0.0,0.0,0.0,0.0,0.0,0.0,0.0,0.0,0.0,0.0,0.0,0.0,0.0,0.0,0.0,0.0,0.0,0.0,0.0,0.0,0.0,0.0,0.0,0.0,0.0,0.0,0.0,0.0,0.0,0.0,0.0,0.0,0.0,0.0,0.0,0.0,0.0,0.0,0.0,0.0,0.0,0.0,0.0,0.0,0.0,0.0,0.0,0.0,0.0,0.0,0.0,0.0,0.0,0.0,0.0,0.0,0.0,0.0,0.0,0.0,0.0,0.0,0.0,0.0,0.0,0.0,0.0,0.0,0.0,0.0,0.0,0.0,0.0,0.0,0.0,0.0,0.0,0.0,0.0,0.0,2.2419,2.329,2.4696,2.5896,2.6636,2.6153,2.4909,2.2823,0.0,0.0,0.0,0.0,0.0,0.0,0.0,0.0,0.0,0.0,0.0,0.0,0.0,0.0,0.0,0.0,0.0,0.0,0.0,0.0,0.0,0.0,0.0,0.0,0.0,0.0,0.0,0.0,0.0,0.0,0.0,0.0,0.0,0.0,0.0,0.0,0.0,0.0,0.0,0.0,0.0,0.0,0.0,0.0,0.0,0.0,0.0,0.0,0.0,0.0,0.0,0.0,0.0,0.0,0.0,0.0,0.0,0.0,0.0,0.0,0.0,0.0,0.0,0.0,0.0,0.0,0.0,0.0,0.0,0.0,0.0,0.0,0.0,0.0,0.0,0.0,0.0,0.0,0.0,0.0,0.0,0.0,0.0,0.0,0.0,0.0,0.0,0.0,0.0,0.0,0.0,0.0,0.0,0.0,0.0,0.0,0.0,0.0,0.0,0.0,0.0,0.0,0.0,0.0,2.3455,2.488,2.5852,2.6234,2.5847,2.5791,2.5156,2.36,0.0,0.0,0.0,0.0,0.0,0.0,0.0,0.0,0.0,0.0,0.0,0.0,0.0,0.0,0.0,0.0,0.0,0.0,0.0,0.0,0.0,0.0,0.0,0.0,0.0,0.0,0.0,0.0,0.0,0.0,0.0,0.0,0.0,0.0,0.0,0.0,0.0,0.0,0.0,0.0,0.0,0.0,0.0,0.0,0.0,0.0,0.0,0.0,0.0,0.0,0.0,0.0,0.0,0.0,0.0,0.0,0.0,0.0,0.0,0.0,0.0,0.0,0.0,0.0,0.0,0.0,0.0,0.0,0.0,0.0,0.0,0.0,0.0,0.0,0.0,0.0,0.0,0.0,0.0,0.0,0.0,0.0,0.0,0.0,0.0,0.0,0.0,0.0,0.0,0.0,0.0,0.0,0.0,0.0,0.0,0.0,0.0,0.0,0.0,0.0,0.0,0.0,0.0,2.3225,2.4127,2.5274,2.5338,2.5387,2.5579,2.5307,2.4518,2.3095,2.2755,0.0,0.0,0.0,0.0,0.0,0.0,0.0,0.0,0.0,0.0,0.0,0.0,0.0,0.0,0.0,0.0,0.0,0.0,0.0,0.0,0.0,0.0,0.0,0.0,0.0,0.0,0.0,0.0,0.0,0.0,0.0,0.0,0.0,0.0,0.0,0.0,0.0,0.0,0.0,0.0,0.0,0.0,0.0,0.0,0.0,0.0,0.0,0.0,0.0,0.0,0.0,0.0,0.0,0.0,0.0,0.0,0.0,0.0,0.0,0.0,0.0,0.0,0.0,0.0,0.0,0.0,0.0,0.0,0.0,0.0,0.0,0.0,0.0,0.0,0.0,0.0,0.0,0.0,0.0,0.0,0.0,0.0,0.0,0.0,0.0,0.0,0.0,0.0,0.0,0.0,0.0,0.0,0.0,0.0,0.0,0.0,0.0,0.0,0.0,0.0,0.0,0.0,2.3805,2.4456,2.5044,2.4566,2.4431,2.4968,2.4562,2.3656,2.2193,2.2418,0.0,0.0,0.0,0.0,0.0,0.0,0.0,0.0,0.0,0.0,0.0,0.0,0.0,0.0,0.0,0.0,0.0,0.0,0.0,0.0,0.0,0.0,0.0,0.0,0.0,0.0,0.0,0.0,0.0,0.0,0.0,0.0,0.0,0.0,0.0,0.0,0.0,0.0,0.0,0.0,0.0,0.0,0.0,0.0,0.0,0.0,0.0,0.0,0.0,0.0,0.0,0.0,0.0,0.0,0.0,0.0,0.0,0.0,0.0,0.0,0.0,0.0,0.0,0.0,0.0,0.0,0.0,0.0,0.0,0.0,0.0,0.0,0.0,0.0,0.0,0.0,0.0,0.0,0.0,0.0,0.0,0.0,0.0,0.0,0.0,0.0,0.0,0.0,0.0,0.0,0.0,0.0,0.0,0.0,0.0,0.0,0.0,0.0,0.0,0.0,0.0,0.0,2.4153,2.4226,2.4263,2.4226,2.3934,2.3325,2.3347,2.2757,2.1268,2.2064,0.0,0.0,0.0,0.0,0.0,0.0,0.0,0.0,0.0,0.0,0.0,0.0,0.0,0.0,0.0,0.0,0.0,0.0,0.0,0.0,0.0,0.0,0.0,0.0,0.0,0.0,0.0,0.0,0.0,0.0,0.0,0.0,0.0,0.0,0.0,0.0,0.0,0.0,0.0,0.0,0.0,0.0,0.0,0.0,0.0,0.0,0.0,0.0,0.0,0.0,0.0,0.0,0.0,0.0,0.0,0.0,0.0,0.0,0.0,0.0,0.0,0.0,0.0,0.0,0.0,0.0,0.0,0.0,0.0,0.0,0.0,0.0,0.0,0.0,0.0,0.0,0.0,0.0,0.0,0.0,0.0,0.0,0.0,0.0,0.0,0.0,0.0,0.0,0.0,0.0,0.0,0.0,0.0,0.0,0.0,0.0,0.0,0.0,0.0,0.0,0.0,0.0,2.419,2.419,0.0,2.4218,2.3897,2.3175,2.3255,2.271,2.1274,0.0,0.0,0.0,0.0,0.0,0.0,0.0,0.0,0.0,0.0,0.0,0.0,0.0,0.0,0.0,0.0,0.0,0.0,0.0,0.0,0.0,0.0,0.0,0.0,0.0,0.0,0.0,0.0,0.0,0.0,0.0,0.0,0.0,0.0,0.0,0.0,0.0,0.0,0.0,0.0,0.0,0.0,0.0,0.0,0.0,0.0,0.0,0.0,0.0,0.0,0.0,0.0,0.0,0.0,0.0,0.0,0.0,0.0,0.0,0.0,0.0,0.0,0.0,0.0,0.0,0.0,0.0,0.0,0.0,0.0,0.0,0.0,0.0,0.0,0.0,0.0,0.0,0.0,0.0,0.0,0.0,0.0,0.0,0.0,0.0,0.0,0.0,0.0,0.0,0.0,0.0,0.0,0.0,0.0,0.0,0.0,0.0,0.0,0.0,0.0,0.0,0.0,2.419,2.419,2.419,0.0,2.4191,2.3814,2.2785,2.2913,2.2376,2.0893,0.0,0.0,0.0,0.0,0.0,0.0,0.0,0.0,0.0,0.0,0.0,0.0,0.0,0.0,0.0,0.0,0.0,0.0,0.0,0.0,0.0,0.0,0.0,0.0,0.0,0.0,0.0,0.0,0.0,0.0,0.0,0.0,0.0,0.0,0.0,0.0,0.0,0.0,0.0,0.0,0.0,0.0,0.0,0.0,0.0,0.0,0.0,0.0,0.0,0.0,0.0,0.0,0.0,0.0,0.0,0.0,0.0,0.0,0.0,0.0,0.0,0.0,0.0,0.0,0.0,0.0,0.0,0.0,0.0,0.0,0.0,0.0,0.0,0.0,0.0,0.0,0.0,0.0,0.0,0.0,0.0,0.0,0.0,0.0,0.0,0.0,0.0,0.0,0.0,0.0,0.0,0.0,0.0,0.0,0.0,0.0,0.0,0.0,0.0,0.0,0.0,0.0,2.419,2.419,2.419,2.419,2.4191,2.3593,2.2009,2.2092,2.1542,0.0,0.0,0.0,0.0,0.0,0.0,0.0,0.0,0.0,0.0,0.0,0.0,0.0,0.0,0.0,0.0,0.0,0.0,0.0,0.0,0.0,0.0,0.0,0.0,0.0,0.0,0.0,0.0,0.0,0.0,0.0,0.0,0.0,0.0,0.0,0.0,0.0,0.0,0.0,0.0,0.0,0.0,0.0,0.0,0.0,0.0,0.0,0.0,0.0,0.0,0.0,0.0,0.0,0.0,0.0,0.0,0.0,0.0,0.0,0.0,0.0,0.0,0.0,0.0,0.0,0.0,0.0,0.0,0.0,0.0,0.0,0.0,0.0,0.0,0.0,0.0,0.0,0.0,0.0,0.0,0.0,0.0,0.0,0.0,0.0,0.0,0.0,0.0,0.0,0.0,0.0,0.0,0.0,0.0,0.0,0.0,0.0,0.0,0.0,0.0,0.0,0.0,0.0,2.419,2.419,2.419,2.419,2.4229,2.3647,2.2118,2.2165,2.1633,2.0134,0.0,0.0,0.0,0.0,0.0,0.0,0.0,0.0,0.0,0.0,0.0,0.0,0.0,0.0,0.0,0.0,0.0,0.0,0.0,0.0,0.0,0.0,0.0,0.0,0.0,0.0,0.0,0.0,0.0,0.0,0.0,0.0,0.0,0.0,0.0,0.0,0.0,0.0,0.0,0.0,0.0,0.0,0.0,0.0,0.0,0.0,0.0,0.0,0.0,0.0,0.0,0.0,0.0,0.0,0.0,0.0,0.0,0.0,0.0,0.0,0.0,0.0,0.0,0.0,0.0,0.0,0.0,0.0,0.0,0.0,0.0,0.0,0.0,0.0,0.0,0.0,0.0,0.0,0.0,0.0,0.0,0.0,0.0,0.0,0.0,0.0,0.0,0.0,0.0,0.0,0.0,0.0,0.0,0.0,0.0,0.0,0.0,0.0,0.0,0.0,0.0,0.0,2.419,2.419,2.419,2.419,2.4275,2.3664,2.2134,2.2194,2.1664,2.0154,0.0,0.0,0.0,0.0,0.0,0.0,0.0,0.0,0.0,0.0,0.0,0.0,0.0,0.0,0.0,0.0,0.0,0.0,0.0,0.0,0.0,0.0,0.0,0.0,0.0,0.0,0.0,0.0,0.0,0.0,0.0,0.0,0.0,0.0,0.0,0.0,0.0,0.0,0.0,0.0,0.0,0.0,0.0,0.0,0.0,0.0,0.0,0.0,0.0,0.0,0.0,0.0,0.0,0.0,0.0,0.0,0.0,0.0,0.0,0.0,0.0,0.0,0.0,0.0,0.0,0.0,0.0,0.0,0.0,0.0,0.0,0.0,0.0,0.0,0.0,0.0,0.0,0.0,0.0,0.0,0.0,0.0,0.0,0.0,0.0,0.0,0.0,0.0,0.0,0.0,0.0,0.0,0.0,0.0,0.0,0.0,0.0,0.0,0.0,0.0,0.0,0.0,2.419,2.419,2.419,2.419,2.4201,2.359,2.2118,2.2112,2.1576,2.0091,0.0,0.0,0.0,0.0,0.0,0.0,0.0,0.0,0.0,0.0,0.0,0.0,0.0,0.0,0.0,0.0,0.0,0.0,0.0,0.0,0.0,0.0,0.0,0.0,0.0,0.0,0.0,0.0,0.0,0.0,0.0,0.0,0.0,0.0,0.0,0.0,0.0,0.0,0.0,0.0,0.0,0.0,0.0,0.0,0.0,0.0,0.0,0.0,0.0,0.0,0.0,0.0,0.0,0.0,0.0,0.0,0.0,0.0,0.0,0.0,2.5007,0.0,0.0,0.0,0.0,0.0,0.0,0.0,0.0,0.0,0.0,0.0,0.0,0.0,0.0,0.0,0.0,0.0,0.0,0.0,0.0,0.0,0.0,0.0,0.0,0.0,0.0,0.0,0.0,0.0,0.0,0.0,0.0,0.0,0.0,0.0,0.0,0.0,0.0,0.0,0.0,0.0,2.419,2.419,2.419,2.419,2.3686,2.2999,2.2067,2.1573,2.0915,2.0053,2.1137,0.0,0.0,0.0,0.0,0.0,0.0,0.0,0.0,0.0,0.0,0.0,0.0,0.0,0.0,0.0,0.0,0.0,0.0,0.0,0.0,0.0,0.0,0.0,0.0,0.0,0.0,0.0,0.0,0.0,0.0,0.0,0.0,0.0,0.0,0.0,0.0,0.0,0.0,0.0,0.0,0.0,0.0,0.0,0.0,0.0,0.0,0.0,0.0,0.0,0.0,0.0,0.0,0.0,0.0,0.0,0.0,0.0,0.0,0.0,0.0,2.5695,0.0,0.0,0.0,0.0,0.0,0.0,0.0,0.0,0.0,0.0,0.0,0.0,0.0,0.0,0.0,0.0,0.0,0.0,0.0,0.0,0.0,0.0,0.0,0.0,0.0,0.0,0.0,0.0,0.0,0.0,0.0,0.0,0.0,0.0,0.0,0.0,0.0,0.0,0.0,0.0,2.419,2.419,2.419,2.419,2.3851,2.3186,2.2065,2.1696,2.1073,2.0034,2.0915,0.0,0.0,0.0,0.0,0.0,0.0,0.0,0.0,0.0,0.0,0.0,0.0,0.0,0.0,0.0,0.0,0.0,0.0,0.0,0.0,0.0,0.0,0.0,0.0,0.0,0.0,0.0,0.0,0.0,0.0,0.0,0.0,0.0,0.0,0.0,0.0,0.0,0.0,0.0,0.0,0.0,0.0,0.0,0.0,0.0,0.0,0.0,0.0,0.0,0.0,0.0,0.0,0.0,3.1968,3.247,3.2682,3.2682,3.2608,3.2351,3.0368,2.8631,2.7236,2.7079,0.0,0.0,0.0,0.0,0.0,0.0,0.0,0.0,0.0,0.0,0.0,0.0,0.0,0.0,0.0,0.0,0.0,0.0,0.0,0.0,0.0,0.0,0.0,0.0,2.8359,2.7427,2.7537,0.0,0.0,0.0,0.0,0.0,0.0,0.0,0.0,0.0,0.0,0.0,2.4226,2.419,2.419,2.419,2.4081,2.3474,2.2222,2.1957,2.1362,2.0166,2.0776,2.1589,0.0,0.0,0.0,0.0,0.0,0.0,0.0,0.0,0.0,0.0,0.0,0.0,0.0,0.0,0.0,0.0,0.0,0.0,0.0,0.0,0.0,0.0,0.0,0.0,0.0,0.0,0.0,0.0,0.0,0.0,0.0,0.0,2.4016,2.4081,0.0,0.0,0.0,0.0,0.0,0.0,0.0,0.0,0.0,0.0,0.0,0.0,0.0,3.1391,3.1774,3.3306,3.4499,3.5424,3.6216,3.7014,3.7734,3.7734,3.7367,3.6684,3.6354,0.0,2.9659,2.8987,0.0,0.0,0.0,0.0,0.0,0.0,0.0,0.0,0.0,0.0,0.0,0.0,0.0,0.0,0.0,0.0,0.0,0.0,0.0,0.0,0.0,0.0,3.047,3.1369,3.1016,3.0688,0.0,2.8809,2.6429,2.6429,2.6355,0.0,0.0,0.0,0.0,0.0,0.0,0.0,2.43,2.419,2.419,2.419,2.3566,2.3096,2.2964,2.1718,2.0949,2.0871,2.0439,2.0612,2.1541,2.2478,0.0,0.0,0.0,0.0,0.0,0.0,0.0,0.0,0.0,0.0,0.0,0.0,0.0,0.0,0.0,0.0,0.0,0.0,0.0,0.0,0.0,0.0,0.0,0.0,0.0,0.0,0.0,0.0,0.0,2.3788,2.4559,2.5468,2.5583,2.5852,0.0,0.0,0.0,0.0,0.0,0.0,0.0,0.0,0.0,3.303,3.4175,3.5166,3.5841,3.6988,3.7833,3.8291,3.9082,3.9653,3.993,3.993,3.9699,3.9219,3.8745,3.7327,3.5154,3.3145,3.1923,3.1347,0.0,0.0,0.0,0.0,3.2271,3.2306,3.2419,3.2502,3.2543,3.262,0.0,0.0,0.0,0.0,0.0,0.0,0.0,3.1891,0.0,0.0,3.2179,3.3462,3.2973,3.2307,3.2727,3.126,2.9466,0.0,2.7204,2.6602,2.6602,0.0,0.0,0.0,0.0,2.5117,2.43,2.419,2.419,2.419,2.3878,2.3502,2.3059,2.2473,2.1948,2.1577,2.1341,2.167,2.2667,2.3111,2.3797,0.0,0.0,0.0,0.0,0.0,0.0,0.0,0.0,0.0,0.0,0.0,0.0,0.0,0.0,0.0,0.0,0.0,0.0,0.0,0.0,0.0,0.0,0.0,0.0,0.0,0.0,0.0,0.0,2.4878,2.5946,2.743,2.7557,2.7954,0.0,0.0,0.0,0.0,0.0,0.0,3.2262,3.4506,3.6116,3.6791,3.7624,3.8417,3.9186,3.9959,4.0377,4.0427,4.1199,4.1514,4.1426,4.1391,4.1304,4.1107,4.051,4.0022,3.9536,3.6785,3.5172,3.4465,3.4465,3.4371,3.4243,3.4339,3.4355,3.4351,3.4511,3.4573,3.4516,3.4446,3.4213,3.3879,3.3255,0.0,0.0,0.0,0.0,3.3543,3.4463,3.397,3.3543,3.4872,3.43,3.3518,3.3629,3.3072,3.1933,0.0,2.8427,2.753,2.753,0.0,0.0,0.0,0.0,2.5338,2.4337,2.419,2.419,2.419,2.419,2.3942,2.3346,2.317,2.2842,2.232,2.2204,2.2605,2.3578,2.3689,2.4199,2.5141,0.0,0.0,0.0,0.0,0.0,0.0,0.0,0.0,0.0,0.0,0.0,0.0,0.0,0.0,0.0,0.0,0.0,0.0,0.0,0.0,0.0,0.0,0.0,0.0,0.0,0.0,0.0,0.0,0.0,3.0163,3.1622,0.0,0.0,0.0,0.0,3.3896,3.4882,3.5851,3.6828,3.8393,3.9369,3.9589,4.0258,4.0659,4.0796,4.1466,4.1814,4.1814,4.2486,4.2811,4.2811,4.2662,4.2604,4.2585,4.2488,4.1864,4.0756,3.86,3.7682,3.7559,3.7453,3.7345,3.7272,3.7272,3.7327,3.7399,3.7399,3.7541,3.7554,3.6797,3.6007,3.5365,3.5178,3.5062,0.0,0.0,3.4729,3.4656,3.4488,3.4361,3.4501,3.5227,3.4923,3.4531,3.4623,3.3697,3.2526,0.0,3.0564,3.0026,3.0026,0.0,2.8363,2.6785,2.6539,2.5988,2.441,2.419,2.419,2.419,2.419,2.419,2.4153,2.3456,2.3023,2.3038,2.2386,2.2428,2.3394,2.3537,2.4061,2.5006,2.5895,0.0,0.0,0.0,0.0,0.0,0.0,0.0,0.0,0.0,0.0,0.0,0.0,0.0,0.0,0.0,0.0,0.0,0.0,0.0,0.0,0.0,0.0,0.0,0.0,0.0,0.0,0.0,0.0,3.3478,3.4287,0.0,3.6214,3.5965,3.6266,3.7555,3.8554,3.9289,3.963,4.1148,4.1806,4.1345,4.1957,4.2268,4.2214,4.2321,4.2408,4.2332,4.2602,4.2613,4.2438,4.2398,4.2236,4.2002,4.1959,4.1633,4.1042,4.0235,3.9426,3.8726,3.877,3.8746,3.8607,3.8746,3.8726,3.8667,3.877,3.877,3.8715,3.8547,3.7981,3.7304,3.7267,3.721,3.7097,3.6845,3.6786,3.6706,3.6374,3.5953,3.5682,3.5877,3.5902,3.5634,3.477,3.4412,3.3865,3.2505,3.1465,3.062,3.0086,2.982,2.9136,2.7537,2.735,2.6796,2.5191,2.497,2.4787,2.4263,2.419,2.419,2.419,2.3952,2.3787,2.3796,2.3619,2.3631,2.4037,2.469,2.5235,2.5552,2.6555,2.7044,0.0,0.0,0.0,0.0,0.0,0.0,0.0,0.0,0.0,0.0,0.0,0.0,0.0,0.0,0.0,0.0,0.0,0.0,0.0,0.0,0.0,0.0,0.0,0.0,0.0,0.0,3.4572,3.6941,3.7814,3.864,3.9814,3.9534,3.984,4.1099,4.1857,4.2365,4.2639,4.3649,4.3925,4.3377,4.3613,4.3696,4.3563,4.3057,4.2808,4.2783,4.2394,4.2107,4.1945,4.186,4.1644,4.1403,4.138,4.1244,4.1024,4.0965,4.0366,3.9601,3.9852,3.9909,3.98,3.9917,3.9909,3.98,3.9939,3.9742,3.9481,3.9596,3.9091,3.8438,3.8362,3.8362,3.8335,3.8082,3.804,3.7997,3.7636,3.7009,3.6482,3.6429,3.6376,3.6001,3.4837,3.4625,3.4305,3.3123,3.2067,3.1206,3.069,3.0457,2.9855,2.8263,2.8077,2.7537,2.5936,2.5774,2.5564,2.5041,2.4987,2.4997,2.4997,2.4997,2.5007,2.5,2.5085,2.5143,2.5181,2.5828,2.6206,2.625,2.7436,2.8361,2.8918,0.0,0.0,0.0,0.0,0.0,0.0,0.0,0.0,0.0,0.0,0.0,0.0,0.0,0.0,0.0,0.0,0.0,0.0,0.0,0.0,0.0,0.0,0.0,3.3077,3.5873,3.8635,4.0509,4.2178,4.3251,4.336,4.3432,4.3814,4.462,4.4729,4.5112,4.5883,4.5865,4.5753,4.5621,4.5269,4.5045,4.4884,4.3728,4.312,4.3098,4.199,4.1461,4.1438,4.1186,4.1047,4.1047,4.0987,4.0868,4.0724,4.0724,4.0544,4.0313,4.0728,4.0871,4.0871,4.0871,4.0871,4.0894,4.0954,4.0493,3.9927,3.9927,3.9385,3.8753,3.8606,3.8561,3.8539,3.8482,3.846,3.8357,3.8091,3.75,3.691,3.6818,3.6322,3.563,3.4955,3.4377,3.38,3.3118,3.24,3.19,3.1953,3.1375,3.0432,2.8989,2.8809,0.0,2.6709,2.6556,2.66,2.6563,2.6643,2.6675,2.6675,2.6675,2.6675,2.6675,2.6728,2.6712,2.6712,2.6824,2.6941,2.7063,2.8639,3.0255,3.1885,0.0,0.0,0.0,0.0,0.0,0.0,0.0,0.0,0.0,0.0,0.0,0.0,0.0,0.0,0.0,0.0,0.0,0.0,0.0,0.0,0.0,0.0,3.6499,3.6669,3.9045,4.1451,4.3287,4.4437,4.5095,4.5187,4.5223,4.5553,4.636,4.6452,4.6526,4.6746,4.6555,4.6124,4.5408,4.4946,4.4671,4.4541,4.4076,4.3789,4.3663,4.3173,4.2832,4.2614,4.2442,4.2268,4.2091,4.2074,4.1691,4.1053,4.1053,4.0688,4.0188,4.0485,4.0558,4.0461,4.0583,4.0607,4.0607,4.0534,4.0422,4.0347,4.0347,4.0209,4.0014,3.9956,3.9932,3.9942,3.9798,3.9399,3.8942,3.8764,3.8173,3.7496,3.6931,3.6695,3.6242,3.4984,3.4309,3.3682,3.2945,3.2276,3.1776,3.1544,3.1525,3.1218,3.0296,3.0314,0.0,2.9063,2.9028,2.8893,2.8296,2.8281,2.8326,2.8326,2.8326,2.8326,2.8326,2.7798,2.7515,2.7515,2.8143,2.9067,3.0376,3.0843,3.131,0.0,0.0,0.0,0.0,0.0,0.0,0.0,0.0,0.0,0.0,0.0,0.0,0.0,0.0,0.0,0.0,0.0,0.0,0.0,0.0,0.0,0.0,3.7467,3.9895,4.1159,4.2595,4.4072,4.5498,4.636,4.6855,4.6911,4.6911,4.7095,4.7553,4.759,4.759,4.759,4.7395,4.6957,4.6323,4.5889,4.5628,4.5494,4.488,4.4554,4.4401,4.367,4.3187,4.2945,4.2766,4.255,4.2426,4.2426,4.2129,4.1644,4.1339,4.0933,0.0,0.0,0.0,0.0,0.0,4.0337,4.0337,4.0238,4.0263,4.0337,4.0337,4.0337,4.0337,4.0337,4.0337,4.0313,4.0238,3.9908,3.9544,3.9469,3.8903,3.8261,3.7821,3.7282,3.6616,3.5745,3.4836,3.4021,3.3523,3.2975,0.0,3.2313,3.2124,3.1746,3.1102,3.1138,3.1016,3.0301,3.0305,3.0386,3.0329,3.0429,3.0491,3.0528,3.0491,0.0,0.0,0.0,2.9304,2.9304,3.0135,0.0,0.0,0.0,3.3252,3.3633,0.0,0.0,0.0,3.3807,3.4028,0.0,0.0,0.0,0.0,0.0,0.0,0.0,0.0,0.0,0.0,0.0,0.0,0.0,0.0,0.0,0.0,4.0564,4.3087,4.5607,4.6011,4.6378,4.7149,4.7846,4.8306,4.8306,4.8287,4.8287,4.8287,4.8267,4.8267,4.8287,0.0,0.0,0.0,0.0,4.7133,4.702,4.5964,4.5376,4.5233,4.394,4.3202,4.2953,4.269,4.2557,4.2557,4.2557,4.2489,4.2354,4.1711,4.1373,4.1136,4.0383,4.0113,4.0113,4.0113,4.0113,4.0113,4.0113,0.0,0.0,4.0113,4.0113,4.0113,4.0113,4.0113,4.0113,4.0113,4.0113,4.0113,4.0113,3.9639,3.9106,3.9005,3.8014,3.7032,3.6931,3.5712,3.4607,3.4607,3.405,3.3611,3.368,3.2998,3.2249,3.1802,3.1808,3.1687,3.1133,3.1218,3.1679,3.2581,0.0,0.0,3.2983,3.2983,3.2667,3.1959,3.1861,3.1788,3.1788,3.2485,3.3243,3.4064,3.4784,3.5518,3.6303,3.6303,3.634,3.6427,3.5662,3.5662,0.0,0.0,0.0,0.0,0.0,0.0,0.0,0.0,0.0,0.0,0.0,0.0,0.0,0.0,0.0,4.0745,4.3269,4.5367,4.6577,4.7386,4.7883,4.803,4.8233,4.8306,4.8306,4.8265,4.8226,4.8226,4.8111,4.8092,4.8226,4.7927,4.7741,4.7699,4.7356,4.7178,4.7156,4.6612,4.6283,4.6128,0.0,0.0,4.4551,4.4279,4.4175,4.4175,4.4175,4.3775,4.32,4.3003,4.2286,4.1136,4.0383,4.0113,4.0113,4.0113,4.0113,4.0113,4.0113,4.0113,4.0113,4.0113,4.0113,4.0113,4.0113,4.0113,0.0,4.0113,4.0113,4.0113,4.0113,4.0011,3.974,3.914,3.8768,3.8396,3.7821,3.6502,3.5363,3.5363,3.4336,3.3486,3.3611,3.3736,3.379,3.3728,3.404,3.4199,3.4075,3.436,3.4679,3.4871,3.5013,3.5136,3.5263,3.5263,3.525,3.5176,3.4646,3.4307,3.4307,3.4454,3.4931,3.5789,3.5973,3.6119,3.6303,3.6303,3.6633,3.7235,3.6464,3.617,0.0,0.0,0.0,0.0,0.0,0.0,0.0,0.0,0.0,0.0,0.0,3.6817,0.0,0.0,4.1359,4.3452,4.524,4.6651,4.7532,4.8011,4.8306,4.8306,4.8306,4.8306,4.8306,4.8246,4.8187,4.8187,4.8088,4.8052,4.8187,4.7988,4.7866,4.7866,4.7593,4.7421,4.7356,4.6962,4.6661,4.6398,4.5879,4.5441,4.5069,4.4831,4.4692,4.4726,4.4643,4.435,4.3978,4.3572,4.276,4.1677,4.0933,4.0392,4.0113,4.0113,4.0113,4.0113,4.0113,4.0113,4.0113,4.0113,4.0113,4.0113,4.0113,4.0113,4.0113,4.0113,4.0113,4.0113,4.0113,4.0113,4.0011,3.9639,3.9276,3.8903,3.8531,3.755,3.6749,3.6749,3.6163,3.5577,3.527,3.5386,3.5242,3.4249,3.4291,3.4447,3.4579,3.4782,3.5172,3.5791,3.5928,3.6062,3.623,3.5949,3.5856,3.6024,3.5747,3.5585,3.5628,3.6399,3.7074,3.7477,3.8285,3.8689,3.8689,3.8689,3.8909,3.9276,3.8909,3.8285,0.0,0.0,0.0,0.0,0.0,0.0,0.0,0.0,3.6982,3.6982,3.8407,4.0035,4.1314,4.2337,4.367,4.5718,4.6725,4.7459,4.7993,4.8086,4.7993,4.7827,4.8103,4.8306,4.8306,4.8226,4.8168,4.8168,4.8012,4.8008,4.8128,4.8028,4.7951,4.7992,4.7804,4.7657,4.7551,4.7201,4.6801,4.6447,4.597,4.5667,4.5524,4.52,4.5063,4.509,4.476,4.4643,4.4547,4.3741,4.3064,4.2422,4.1711,4.1035,4.0485,4.0214,4.0113,4.0113,4.0113,4.0113,4.0113,4.0113,4.0113,4.0113,4.0113,4.0113,4.0113,4.0113,4.0113,4.0113,4.0113,4.0113,4.0113,4.0113,3.9673,3.9208,3.9208,3.8633,3.8125,3.8125,3.799,3.7719,3.7134,3.7068,3.6469,3.4527,3.4302,3.4424,3.4649,3.4731,3.5171,3.6143,3.6431,3.6719,3.7095,3.6782,3.6604,3.6801,3.6926,3.7034,3.7131,3.8423,3.9135,3.9135,4.0435,4.1095,4.1095,4.1095,4.1095,4.1095,4.1095,4.0398,3.1165,3.2238,3.372,3.4513,3.5848,3.7147,0.0,0.0,4.0529,4.0529,4.2362,4.405,4.4233,4.5517,4.6617,4.691,4.7626,4.7957,4.7333,4.7223,4.6947,4.6176,4.7405,4.8306,4.8306,4.8131,4.8012,4.8012,4.7845,4.7783,4.7922,4.7819,4.7824,4.7992,4.7804,4.7678,4.7678,4.7245,4.6847,4.6566,4.592,4.597,4.6611,4.6145,4.6007,4.6083,4.5158,4.4692,4.4547,4.3741,4.3341,4.3172,4.2455,4.2117,4.1907,4.0587,4.0113,4.0113,4.0113,4.0113,4.0113,4.0113,4.0113,4.0113,4.0113,4.0113,4.0113,4.0113,4.0113,4.0113,4.0113,4.0113,4.0113,4.0113,4.0045,3.9977,3.9977,3.9377,3.887,3.887,3.8362,3.7889,3.7787,3.7787,3.7293,3.58,3.5779,3.5929,3.5971,3.616,3.6318,3.6449,3.7123,3.7971,3.9015,3.9339,3.9568,3.9697,3.9967,4.0088,4.0124,4.0457,4.0667,4.0667,4.0952,4.1095,4.1095,4.1095,4.1095,4.1095,4.1095,4.0985,3.3169,3.4205,3.5569,0.0,3.8395,3.9827,4.0598,4.2029,4.3187,4.3187,4.4378,4.5553,4.6012,4.6269,4.6544,0.0,4.6985,4.6801,4.6471,4.6397,4.625,4.5864,4.6396,4.6981,4.74,4.7338,4.7498,4.7911,4.7845,4.784,4.7881,4.784,4.7886,4.8128,4.7907,4.7783,4.7767,4.732,4.702,4.6836,4.6783,4.692,4.7235,4.7192,4.6749,4.6026,4.5165,4.472,4.4581,4.4215,4.4079,4.4012,4.3234,4.2963,4.2828,4.1745,4.1399,4.1331,4.0865,4.073,4.0663,4.0248,4.0383,4.073,4.073,4.1035,4.1399,4.1399,4.1399,4.1297,4.0832,4.073,4.0629,4.0214,4.0113,4.0113,4.0113,3.9876,3.9639,3.9639,3.9402,3.9039,3.8599,3.8531,3.8217,3.718,3.7137,3.7195,3.7229,3.7319,3.743,3.7597,3.7948,3.8434,3.9062,3.9376,3.968,4.0009,4.0274,4.0492,4.0598,4.1262,4.1674,4.1674,4.2199,4.2506,4.2506,4.2506,4.2506,4.2506,4.2506,4.2506,3.4942,3.6018,0.0,3.9239,4.0744,4.2029,4.3057,4.4195,4.5039,4.5039,4.548,4.6067,4.6636,4.6287,4.6104,4.6672,4.6287,4.581,4.559,4.5553,4.537,4.4803,4.4931,4.524,4.5651,4.6345,4.6981,4.7497,4.7674,4.7798,4.7798,4.7798,4.7886,4.8148,4.7963,4.7824,4.7793,4.7407,4.7286,4.7387,4.7558,4.7908,4.8321,4.8111,4.7382,4.6221,4.5267,4.4748,4.4615,4.4615,4.4615,4.4547,4.3944,4.3741,4.3673,4.3132,4.2658,4.2219,4.1677,4.1508,4.1407,4.0891,4.1068,4.1508,4.1508,4.188,4.2286,4.2286,4.2286,4.2185,4.1644,4.1508,4.1373,4.0857,4.0722,4.0722,4.0722,4.0722,4.0722,4.0722,4.0553,4.0223,3.9681,3.9445,3.9106,3.8599,3.8497,3.8386,3.8007,3.7963,3.8112,3.8538,3.8654,3.886,3.9294,3.956,3.9863,4.0238,4.0558,4.0828,4.0997,4.1887,4.2376,4.2465,4.31,4.348,4.3515,4.3515,4.3515,4.3515,4.3515,4.3515,0.0,0.0,3.9203,4.1589,4.28,4.3828,4.5443,4.581,4.5847,4.5847,4.5883,4.592,4.592,4.592,4.592,4.592,4.592,4.5626,4.4856,4.4745,4.4088,4.2338,4.2813,4.3178,0.0,4.5223,4.6662,4.654,4.7124,4.7493,4.7493,4.7493,4.7663,4.7992,4.7824,4.7762,4.7793,4.7457,4.7649,4.836,4.7974,4.8671,5.0165,4.895,4.7966,4.7142,4.5672,4.4831,4.4615,4.4615,4.4615,4.4615,4.4581,4.4581,4.4581,4.4547,4.3572,4.2286,4.2252,4.2252,4.2252,4.2219,4.2252,4.2252,4.2252,4.2286,4.2286,4.2286,4.2286,4.2286,4.2252,4.2252,4.2252,4.2219,4.2219,4.2219,4.2219,4.2219,4.2219,4.2219,4.1644,4.117,4.1136,4.0527,4.0079,4.0045,4.0045,3.9537,3.8091,3.7889,3.8159,3.8894,3.9093,3.9511,4.0373,4.0744,4.1001,4.1162,4.1609,4.1909,4.2071,4.2462,4.2808,4.3068,4.3305,4.3447,4.3515,4.3515,4.3515,4.3515,4.3515,4.3515,3.7969,0.0,4.1552,4.3424,4.4874,4.5883,4.5883,4.6324,4.6379,4.5333,4.4672,4.4121,4.3608,4.3094,4.2727,4.2727,4.3167,4.3424,4.3167,4.3571,4.3683,4.3011,4.3176,0.0,0.0,0.0,0.0,4.6118,4.6491,4.6909,4.7349,4.7551,4.7762,4.7992,4.7931,4.8186,4.8855,4.8524,4.8808,4.9683,4.9674,5.0023,5.0568,4.8951,4.7885,4.7238,4.6107,4.5495,4.5365,4.5838,4.6041,4.6007,4.55,4.5331,4.5331,4.5331,4.4993,4.4418,4.3403,4.3031,4.2963,4.2455,4.2963,4.3735,4.32,4.3741,4.4451,4.3944,4.3836,4.3673,4.3166,4.3031,4.2929,4.2422,4.2286,4.2286,4.2286,4.2286,4.2286,4.2286,4.2083,4.1779,4.1271,4.1001,4.0663,4.018,4.0113,3.991,3.9436,3.9343,3.9445,3.9706,3.984,4.0065,4.0451,4.0847,4.1175,4.1471,4.1809,4.2148,4.243,4.2691,4.2939,4.316,4.3341,4.341,4.3515,4.3515,4.3515,4.3515,4.3515,4.3515,4.0081,4.1869,4.3534,4.5168,4.6122,4.6599,4.6397,4.5847,4.5021,4.37,4.2323,4.1128,4.0304,3.9974,3.99,4.0178,4.1148,4.1992,4.2249,4.2983,4.337,4.3027,4.3229,4.3305,0.0,0.0,0.0,4.548,4.6176,4.6924,4.7679,4.7926,4.8327,4.8928,4.8846,4.9122,4.9752,4.9401,4.9617,5.0298,5.0761,5.0844,5.0522,4.9067,4.8128,4.7534,4.6669,4.622,4.6143,4.6583,4.6786,4.6752,4.6278,4.6075,4.6075,4.6075,4.6075,4.594,4.4959,4.4621,4.4553,4.4045,4.4553,4.5263,4.479,4.5331,4.5974,4.55,4.5393,4.5263,4.4756,4.4621,4.4519,4.4012,4.391,4.391,4.391,4.3707,4.3504,4.3504,4.3064,4.2557,4.2083,4.1576,4.1035,4.0561,4.0282,4.0113,4.0113,4.0113,4.0113,4.0113,4.0213,4.0337,4.0412,4.081,4.114,4.1335,4.1635,4.2016,4.2308,4.2534,4.2806,4.3105,4.3251,4.3375,4.3515,4.3515,4.3515,4.3515,4.3515,4.3515,4.2001,4.3665,4.5315,4.6856,4.6617,4.6177,4.6819,4.4525,4.1992,4.1095,3.8946,3.7015,0.0,0.0,3.7529,3.8358,3.9921,4.1315,4.2176,4.302,4.326,0.0,0.0,0.0,0.0,0.0,0.0,4.4907,0.0,4.7456,4.8529,4.8698,4.9321,5.0566,5.0393,5.0365,5.0472,5.0198,5.0103,5.0378,5.1114,5.1026,5.0171,4.9375,4.8655,4.8039,4.7359,4.6966,4.6853,4.6887,4.6921,4.6887,4.6853,4.6853,4.6853,4.6853,4.6887,4.6921,4.6921,4.6853,4.6786,4.6786,4.6819,4.6853,4.6819,4.6819,4.6853,4.6819,4.6786,4.6786,4.6786,4.6786,4.6786,4.6786,4.6786,4.6786,4.6786,4.6244,4.5771,4.5771,4.4525,4.3511,4.3443,4.2286,4.1305,4.1271,4.0663,4.018,4.0113,4.0113,4.0113,4.0113,4.0213,4.0288,4.0313,4.068,4.0918,4.0918,4.1244,4.1538,4.1801,4.2142,4.251,4.2901,4.3087,4.3304,4.3515,4.3515,4.3515,4.3515,4.3515,4.3515,4.526,4.7039,4.8379,4.8857,4.8306,4.7278,4.5682,4.3297,4.0855,3.8836,3.5973,3.3807,0.0,0.0,0.0,3.5701,3.8358,0.0,4.2103,4.3497,0.0,4.4911,0.0,4.5205,4.5058,4.6025,0.0,0.0,4.6994,4.7833,4.932,4.9661,5.0053,5.0566,5.0561,5.0832,5.1417,5.1547,5.1455,5.1185,5.1121,5.0803,5.0171,4.9177,4.8454,4.8073,4.7789,4.7661,4.7665,4.8206,4.8443,4.8376,4.7834,4.7631,4.7631,4.7631,4.797,4.8443,4.8443,4.7699,4.6786,4.6786,4.7158,4.753,4.6955,4.7192,4.7496,4.6955,4.6786,4.6786,4.6786,4.6786,4.6786,4.6786,4.6786,4.6786,4.6786,4.665,4.6515,4.6515,4.5771,4.4959,4.4384,4.3504,4.2658,4.2083,4.1847,4.1365,4.0248,4.0113,4.0113,4.0113,4.0313,4.0485,4.0583,4.0942,4.1186,4.1403,4.1604,4.1845,4.2163,4.2308,4.2609,4.3049,4.3142,4.3304,4.3515,4.3515,4.3515,4.3515,4.3515,4.3515,4.7645,4.9114,4.9994,4.9684,4.8416,4.6728,4.4635,4.1168,3.783,3.5752,3.2742,0.0,3.0503,0.0,0.0,0.0,0.0,0.0,4.2029,4.3681,4.5002,0.0,4.5883,0.0,4.6304,4.7203,4.8037,0.0,4.8385,4.8834,5.0308,5.0627,5.1049,5.1726,5.1642,5.1675,5.1928,5.2087,5.192,5.1393,5.1158,5.0757,5.0171,4.9436,4.888,4.8583,4.8436,4.8376,4.8443,4.9187,4.9492,4.9458,4.939,4.9325,4.9325,4.9325,4.9596,4.9965,4.9965,4.9424,4.8612,4.797,4.8037,4.8308,4.7902,4.8274,4.8781,4.8342,4.8477,4.8748,4.8748,4.8477,4.824,4.824,4.8003,4.7767,4.7767,4.7496,4.7192,4.6853,4.6481,4.6041,4.5635,4.4925,4.4181,4.3403,4.2997,4.2354,4.123,4.1094,4.0959,4.0697,4.0839,4.0935,4.0786,4.1024,4.1277,4.1493,4.1648,4.1845,4.2178,4.2287,4.257,4.2994,4.3142,4.3304,4.3515,4.3515,4.3515,4.3515,4.3515,4.3515,4.95,5.0508,5.0912,5.0014,4.7865,4.5553,4.3608,3.8872,3.4344,3.2619,0.0,2.7504,2.7603,2.8851,3.0687,3.3073,0.0,3.9276,4.1809,4.3644,4.5039,4.5957,4.614,4.647,4.7109,4.7889,4.8883,5.0162,5.0055,5.0397,5.1425,5.1631,5.2134,5.3146,5.2952,5.2581,5.2174,5.2126,5.1822,5.135,5.1193,5.0819,5.0235,4.9884,4.953,4.9199,4.9046,4.9052,4.9187,4.983,5.0135,5.0304,5.0947,5.1185,5.1185,5.1185,5.1285,5.1352,5.1219,5.1285,5.115,4.9763,4.9289,4.9289,4.9289,4.9729,5.0236,5.0236,5.071,5.1185,5.1185,5.0744,5.0236,5.0236,4.9695,4.9154,4.9154,4.8578,4.7868,4.7225,4.709,4.7056,4.6955,4.6413,4.5737,4.5021,4.4215,4.3443,4.2828,4.2516,4.2129,4.1639,4.1724,4.1641,4.1173,4.1337,4.1473,4.1515,4.1626,4.178,4.203,4.2246,4.2514,4.2901,4.3142,4.3322,4.3515,4.3625,4.3625,4.3515,4.3735,4.3681,5.1316,5.216,5.2454,5.0949,4.8746,4.5938,4.2343,3.7624,0.0,0.0,2.8044,2.6035,2.6686,2.7567,2.901,3.1433,0.0,0.0,0.0,0.0,4.5241,0.0,0.0,0.0,0.0,0.0,0.0,0.0,5.1595,5.2308,5.252,5.2689,5.2849,5.3002,5.2872,5.2672,5.241,5.2222,5.192,5.1561,5.1305,5.0884,5.0341,5.0022,4.9615,4.9199,4.9046,0.0,4.9898,5.0033,5.0473,5.1048,5.1151,5.1185,5.1185,5.1185,5.1589,5.2029,5.1388,5.1623,5.1961,5.1116,5.0845,5.0845,5.0845,5.0913,5.1014,5.1014,5.1083,5.1185,5.1185,5.1116,5.1014,5.1014,5.0439,4.9898,4.9898,4.9323,4.8781,4.8646,4.8612,4.8409,4.7804,4.7601,4.7293,4.6515,4.5771,4.5263,4.5128,4.3545,4.2456,4.2475,4.2806,4.284,4.2415,4.2607,4.2603,4.2178,4.2163,4.2225,4.2348,4.2534,4.2768,4.3067,4.3269,4.3393,4.3515,4.4158,4.4158,4.3551,4.4856,4.4782,5.1646,5.227,5.2197,5.0545,4.7645,4.4268,4.0655,0.0,0.0,0.0,2.6722,2.5007,2.5852,0.0,0.0,0.0,0.0,0.0,0.0,0.0,0.0,0.0,0.0,0.0,0.0,0.0,5.0265,5.0648,5.1742,5.2556,5.2893,5.3039,5.3082,5.298,5.2915,5.2783,5.2559,5.2421,5.2233,5.1957,5.1687,5.128,5.0694,5.0215,4.9762,4.9354,4.9514,4.9763,5.0135,5.0913,5.1454,5.1826,5.2232,5.2401,5.2401,5.2401,5.2638,5.2875,5.2536,5.2638,5.2875,5.2536,5.186,5.1185,5.1185,5.1488,5.1792,5.1792,5.2097,5.2401,5.2401,5.2097,5.1792,5.1792,5.1217,5.0676,5.0676,5.0405,5.0033,4.9661,4.956,4.9323,4.8612,4.8477,4.824,4.7496,4.709,4.6718,4.6312,4.5495,4.4558,4.3528,4.3724,4.3785,4.3464,4.3244,4.3073,4.2977,4.2568,4.2414,4.2554,4.3126,4.3517,4.3761,4.4346,4.4693,4.4745,4.5149,4.5149,4.4782,4.5553,4.548,5.1279,5.172,5.1389,4.9884,4.6471,4.258,3.9019,3.4027,0.0,0.0,2.5621,2.4373,2.5044,0.0,2.7016,0.0,0.0,0.0,0.0,0.0,0.0,0.0,0.0,0.0,0.0,0.0,0.0,5.0729,5.172,5.2485,5.3023,5.3124,5.3146,5.306,5.3002,5.2893,5.268,5.2635,5.2559,5.2351,5.2066,5.1612,5.1008,5.0384,4.9878,4.9539,4.9918,5.0168,5.0439,5.1758,5.2401,5.2638,5.3247,5.3518,5.3518,5.3518,5.3518,5.3518,5.3518,5.3518,5.3518,5.3518,5.2706,5.1691,5.1691,5.2097,5.257,5.257,5.301,5.3518,5.3518,5.3044,5.2503,5.2334,5.186,5.1386,5.1219,5.1185,5.1048,5.0439,5.0202,4.9898,4.9323,4.912,4.8815,4.821,4.8034,4.7729,4.7149,4.7203,4.6672,4.5111,4.5018,4.4907,4.4516,4.4037,4.3815,4.3991,4.34,4.3156,4.3295,4.4063,4.456,4.471,4.5425,4.5847,4.5883,4.6067,4.6067,4.592,4.625,4.6214,5.0435,5.0912,5.0692,4.9738,4.6471,4.2249,3.7588,0.0,0.0,2.6256,2.486,2.4226,2.43,2.497,0.0,0.0,0.0,3.1384,0.0,0.0,0.0,0.0,0.0,0.0,0.0,0.0,0.0,5.0729,5.2234,5.313,5.3167,5.3167,5.3167,5.3203,5.3082,5.298,5.2959,5.285,5.2717,5.2568,5.2233,5.1772,5.1175,5.0439,4.9878,4.9539,4.9918,5.0473,0.0,5.1961,5.2739,5.3416,5.3484,5.3518,5.3518,5.3518,5.3518,5.3518,5.3518,5.3518,5.3518,5.3518,5.3416,5.3281,5.3281,5.3348,5.3382,5.3382,5.345,5.3518,5.3518,5.345,5.3213,5.2469,5.2266,5.2029,5.132,5.1185,5.1151,5.1116,5.0574,5.0067,4.9999,4.9424,4.8984,4.8917,4.8429,4.8044,4.7976,4.7769,4.7624,4.758,4.7256,4.6667,4.573,4.5795,4.575,4.5372,4.5282,4.5249,4.5328,4.5532,4.5644,4.5663,4.5828,4.5883,4.5883,4.6636,4.6599,4.592,4.7388,4.7315,4.7865,4.8911,4.8967,4.7645,4.4305,4.021,3.5789,0.0,2.8117,2.5852,2.475,2.419,2.419,2.4456,2.4934,0.0,0.0,0.0,0.0,0.0,0.0,0.0,0.0,0.0,0.0,0.0,4.937,5.0692,5.2307,5.3203,5.3203,5.3203,5.3203,5.3203,5.3146,5.3082,5.298,5.2937,5.2783,5.2549,5.2246,5.1747,5.1061,5.053,5.0299,5.0373,5.0754,5.1378,0.0,5.2739,5.3213,5.3518,5.3518,5.3518,5.3518,5.3518,5.3518,5.3518,5.3518,5.3518,5.3518,5.3518,5.3518,5.3518,5.3518,5.3518,5.3518,5.3518,5.3518,5.3518,5.3518,5.3518,5.3416,5.3112,5.301,5.2942,5.2672,5.2604,5.2435,5.1961,5.1623,5.115,5.0236,4.9958,4.9681,4.9175,4.9078,4.9086,4.9086,4.9131,4.9069,4.8722,4.7971,4.7413,4.7201,4.6578,4.623,4.6289,4.5819,4.564,4.5754,4.6304,4.658,4.658,4.7076,4.7352,4.7352,4.7663,4.7682,4.7352,4.8012,4.7976,4.4434,4.5902,4.625,4.5112,4.1992,3.8117,0.0,0.0,2.7284,2.5411,2.4603,2.419,2.419,2.419,2.4383,2.4934,0.0,2.8191,0.0,0.0,0.0,0.0,0.0,4.5315,0.0,4.8306,4.9517,5.0729,5.2307,5.3203,5.3203,5.3203,5.3203,5.3203,5.3203,5.3124,5.298,5.298,5.2842,5.2516,5.2222,5.1772,5.1149,5.0667,5.0645,5.103,5.1418,5.1947,0.0,5.3246,5.3518,5.3518,5.3518,5.3518,5.3518,5.3518,5.3518,5.3518,5.3518,5.3518,5.3518,5.3518,5.3518,5.3518,5.3518,5.3518,5.3518,5.3518,5.3518,5.3518,5.3518,5.3518,5.3518,5.3518,5.3518,5.3518,5.3518,5.3518,5.3348,5.2773,5.2469,5.1961,5.0913,5.0733,5.0552,5.0005,5.0129,5.0223,5.0281,5.0446,5.0375,4.9897,4.9033,4.8506,4.8449,4.7747,4.7449,4.7842,4.7136,4.6814,4.6985,4.7315,4.7443,4.7443,4.8012,4.8306,4.8306,4.8306,4.8306,4.8306,4.8306,4.8306,4.0288,4.1772,4.2359,4.2359,3.9916,3.6464,0.0,0.0,2.7137,2.4704,2.419,2.419,2.419,2.419,2.419,2.419,2.5548,0.0,2.8803,0.0,0.0,0.0,0.0,4.5315,4.6929,4.9334,5.0765,5.0802,5.2307,0.0,5.3203,5.3203,5.3203,5.3203,5.3203,5.3124,5.298,5.298,5.2842,5.2516,5.2222,5.1871,5.147,5.0857,5.0837,5.132,5.1569,5.2043,0.0,5.3246,5.3518,5.3518,5.3518,5.3518,5.3518,5.3518,5.3518,5.3518,5.3518,5.3518,5.3518,5.3518,5.3518,5.3518,5.3518,5.3518,5.3518,5.3518,5.3518,5.3518,5.3518,5.3518,5.3518,5.3518,5.3518,5.3518,5.3518,5.3518,5.3518,5.3484,5.2841,5.23,5.2266,5.1853,5.1503,5.1657,5.1553,5.154,5.1675,5.1494,5.1398,5.1398,5.0972,5.0283,4.9388,4.9634,4.9995,5.032,4.9715,4.9398,4.9574,4.8746,4.8306,4.8306,4.8306,4.8306,4.8306,4.8306,4.8306,4.8306,4.8306,4.8306,3.6215,3.7955,3.8888,3.8322,3.6156,3.3366,3.0418,0.0,2.5778,2.4483,2.419,2.419,2.419,2.419,2.4373,2.4934,2.5915,0.0,0.0,0.0,0.0,0.0,0.0,4.614,0.0,0.0,4.9978,4.9978,5.0949,5.1793,5.2344,5.238,5.2637,5.3167,5.3203,5.3082,5.285,5.285,5.2708,5.2376,5.2174,5.192,5.1561,5.1201,5.156,5.2485,5.217,5.2691,5.3864,5.3681,5.3717,5.385,5.3684,5.3617,5.3651,5.3517,5.3518,5.3518,5.3518,5.3518,5.3518,5.3518,5.3518,5.3518,5.3518,5.3518,5.3518,5.3518,5.3518,5.3518,5.3518,5.3518,5.3518,5.3518,5.3518,5.3518,5.3518,5.3518,5.3517,5.3617,5.3414,5.314,5.2762,5.2777,5.2685,5.2317,5.2538,5.2853,5.2984,5.3096,5.2977,5.2478,5.2369,5.1837,5.0628,5.0222,5.0199,5.0519,5.0325,5.0297,5.0398,4.9627,4.9206,4.9206,4.86,4.86,4.9206,4.9206,4.9481,5.0031,5.0031,5.0031,0.0,3.3733,3.4628,3.41,3.2619,0.0,0.0,0.0,2.5154,2.4373,2.419,2.419,2.419,2.4456,2.4824,2.5301,2.6576,2.8253,0.0,0.0,0.0,0.0,0.0,0.0,0.0,4.9077,4.961,4.961,5.0362,5.1169,5.194,5.1977,5.238,5.3167,5.3203,5.3082,5.2872,5.2828,5.2686,5.2364,5.2222,5.2066,5.186,5.1586,5.213,5.3288,5.2654,5.3229,0.0,5.4076,5.4013,5.4175,5.3946,5.3882,5.3783,5.3651,5.3551,5.3518,5.3518,5.3518,5.3518,5.3518,5.3518,5.3518,5.3518,5.3518,5.3518,5.3518,5.3518,5.3518,5.3518,5.3518,5.3518,5.3518,5.3518,5.3518,5.3518,5.3517,5.3618,5.3783,5.3848,5.3809,5.3621,5.3804,5.394,5.3718,5.3894,5.4161,5.4394,5.4404,5.4223,5.3806,5.358,5.3122,5.2331,5.152,5.118,5.1496,5.1266,5.1181,5.1242,5.0472,5.0031,5.0031,4.9517,4.9517,5.0031,5.0031,5.0288,5.0802,5.0802,5.0802,0.0,2.928,0.0,0.0,0.0,0.0,0.0,0.0,0.0,2.4337,2.419,2.419,2.419,2.486,2.5411,2.5485,2.7457,2.9574,0.0,3.4468,0.0,0.0,4.6122,0.0,4.8233,4.904,4.95,4.95,5.0178,5.0986,5.1793,5.1867,5.227,5.3115,5.3167,5.3124,5.298,5.285,5.2694,5.2503,5.2364,5.2317,5.2304,5.2054,5.258,0.0,5.3085,5.3589,5.4741,5.4428,5.4397,5.4557,5.4365,5.4173,5.4013,5.3816,5.3617,5.3484,5.3518,5.3518,5.3518,5.3518,5.3518,5.3518,5.3518,5.3518,5.3518,5.3518,5.3518,5.3518,5.3518,5.3518,5.3518,5.3518,5.3518,5.3518,5.3518,5.3618,5.3783,5.398,5.4141,5.433,5.471,5.4926,5.5199,5.5601,5.5459,5.5463,5.5877,5.5474,5.5218,5.5262,5.4629,5.42,5.4275,5.3257,5.2761,5.298,5.2428,5.2087,5.2087,5.1316,5.0875,5.0875,5.0875,5.0875,5.0875,5.0949,5.0986,5.0986,5.0986,5.0986,2.5181,0.0,2.7446,2.7446,2.6833,0.0,0.0,0.0,0.0,0.0,0.0,0.0,0.0,2.486,2.5595,2.6209,2.7813,2.9794,3.2008,0.0,0.0,4.4324,4.6122,4.7406,4.8233,4.8489,4.86,4.86,4.8783,4.926,5.0124,5.0729,5.1463,5.227,5.2894,5.3124,5.298,5.285,5.2717,5.2581,5.2503,5.2503,5.2499,5.2317,5.2965,5.4174,5.3509,5.4055,5.5443,5.5109,5.5079,5.5264,5.5048,5.4803,5.4491,5.4078,5.3816,5.3617,5.3517,5.3518,5.3518,5.3518,5.3518,5.3518,5.3518,5.3518,5.3518,5.3518,5.3518,5.3518,5.3518,5.3518,5.3518,5.3518,5.3518,5.3518,5.3518,5.3618,5.3849,5.4271,5.4586,5.4892,5.5378,5.5671,5.5894,5.6118,5.6277,5.6551,5.6823,5.6853,5.6637,5.6161,5.5965,5.5647,5.5176,5.3778,5.2959,5.3124,5.302,5.2931,5.2931,5.216,5.172,5.172,5.172,5.172,5.172,5.2344,5.2637,5.2637,5.2637,5.2637,2.464,2.5411,2.6062,2.6062,2.5705,2.5411,0.0,0.0,0.0,0.0,0.0,0.0,0.0,0.0,0.0,2.7629,2.9684,0.0,0.0,0.0,0.0,4.5572,4.6892,4.781,0.0,4.8306,4.8306,4.8306,4.8306,4.8673,4.9537,5.0014,5.0765,5.194,5.2417,5.28,5.3103,5.2893,5.2761,5.2717,5.2572,5.2572,5.2694,5.2513,5.3218,5.4564,5.3982,5.4614,5.5993,5.5815,5.5786,5.5908,5.57,5.5373,5.4953,5.4586,5.4205,5.3913,5.3849,5.3816,5.3816,5.3816,5.3816,5.3816,5.3816,5.375,5.3685,5.3517,5.3551,5.3584,5.3584,5.3684,5.3816,5.3751,5.375,5.3783,5.3751,5.3948,5.4269,5.471,5.5134,5.5607,5.6126,5.6374,5.6591,5.6767,5.6959,5.7163,5.7437,5.7534,5.7485,5.7165,5.6822,5.6443,5.6049,5.4899,5.4078,5.3775,5.3739,5.3592,5.3203,5.2784,5.2564,5.2564,5.2564,5.2564,5.2564,5.3004,5.3203,5.3203,5.3203,5.3203,2.5191,2.5485,2.5595,2.5595,2.5595,2.5558,0.0,0.0,0.0,0.0,0.0,0.0,0.0,0.0,0.0,0.0,0.0,0.0,4.0618,4.326,4.5278,4.6892,4.781,0.0,4.8306,4.8306,4.8306,4.8306,4.8306,4.8636,4.9353,4.9537,5.0235,5.1573,5.1756,5.2197,5.3004,5.29,5.2828,5.2828,5.264,5.2663,5.2828,5.268,5.3453,5.4798,5.4467,0.0,5.6465,5.6429,5.6456,5.6465,5.6292,5.595,5.5549,5.5199,5.4803,5.4362,5.4299,5.4299,5.4299,5.4299,5.4299,5.4299,5.4299,5.4237,5.4078,5.3783,5.375,5.3816,5.3815,5.4076,5.4269,5.4141,5.4237,5.4301,5.4141,5.4491,5.4926,5.5259,5.578,5.6311,5.6776,5.6984,5.7163,5.7388,5.7412,5.751,5.7786,5.781,5.7857,5.7997,5.7409,5.6969,5.6969,5.6345,5.5611,5.4803,5.4656,5.4216,5.3445,5.3298,5.3203,5.3203,5.3203,5.3203,5.3203,5.3203,5.3203,5.3203,5.3203,5.3203,2.5191,2.5888,2.6429,2.6429,2.6429,2.6245,0.0,0.0,0.0,0.0,0.0,0.0,0.0,2.8851,3.0246,0.0,0.0,3.8153,0.0,0.0,4.5278,4.6892,0.0,4.8306,4.8306,4.8306,4.8306,4.8306,4.8306,4.8379,4.8489,4.9187,4.9721,4.9978,5.0618,5.1353,5.216,5.2694,5.2959,5.2959,5.2806,5.2828,5.2959,5.2828,5.3568,5.4942,0.0,5.5389,5.676,5.6829,5.6881,5.6881,5.6855,5.6635,5.6248,5.5716,5.5367,5.5194,5.4892,5.4799,5.4799,5.4799,5.4799,5.4799,5.4799,5.4799,5.4769,5.4707,5.4394,5.4205,5.4491,5.4586,5.4648,5.4738,5.4799,5.4799,5.4769,5.5044,5.5402,5.5729,5.6229,5.674,5.7087,5.7338,5.751,5.7559,5.7559,5.7643,5.7786,5.781,5.7857,5.7997,5.7886,5.7813,5.7813,5.7703,5.7299,5.6492,5.5794,5.506,5.4252,5.3555,5.3203,5.3203,5.3203,5.3203,5.3203,5.3203,5.3203,5.3203,5.3203,5.3203,2.5191,2.5988,2.6712,2.7126,2.7236,2.7163,0.0,0.0,0.0,0.0,0.0,0.0,0.0,0.0,3.2852,3.4981,0.0,4.0891,4.3277,4.4984,4.6415,0.0,0.0,4.8306,4.8306,4.8306,4.8306,4.8306,4.8306,4.8306,4.8306,4.8673,4.9114,4.961,4.9978,5.0545,5.1353,5.2082,5.2642,5.298,5.285,5.2872,5.298,5.2915,5.3748,5.5212,0.0,5.5886,5.7239,5.7363,5.7388,5.7313,5.7313,5.7138,5.6793,5.6193,5.5915,5.5865,5.5549,5.5549,5.5658,5.5658,5.5658,5.5764,5.6188,5.5895,5.5566,5.6129,5.5629,5.4892,5.5044,5.5313,5.5549,5.5461,5.5549,5.5636,5.5461,5.5751,5.6055,5.6284,5.6793,5.7252,5.7486,5.7715,5.7834,5.7834,5.7834,5.7857,5.7904,5.7904,5.7927,5.7997,5.7997,5.7997,5.7997,5.7997,5.7666,5.6859,5.6051,5.5244,5.4436,5.4032,5.3665,5.3203,5.3203,5.3203,5.3203,5.3203,5.3203,5.3203,5.3203,5.3424,2.5191,2.5988,2.6796,2.7603,0.0,0.0,0.0,0.0,0.0,0.0,0.0,0.0,0.0,3.333,0.0,3.8799,4.1148,4.313,4.4745,4.6195,4.7406,4.8196,4.8306,4.8306,4.8306,4.8122,4.7993,4.7993,4.7993,4.7993,4.7993,4.8196,4.86,4.928,4.9317,4.9664,5.0508,5.1132,5.1862,5.2767,5.2842,5.2974,5.306,5.306,5.3807,5.5139,5.5322,5.6131,5.7328,5.7653,5.7763,5.7631,5.7631,5.7461,5.7188,5.6714,5.6528,5.6474,5.6292,5.6347,5.6501,5.6501,5.6644,5.6895,5.7504,5.7259,5.6942,5.7763,5.7227,5.6319,5.5879,5.6118,5.642,5.6265,5.6339,5.6447,5.6265,5.6474,5.674,5.6845,5.7277,5.7655,5.7786,5.7927,5.7997,5.7997,5.7997,5.7997,5.7997,5.7997,5.7997,5.7997,5.7997,5.7997,5.7997,5.7997,5.774,5.7116,5.6308,5.5611,5.4987,5.4766,5.4289,5.3518,5.3482,5.3408,5.3203,5.3408,5.3482,5.3482,5.3665,5.4106,2.5191,2.5988,2.6796,2.7603,2.8925,0.0,2.9097,3.0063,0.0,3.114,0.0,0.0,0.0,3.6692,3.8909,4.0655,4.2323,4.3992,4.559,0.0,4.7406,4.8196,4.8306,4.8306,4.8306,4.7626,4.7186,4.7186,4.7186,4.7186,4.7186,4.7902,4.8343,4.8379,4.8379,4.882,4.9684,4.9757,5.0545,5.2087,5.2837,5.3203,5.3203,5.3203,5.3579,5.4334,5.5066,5.5802,5.6562,5.7434,5.7774,5.781,5.781,5.7607,5.7363,5.7338,5.7239,5.7138,5.7112,5.7112,5.7138,5.7138,5.7644,5.826,5.8332,5.8802,5.9345,5.9444,5.946,5.9061,5.7355,5.6907,5.6959,5.7087,5.7112,5.7138,5.7112,5.7239,5.7338,5.7338,5.7583,5.781,5.781,5.7927,5.7997,5.7997,5.7997,5.7997,5.7997,5.7997,5.7997,5.7997,5.7997,5.7997,5.7997,5.7997,5.796,5.7923,5.7152,5.6712,5.6638,5.5904,5.5133,5.4326,5.4326,5.3959,5.3203,5.3959,5.4326,5.4326,5.506,5.5486,2.4566,2.5621,2.6675,2.6979,2.9035,0.0,0.0,3.2118,3.3793,3.4321,3.5105,0.0,0.0,0.0,3.9827,4.0912,4.2873,4.4452,4.5076,4.5847,4.6471,4.6764,4.6801,4.6801,4.6801,4.6544,4.6361,4.6361,4.6361,4.6562,4.7076,4.7369,4.7773,4.8269,4.8306,4.8453,4.8783,4.9353,4.9865,5.0407,5.1726,5.2605,5.3082,5.2995,5.3412,5.4202,5.4517,5.5395,5.6685,5.7024,5.7487,5.7927,5.7927,5.7881,5.775,5.7655,5.7607,5.7559,5.7461,5.7486,5.7668,5.8178,5.8543,5.898,5.9965,6.006,5.9972,6.0559,6.0416,5.9844,5.8947,5.8853,5.8978,5.8953,5.8639,5.83,5.8226,5.7899,5.7631,5.7631,5.781,5.7927,5.7927,5.7973,5.7997,5.7997,5.7997,5.7997,5.7997,5.7997,5.7997,5.7997,5.7997,5.7997,5.7997,5.7997,5.7997,5.7997,5.7703,5.7336,5.6822,5.6528,5.5978,5.5133,5.5133,5.4987,5.4693,5.4987,5.5133,5.5133,5.5486,5.5868,2.419,2.5364,2.6638,2.6906,0.0,0.0,3.2412,3.4211,3.6046,3.689,3.7881,0.0,0.0,0.0,0.0,0.0,4.3297,4.4691,4.4691,4.5406,4.5883,4.5883,4.5883,4.5883,4.5883,4.5663,4.5516,4.5516,4.5516,4.5773,4.6305,4.6819,4.7223,4.7535,4.7792,4.7939,4.7939,4.8526,4.9018,4.9411,5.041,5.1484,5.247,5.2419,5.2878,5.3756,5.4093,5.506,5.6455,5.6712,5.7262,5.7997,5.7997,5.7997,5.7997,5.7904,5.7881,5.7857,5.7786,5.781,5.7954,5.8516,5.9029,5.9651,6.075,6.0993,6.1017,6.164,6.1446,6.0982,6.0806,6.0516,6.0237,6.0139,5.9786,5.9408,5.9335,5.8944,5.8613,5.8613,5.8684,5.8767,5.8767,5.8767,5.8767,5.8767,5.8767,5.8657,5.84,5.84,5.829,5.8033,5.7997,5.7997,5.7997,5.7997,5.7997,5.7997,5.7997,5.774,5.7189,5.7189,5.6785,5.5978,5.5978,5.5831,5.5596,5.5831,5.5978,5.5978,5.6235,5.6638,2.419,2.5364,2.6796,0.0,0.0,0.0,3.4637,3.6303,3.7749,3.8579,0.0,4.1095,4.1095,0.0,0.0,4.2286,4.3644,4.4691,4.4691,4.5369,4.5883,4.5883,4.5883,4.5883,4.5883,4.5149,4.4691,4.4691,4.4691,4.4691,4.4691,4.6195,4.6709,4.592,4.6672,4.7076,4.7076,4.7113,4.7862,4.9375,4.9097,4.9828,5.1413,5.1486,5.1988,5.2842,5.3792,5.473,5.5647,5.6492,5.7299,5.7997,5.7997,5.7997,5.7997,5.7997,5.7997,5.7997,5.7997,5.7997,5.7997,5.7997,5.9098,6.0419,6.0419,6.152,6.278,6.278,6.278,6.278,6.278,6.163,6.0419,6.0419,6.0419,6.0419,6.0419,6.0419,6.0419,6.0419,6.0419,6.0419,6.0419,6.0419,6.0419,6.0419,6.0419,6.0126,5.9294,5.9184,5.8914,5.8107,5.7997,5.7997,5.7997,5.7997,5.7997,5.7997,5.7997,5.7997,5.7997,5.7997,5.7629,5.6822,5.6822,5.6418,5.5611,5.6418,5.6822,5.6822,5.7629,5.7997,2.419,2.5364,0.0,2.7603,0.0,0.0,0.0,3.7624,0.0,0.0,4.1625,4.1772,4.1205,0.0,0.0,4.2286,4.3167,4.3864,4.3864,4.4048,4.4195,4.4195,4.4195,4.4195,4.4195,4.3975,4.3864,4.3864,4.3864,4.4085,4.4654,4.5131,4.5553,4.5883,4.614,4.625,4.625,4.6819,4.7257,4.7594,4.7963,4.9277,5.1352,5.1226,5.1751,5.2694,5.3061,5.4115,5.5706,5.7079,5.7776,5.7997,5.7997,5.7997,5.7997,5.7997,5.7997,5.7997,5.7997,5.7997,5.8107,5.8657,5.9575,6.0529,6.108,6.1961,6.278,6.278,6.278,6.278,6.278,6.245,6.2108,6.2108,6.1667,6.1227,6.1227,6.0786,6.0419,6.0419,6.0419,6.0419,6.0419,6.0419,6.0419,6.0419,6.0419,6.0126,5.9294,5.9184,5.8914,5.8107,5.7997,5.7997,5.7997,5.7997,5.7997,5.7997,5.7997,5.7997,5.7997,5.7997,5.7886,5.7666,5.7629,5.7519,5.7299,5.7519,5.7629,5.7666,5.7886,5.7997,2.4603,2.5841,0.0,2.8851,3.1421,3.438,3.7514,0.0,0.0,0.0,0.0,4.2616,4.2139,4.2433,0.0,4.2763,4.3167,4.3515,4.3515,4.3515,4.3515,4.3515,4.3515,4.3515,4.3515,4.3515,4.3515,4.3515,4.3515,4.3718,4.4195,4.4525,4.4782,4.4929,4.5259,4.5406,4.5406,4.5902,4.6378,4.6864,4.7259,4.8447,5.0387,5.0543,5.119,5.2177,5.3397,5.4561,5.5721,5.7336,5.7997,5.7997,5.7997,5.7997,5.7997,5.7997,5.7997,5.7997,5.7997,5.7997,5.807,5.8584,5.9501,6.0493,6.097,6.1924,6.278,6.278,6.278,6.278,6.278,6.278,6.278,6.278,6.2438,6.2071,6.2071,6.1704,6.1374,6.1374,6.1374,6.1374,6.1374,6.1374,6.1374,6.1374,6.108,6.0713,6.0236,5.9869,5.9501,5.9024,5.8951,5.8804,5.851,5.8474,5.8327,5.8033,5.7997,5.7997,5.7997,5.7997,5.7997,5.7997,5.7997,5.7997,5.7997,5.7997,5.7997,5.7997,5.7997,5.7997,2.5191,0.0,0.0,3.0809,3.339,0.0,4.0141,4.1625,4.2433,4.3331,0.0,4.3515,4.3515,4.3515,4.3515,4.3515,4.3515,4.3515,4.3515,4.3515,4.3515,4.3515,4.3515,4.3515,4.3515,4.3515,4.3515,4.3515,4.3515,4.3515,4.3515,4.4195,4.4268,4.3515,4.4195,4.4599,4.4599,4.4672,4.5388,4.6778,4.681,4.7494,4.8826,4.9575,5.0524,5.1675,5.4342,5.5537,5.5743,5.7262,5.7923,5.7997,5.7997,5.7997,5.7997,5.7997,5.7997,5.7997,5.7997,5.7997,5.7997,5.7997,5.9098,6.0419,6.0419,6.152,6.278,6.278,6.278,6.278,6.278,6.278,6.278,6.278,6.278,6.278,6.278,6.278,6.278,6.278,6.278,6.278,6.278,6.278,6.278,6.278,6.2181,6.1667,6.1594,6.097,6.0493,6.0419,6.0419,6.0126,5.9368,5.9294,5.9024,5.8253,5.8143,5.8107,5.8107,5.8033,5.7997,5.7997,5.7997,5.7997,5.7997,5.7997,5.7997,5.7997,5.7997,5.7997,2.5191,2.6586,0.0,0.0,3.4688,3.8322,3.9827,4.0781,4.1772,4.3204,4.3515,4.3515,4.3515,4.3515,4.3515,4.3515,4.3515,4.3515,4.3515,4.3515,4.3515,4.3515,4.3515,4.3515,4.3515,4.3515,4.3515,4.3515,4.3515,4.3515,4.3515,4.3644,4.3698,4.3515,4.3644,4.3754,4.3754,4.4378,4.4839,4.515,4.6356,4.7066,4.7348,4.9262,5.1057,5.2733,5.4078,5.5023,5.5706,5.6638,5.7446,5.7997,5.7997,5.7997,5.7997,5.7997,5.7997,5.7997,5.7997,5.7997,5.7997,5.7997,5.9098,6.0419,6.0419,6.152,6.278,6.278,6.278,6.278,6.278,6.278,6.278,6.278,6.278,6.278,6.278,6.278,6.278,6.278,6.278,6.278,6.278,6.278,6.278,6.278,6.2658,6.2328,6.1667,6.1447,6.108,6.0456,6.0419,6.0346,6.0162,6.0162,6.0089,5.9905,5.9281,5.8927,5.8927,5.8327,5.7997,5.7997,5.7997,5.7997,5.7997,5.7997,5.7997,5.7997,5.7997,5.7997,2.5668,0.0,0.0,3.1751,0.0,3.8799,3.9239,4.0267,4.1352,4.2176,4.2359,4.2359,4.2359,4.2359,4.2359,4.2359,4.2359,4.2359,4.2359,4.2359,4.2359,4.2359,4.2359,4.2506,4.2873,4.291,4.3094,4.3478,4.3515,4.3515,4.3515,4.3515,4.3515,4.3515,4.3515,4.3515,4.3515,4.3901,4.4306,4.4656,4.5865,4.7055,4.8187,4.9711,5.1155,5.2505,5.3842,5.462,5.5097,5.6308,5.7042,5.7446,5.785,5.7997,5.7997,5.7997,5.7997,5.7997,5.7997,5.7997,5.7997,5.7997,5.8841,5.9905,6.0272,6.1263,6.2328,6.2695,6.278,6.278,6.278,6.278,6.278,6.278,6.278,6.278,6.278,6.278,6.278,6.278,6.278,6.278,6.278,6.278,6.278,6.278,6.278,6.2658,6.2218,6.2181,6.2034,6.1594,6.1557,6.141,6.1006,6.097,6.0823,6.0419,6.0015,5.9795,5.9795,5.9391,5.8804,5.8033,5.7997,5.7997,5.7997,5.7997,5.7997,5.7997,5.7997,5.7997,2.5999,0.0,2.9035,3.2522,3.5752,0.0,3.805,3.9187,4.0251,4.0251,4.0691,4.1095,4.1095,4.0985,4.0875,4.0875,4.0875,4.0875,4.0875,4.1022,4.1095,4.1095,4.1095,4.1352,4.2029,4.2213,4.258,4.3258,4.3441,4.3515,4.3515,4.3515,4.3515,4.3515,4.3515,4.3515,4.3515,4.3515,4.3828,4.4525,4.5443,4.7058,4.9187,5.0061,5.0936,5.1904,5.3366,5.4142,5.4509,5.5978,5.6675,5.6895,5.7703,5.7997,5.7997,5.7997,5.7997,5.7997,5.7997,5.7997,5.7997,5.7997,5.8547,5.9331,6.0162,6.097,6.1777,6.2585,6.278,6.278,6.278,6.278,6.278,6.278,6.278,6.278,6.278,6.278,6.278,6.278,6.278,6.278,6.278,6.278,6.278,6.278,6.278,6.278,6.278,6.278,6.278,6.278,6.278,6.2548,6.1851,6.1814,6.152,6.086,6.0676,6.0603,6.0603,6.0456,5.9758,5.8437,5.84,5.8364,5.8217,5.8217,5.8143,5.7997,5.7997,5.7997,0.0,0.0,3.0173,0.0,3.3623,3.5481,0.0,0.0,3.6927,0.0,3.9166,4.1095,4.1095,4.0524,4.0047,4.0047,4.0047,4.0047,4.0047,4.0671,4.1095,4.1095,4.1095,4.1132,4.1242,4.1882,4.2323,4.2433,4.3094,4.3515,4.3515,4.3515,4.3515,4.3515,4.3515,4.3515,4.3515,4.3515,4.3551,4.3698,4.5186,4.6434,4.748,4.904,5.0525,5.1993,5.2234,5.3115,5.4473,5.539,5.6161,5.6895,5.7703,5.7997,5.7997,5.7997,5.7997,5.7997,5.7997,5.7997,5.7997,5.7997,5.8547,5.9331,6.0162,6.097,6.1777,6.2585,6.278,6.278,6.278,6.278,6.278,6.278,6.278,6.278,6.278,6.278,6.278,6.278,6.278,6.278,6.278,6.278,6.278,6.278,6.278,6.278,6.278,6.278,6.278,6.278,6.278,6.2768,6.2658,6.2658,6.256,6.2511,6.1814,6.1447,6.1447,6.0786,6.0309,6.0089,6.0089,5.9758,5.9038,5.9038,5.8694,5.7997,5.7997,5.7997,2.527,2.7143,2.9106,0.0,3.1531,3.3109,3.3537,0.0,3.5018,3.5481,3.6692,3.783,3.8322,3.8102,3.7881,3.7881,3.7881,3.7881,3.7881,3.8175,3.8395,3.8395,3.8799,3.9276,3.9701,4.0487,4.1148,4.1589,4.2359,4.2837,4.2837,4.324,4.3515,4.3515,4.3515,4.3515,4.3515,4.3515,4.3718,4.4195,4.5333,4.6324,4.7149,4.8343,4.9774,5.1353,5.1793,5.2674,5.3812,5.506,5.5794,5.6235,5.7519,5.7997,5.7997,5.7997,5.7997,5.7997,5.7997,5.7997,5.7997,5.7997,5.8253,5.8767,6.0015,6.0639,6.119,6.2475,6.278,6.278,6.278,6.278,6.278,6.278,6.278,6.278,6.278,6.278,6.278,6.278,6.278,6.278,6.278,6.278,6.278,6.278,6.278,6.278,6.278,6.278,6.278,6.278,6.278,6.278,6.278,6.278,6.278,6.278,6.2475,6.2291,6.2291,6.1924,6.1741,6.1741,6.086,6.0236,5.9869,5.9869,5.9465,5.8694,5.9134,5.9098,0.0,0.0,2.7411,2.7945,2.9292,3.0687,0.0,0.0,3.3109,0.0,3.4087,3.427,3.4945,3.5569,3.5973,3.5973,3.5973,3.5973,3.5973,3.6156,3.6303,3.6303,3.6831,3.7529,3.8322,3.9129,3.9937,4.0728,4.1552,4.1992,4.1992,4.2763,4.3204,4.3204,4.3404,4.3515,4.3515,4.3515,4.3791,4.4415,4.5406,4.6214,4.6819,4.7865,4.9114,5.0545,5.1353,5.227,5.3314,5.473,5.5427,5.5743,5.7152,5.7813,5.7997,5.7997,5.7997,5.7997,5.7997,5.7997,5.7997,5.7997,5.7997,5.829,5.9905,6.0419,6.075,6.2365,6.278,6.278,6.278,6.278,6.278,6.278,6.278,6.278,6.278,6.278,6.278,6.278,6.278,6.278,6.278,6.278,6.278,6.278,6.278,6.278,6.278,6.278,6.278,6.278,6.278,6.278,6.278,6.278,6.278,6.278,6.278,6.278,6.278,6.278,6.278,6.278,6.163,6.0933,6.0713,6.0713,6.0309,5.9515,6.0126,6.0089,0.0,2.4967,0.0,2.5578,0.0,0.0,0.0,0.0,3.0613,3.1421,3.158,3.1617,3.1654,3.3513,3.5078,3.5078,3.5078,3.5078,3.5078,3.5789,3.6303,3.6303,3.634,3.667,3.7492,3.8285,3.9093,3.99,4.0708,4.1168,4.1168,4.1919,4.2359,4.2359,4.3094,4.3515,4.3515,4.3515,4.3515,4.3588,4.5149,4.592,4.603,4.7609,4.8783,4.9721,5.0508,5.1756,5.3298,5.4106,5.4913,5.5706,5.6528,5.7336,5.7997,5.7997,5.7997,5.7997,5.7997,5.7997,5.7997,5.7997,5.7997,5.829,5.9905,6.0419,6.075,6.2365,6.278,6.278,6.278,6.278,6.278,6.278,6.278,6.278,6.278,6.278,6.278,6.278,6.278,6.278,6.278,6.278,6.278,6.278,6.278,6.278,6.278,6.278,6.278,6.278,6.278,6.278,6.278,6.278,6.278,6.278,6.278,6.278,6.278,6.278,6.278,6.278,6.2707,6.2291,6.152,6.152,6.1117,6.0346,6.0382,6.0382,0.0,0.0,0.0,2.5284,2.5815,2.6476,2.7262,2.7666,2.8264,2.9574,2.9867,3.0173,3.1213,3.2118,3.2852,3.339,3.3463,3.3647,3.4174,3.4504,3.4688,3.4688,3.5165,3.5591,3.5848,3.711,3.8043,3.8337,3.957,4.0341,4.0341,4.1111,4.1772,4.2286,4.258,4.2983,4.3515,4.3515,4.3515,4.3497,4.4599,4.5406,4.592,4.7039,4.8306,4.9647,5.0435,5.1426,5.2527,5.3849,5.4876,5.5706,5.6492,5.7299,5.7997,5.7997,5.7997,5.7997,5.7997,5.7997,5.7997,5.7997,5.7997,5.829,5.9905,6.0419,6.075,6.2365,6.278,6.278,6.278,6.278,6.278,6.278,6.278,6.278,6.278,6.278,6.278,6.278,6.278,6.278,6.278,6.278,6.278,6.278,6.278,6.278,6.278,6.278,6.278,6.278,6.278,6.278,6.278,6.278,6.278,6.278,6.278,6.278,6.278,6.278,6.278,6.278,6.278,6.2658,6.2365,6.2365,6.1961,6.119,6.1704,6.1667,2.4468,0.0,0.0,0.0,0.0,2.5227,2.6025,0.0,2.6576,2.7923,2.818,2.851,2.9586,3.0001,3.0613,3.1971,3.2192,3.2375,3.2926,3.322,3.3403,3.3403,3.4087,3.4711,3.4968,3.6266,3.7199,3.7492,3.8726,3.9496,3.9496,4.0267,4.1185,4.2286,4.2543,4.2947,4.3515,4.3515,4.3515,4.3515,4.4305,4.5112,4.592,4.6709,4.7865,4.9206,5.0031,5.1022,5.2087,5.3445,5.4473,5.528,5.6088,5.6895,5.7629,5.7886,5.7997,5.7997,5.7997,5.7997,5.7997,5.7997,5.7997,5.8253,5.9612,6.0199,6.0676,6.2034,6.2585,6.278,6.278,6.278,6.278,6.278,6.278,6.278,6.278,6.278,6.278,6.278,6.278,6.278,6.278,6.278,6.278,6.278,6.278,6.278,6.278,6.278,6.278,6.278,6.278,6.278,6.278,6.278,6.289,6.3209,6.3246,6.3356,6.3624,6.3392,6.3246,6.3246,6.2952,6.278,6.278,6.278,6.2548,6.2034,6.2548,6.2511,0.0,0.0,0.0,0.0,0.0,0.0,2.5191,0.0,2.5595,2.6392,2.6565,2.6565,2.6612,2.7236,2.8532,3.0919,3.1323,3.136,3.1397,3.2082,3.2583,3.2583,3.333,3.41,3.4894,3.5752,3.6597,3.7419,3.8212,3.8689,3.8689,3.9496,4.0671,4.2249,4.3057,4.3515,4.3515,4.3515,4.3515,4.3515,4.4305,4.5112,4.592,4.6709,4.7516,4.8343,4.9243,5.0492,5.2013,5.2821,5.3665,5.4473,5.528,5.6088,5.6895,5.7703,5.7997,5.7997,5.7997,5.7997,5.7997,5.7997,5.7997,5.8143,5.8964,5.9735,6.0566,6.1374,6.2181,6.278,6.278,6.278,6.278,6.278,6.278,6.278,6.278,6.278,6.278,6.278,6.278,6.278,6.278,6.278,6.278,6.278,6.278,6.278,6.2842,6.2842,6.2853,6.2853,6.2853,6.2842,6.2842,6.2842,6.3209,6.4053,6.4127,6.4494,6.5264,6.453,6.409,6.409,6.3246,6.278,6.278,6.278,6.278,6.278,6.278,6.278,2.4746,0.0,0.0,0.0,0.0,0.0,2.4495,2.4549,2.475,2.5558,2.5742,2.5925,2.6502,2.6796,2.7346,2.8594,2.9769,3.0723,3.1323,3.2082,3.2583,3.2583,3.333,3.388,3.41,3.4857,3.5701,0.0,3.7382,3.808,3.8689,4.001,4.1258,4.2286,4.3057,4.3515,4.3515,4.3515,4.3515,4.3515,4.3718,4.4562,4.592,4.614,4.6985,4.8343,4.9243,5.0198,5.1206,5.2013,5.3151,5.4473,5.528,5.6088,5.6895,5.7703,5.7997,5.7997,5.7997,5.7997,5.7997,5.7997,5.7997,5.8143,5.8964,5.9735,6.0566,6.1374,6.2181,6.278,6.278,6.278,6.278,6.278,6.278,6.278,6.278,6.278,6.278,6.278,6.278,6.278,6.278,6.278,6.278,6.278,6.278,6.3025,6.3649,6.3723,6.3943,6.4567,6.409,6.3723,6.3723,6.3723,6.3833,6.409,6.464,6.5081,6.5301,6.453,6.409,6.409,6.3246,6.278,6.278,6.278,6.278,6.278,6.278,6.278,0.0,0.0,0.0,0.0,0.0,0.0,2.4744,2.4448,2.4337,2.4787,2.4897,2.5044,2.5511,2.5878,2.6355,2.7163,2.8374,2.9475,3.0283,3.1091,3.1702,3.2082,3.2816,3.344,3.377,3.4527,3.5371,3.6229,3.7052,3.786,3.8652,4.0215,4.1315,4.1772,4.291,4.3515,4.3515,4.3515,4.3515,4.3515,4.3515,4.4342,4.5883,4.5883,4.6764,4.8343,4.882,4.9517,5.0362,5.1169,5.2454,5.3995,5.4803,5.5574,5.6418,5.7189,5.7703,5.7997,5.7997,5.7997,5.7997,5.7997,5.7997,5.8107,5.8547,5.9501,6.0493,6.097,6.1924,6.278,6.278,6.278,6.278,6.278,6.278,6.278,6.278,6.278,6.278,6.278,6.278,6.278,6.278,6.278,6.289,6.3282,6.3356,6.3649,6.4494,6.4604,6.4787,6.5264,6.4897,6.4604,6.4604,6.4604,6.4751,6.5081,6.5558,6.5962,6.6292,6.5191,6.4604,6.4604,6.3429,6.278,6.278,6.278,6.278,6.278,6.278,6.278,0.0,0.0,0.0,0.0,0.0,0.0,2.565,2.4992,2.4346,2.4346,2.4273,2.419,2.419,2.486,2.5668,2.6465,2.7273,2.8081,2.8877,2.9684,3.0467,3.1164,3.1971,3.2742,3.3476,3.427,3.5078,3.5973,3.6942,3.7896,3.8799,4.0194,4.1058,4.1242,4.2616,4.3404,4.3515,4.3515,4.3515,4.3515,4.3515,4.4305,4.5773,4.5847,4.6728,4.8196,4.8269,4.8783,4.9647,5.0472,5.172,5.3188,5.4142,5.495,5.5706,5.6602,5.7409,5.7997,5.7997,5.7997,5.7997,5.7997,5.7997,5.7997,5.7997,5.9061,6.0309,6.0493,6.163,6.278,6.278,6.278,6.278,6.278,6.278,6.278,6.278,6.278,6.278,6.278,6.278,6.278,6.278,6.278,6.3099,6.398,6.409,6.442,6.5338,6.5448,6.5485,6.5558,6.5485,6.5448,6.5448,6.5448,6.5742,6.6439,6.6586,6.6953,6.765,6.6256,6.5411,6.5301,6.3624,6.278,6.278,6.278,6.278,6.278,6.278,6.278,0.0,0.0,0.0,0.0,0.0,0.0,2.6693,2.5949,2.525,2.525,2.4706,2.419,2.419,2.486,2.5668,2.6465,2.7273,2.8081,2.8877,2.9684,3.0246,3.043,3.1127,3.1678,3.1837,3.2596,3.339,3.4247,3.6281,3.8117,3.957,3.9974,4.0744,4.2029,4.2359,4.2837,4.3515,4.3515,4.3515,4.3515,4.3515,4.4011,4.4966,4.559,4.6434,4.7369,4.7993,4.8783,4.9647,5.0472,5.1353,5.2417,5.4546,5.5486,5.5757,5.7226,5.7886,5.7997,5.7997,5.7997,5.7997,5.7997,5.7997,5.7997,5.7997,5.8657,5.9698,6.1006,6.2071,6.278,6.278,6.278,6.278,6.278,6.278,6.278,6.278,6.278,6.278,6.278,6.278,6.278,6.278,6.278,6.3099,6.398,6.409,6.4604,6.6072,6.6256,6.6512,6.7136,6.6659,6.6256,6.6256,6.6256,6.6329,6.6476,6.71,6.754,6.7687,6.6769,6.5962,6.5301,6.3624,6.278,6.278,6.278,6.278,6.278,6.278,6.278,0.0,0.0,0.0,2.8588,0.0,0.0,0.0,2.686,2.6169,2.6169,2.5768,2.5451,2.5451,2.5762,2.6245,2.7053,2.753,2.7934,2.8338,2.9097,2.961,2.961,3.032,3.0944,3.136,3.1751,3.2485,3.3697,3.573,3.7419,3.8631,3.9093,3.9863,4.1075,4.1882,4.2506,4.291,4.3294,4.3515,4.3515,4.3515,4.3901,4.4728,4.5516,4.6361,4.7149,4.7976,4.8563,4.904,5.0288,5.1059,5.161,5.3628,5.4876,5.5684,5.6492,5.7299,5.7997,5.7997,5.7997,5.7997,5.7997,5.7997,5.7997,5.7997,5.8841,6.0052,6.1263,6.2181,6.278,6.278,6.278,6.278,6.278,6.278,6.278,6.278,6.278,6.278,6.278,6.278,6.278,6.278,6.278,6.3246,6.4494,6.4714,6.5264,6.688,6.71,6.7247,6.765,6.732,6.71,6.71,6.71,6.71,6.71,6.7467,6.7687,6.7687,6.6916,6.5925,6.4714,6.387,6.3246,6.278,6.278,6.278,6.278,6.278,6.278,0.0,0.0,0.0,0.0,0.0,2.8929,0.0,0.0,0.0,2.7101,2.6891,2.6727,0.0,0.0,0.0,2.7688,0.0,0.0,0.0,2.8473,0.0,2.8803,2.9464,3.021,3.087,3.1103,3.1911,3.366,3.5055,3.6229,3.7235,3.8028,3.8836,3.9643,4.1075,4.1992,4.2286,4.2947,4.3368,4.3515,4.3515,4.3828,4.4488,4.5443,4.625,4.6929,4.7883,4.8306,4.8453,5.0105,5.0802,5.0986,5.2747,5.4326,5.5611,5.5757,5.6748,5.7997,5.7997,5.7997,5.7997,5.7997,5.7997,5.7997,5.7997,5.9134,6.0529,6.119,6.2071,6.278,6.278,6.278,6.278,6.278,6.278,6.278,6.278,6.278,6.278,6.278,6.278,6.278,6.278,6.278,6.3319,6.4861,6.5191,6.5852,6.7283,6.7577,6.7687,6.7687,6.7687,6.7687,6.7687,6.7687,6.7687,6.7687,6.7687,6.7687,6.7687,6.6916,6.5888,6.4567,6.442,6.398,6.3282,6.3282,6.3209,6.3062,6.3062,6.3135,0.0,0.0,0.0,0.0,3.1029,0.0,0.0,0.0,2.9045,2.8193,0.0,0.0,0.0,0.0,0.0,0.0,0.0,0.0,2.7897,2.8473,2.873,2.8007,2.8656,2.917,2.9244,2.9904,3.1311,3.3623,3.399,3.4761,3.634,3.7199,3.8006,3.8799,3.9717,4.0855,4.2286,4.2396,4.28,4.3515,4.3515,4.3551,4.3681,4.5223,4.5957,4.6104,4.7645,4.8306,4.8453,5.0105,5.0802,5.1022,5.3371,5.4803,5.5684,5.6418,5.7226,5.7997,5.7997,5.7997,5.7997,5.7997,5.7997,5.7997,5.7997,5.9134,6.0419,6.0529,6.163,6.278,6.278,6.278,6.278,6.278,6.278,6.278,6.278,6.278,6.278,6.278,6.278,6.278,6.278,6.278,6.3135,6.409,6.4861,6.5632,6.6512,6.7247,6.7687,6.7687,6.7687,6.7687,6.7687,6.7687,6.7687,6.7687,6.7687,6.7687,6.7687,6.6916,6.6402,6.6219,6.5521,6.5118,6.5044,6.5044,6.464,6.3943,6.3943,6.4347,0.0,0.0,0.0,0.0,0.0,0.0,3.1867,0.0,3.0368,0.0,0.0,0.0,0.0,0.0,0.0,0.0,2.8801,0.0,0.0,0.0,2.8693,0.0,0.0,0.0,2.8987,2.9721,3.0797,3.2302,3.2852,3.3844,3.5445,3.634,3.7162,3.797,3.9239,4.0451,4.1589,4.2066,4.269,4.3515,4.3515,4.3515,4.3551,4.5149,4.5883,4.5993,4.7609,4.8306,4.8453,5.0105,5.0802,5.0986,5.2931,5.4473,5.5647,5.5978,5.6895,5.7997,5.7997,5.7997,5.7997,5.7997,5.7997,5.7997,5.7997,5.9134,6.0419,6.0419,6.1557,6.278,6.278,6.278,6.278,6.278,6.278,6.278,6.278,6.278,6.278,6.278,6.278,6.278,6.278,6.278,6.3099,6.398,6.4787,6.5595,6.6402,6.7173,6.7687,6.7687,6.7687,6.7687,6.7687,6.7687,6.7687,6.7687,6.7687,6.7687,6.7687,6.7357,6.699,6.6512,6.6182,6.5778,6.5301,6.5301,6.5375,6.5485,6.5007,6.4971,3.2093,0.0,0.0,0.0,0.0,0.0,0.0,0.0,0.0,0.0,0.0,0.0,0.0,0.0,0.0,0.0,0.0,2.8838,0.0,2.8631,0.0,0.0,0.0,0.0,0.0,2.9537,3.021,3.1017,3.1825,3.2876,3.427,3.5605,3.656,3.7162,3.8726,4.0047,4.1095,4.1699,4.2506,4.3515,4.3515,4.3515,4.3551,4.5149,4.5883,4.5993,4.7609,4.8306,4.8453,5.0105,5.0802,5.0949,5.2564,5.4069,5.528,5.5522,5.6602,5.7997,5.7997,5.7997,5.7997,5.7997,5.7997,5.7997,5.7997,5.9134,6.0419,6.0419,6.1557,6.278,6.278,6.278,6.278,6.278,6.278,6.278,6.278,6.278,6.278,6.278,6.278,6.278,6.278,6.278,6.3099,6.398,6.4787,6.5595,6.6402,6.7173,6.7687,6.7687,6.7687,6.7687,6.7687,6.7687,6.7687,6.7687,6.7687,6.7687,6.7687,6.7687,6.743,6.6843,6.6896,6.6602,6.6014,6.6066,6.636,6.6938,6.6077,6.5794,0.0,0.0,0.0,3.3237,0.0,0.0,0.0,0.0,3.3346,0.0,0.0,0.0,0.0,0.0,0.0,0.0,0.0,0.0,0.0,0.0,0.0,0.0,0.0,0.0,0.0,2.9023,2.9354,3.0173,3.098,3.1788,3.2619,3.4981,3.6303,3.634,3.7918,3.9496,4.1058,4.1132,4.1919,4.3515,4.3515,4.3515,4.3551,4.5149,4.5883,4.5993,4.7609,4.8306,4.8453,5.0105,5.0802,5.0949,5.2564,5.3702,5.4509,5.5317,5.6602,5.7997,5.7997,5.7997,5.7997,5.7997,5.7997,5.7997,5.7997,5.9134,6.0419,6.0419,6.1557,6.278,6.278,6.278,6.278,6.278,6.278,6.278,6.278,6.278,6.278,6.278,6.278,6.278,6.278,6.278,6.3099,6.398,6.4787,6.5595,6.6402,6.7173,6.7687,6.7687,6.7687,6.7687,6.7687,6.7687,6.7687,6.7687,6.7687,6.7687,6.7687,6.7687,6.7687,6.765,6.781,6.7826,6.7826,6.7945,6.8033,6.8033,6.7093,6.7053,0.0,0.0,3.3843,3.3979,0.0,0.0,0.0,0.0,0.0,0.0,0.0,0.0,0.0,0.0,0.0,0.0,0.0,0.0,0.0,0.0,0.0,0.0,0.0,0.0,0.0,0.0,2.9317,3.0136,3.0944,3.1751,3.2546,3.4945,3.6303,3.6303,3.8395,4.001,4.1095,4.1609,4.2433,4.3515,4.3515,4.3515,4.3551,4.5149,4.5883,4.5993,4.7609,4.8636,4.9224,5.0362,5.1096,5.1683,5.2784,5.3702,5.4509,5.528,5.6271,5.7299,5.7813,5.7997,5.7997,5.7997,5.7997,5.8107,5.8621,5.9575,6.0529,6.1043,6.1961,6.278,6.278,6.278,6.278,6.278,6.278,6.278,6.278,6.278,6.278,6.278,6.278,6.2989,6.3576,6.3649,6.3759,6.4053,6.5228,6.6182,6.6476,6.7173,6.7687,6.7687,6.7687,6.7687,6.7687,6.7687,6.7687,6.7687,6.7794,6.7847,6.7847,6.7926,6.7941,6.7941,6.807,6.8146,6.8146,6.8334,6.8431,6.8456,6.8311,6.8278,3.3726,3.3928,0.0,3.4264,3.4439,0.0,3.4651,0.0,0.0,0.0,0.0,0.0,0.0,0.0,0.0,0.0,0.0,0.0,0.0,2.901,0.0,0.0,0.0,0.0,0.0,2.8987,2.9207,2.9721,3.076,3.1617,0.0,3.4798,3.6303,3.6303,3.8652,4.0304,4.1095,4.1919,4.269,4.3515,4.3515,4.3515,4.3551,4.5149,4.5883,4.5993,4.7609,4.8783,4.9647,5.0472,5.1279,5.2087,5.2894,5.3518,5.4106,5.5207,5.6271,5.7299,5.7813,5.7997,5.7997,5.7997,5.7997,5.8143,5.8964,5.9735,6.0566,6.1374,6.2181,6.278,6.278,6.278,6.278,6.278,6.278,6.278,6.278,6.278,6.278,6.278,6.278,6.3099,6.3943,6.4347,6.4604,6.4897,6.5852,6.6586,6.688,6.7357,6.7687,6.7687,6.7687,6.7687,6.7687,6.7687,6.7687,6.7687,6.7847,6.7926,6.7978,6.8095,6.8171,6.8222,6.8395,6.8517,6.8565,6.8749,6.8885,6.893,6.9198,6.9198]}]]